Site Date DSCMET_AIRTEMP_MEAN_150_0_01 DSCMET_AIRTEMP_MEAN_1000_0_02 DSCMET_AIRTEMP_MEAN_2000_0_03 DSCMET_AIRTEMP_MEAN_3000_0_04 DSCMET_AIRTEMP_MEAN_4000_0_05 DSCMET_RELHUM_MEAN_150_0_01 DSCMET_DEWPT_MEAN_150_0_01 DSCMET_VPD_MEAN_150_0_01 DSCMET_LWV_MEAN_150_0_01 DSCMET_LWV_MEAN_1000_0_02 DSCMET_LWV_MEAN_2000_0_03 DSCMET_AIRTEMP_MEAN_5000_0_06 DSCMET_RELHUM_MEAN_5000_0_06 DSCMET_DEWPT_MEAN_5000_0_06 DSCMET_VPD_MEAN_5000_0_06 DSCMET_LW_MEAN_3000_0_04 DSCMET_LW_MEAN_4000_0_05 DSCMET_LW_MEAN_5000_0_06 DSCMET_WSPD_SNC_MEAN_150_0_01 DSCMET_WDIR_SNC_MEAN_150_0_01 DSCMET_WSPD_SNC_MEAN_5000_0_02 DSCMET_WDIR_SNC_MEAN_5000_0_02 PRIMET_LW_OUT_MEAN_600_0_02 PRIMET_LW_IN_MEAN_600_0_02 PRIMET_SW_OUT_MEAN_600_0_02 PRIMET_SW_IN_MEAN_600_0_02
DSCMET_COMPS 2018-10-01 00:00:00 9.870 10.050 9.990 10.010 10.040 98.400 9.640 0.195 265.300 410.200 366.900 10.930 95.000 10.161 0.653 187.900 265.900 265.900 0.1090 70.530 0.385 36.590 368.50 358.50 -2.60 -4.23
DSCMET_COMPS 2018-09-30 23:55:00 9.840 10.010 9.970 9.990 10.040 98.500 9.620 0.182 265.300 410.300 367.300 10.940 95.000 10.171 0.654 187.800 265.900 266.000   0.000 0.254 31.200 368.20 358.40 -2.83 -4.13
DSCMET_COMPS 2018-09-30 23:50:00 9.880 10.030 10.010 10.040 10.050 98.400 9.640 0.195 265.300 411.600 367.800 10.910 95.800 10.267 0.548 187.900 265.900 266.300 0.1710 89.400 0.609 44.790 368.10 359.00 -2.93 -3.98
DSCMET_COMPS 2018-09-30 23:45:00 9.900 10.010 9.960 9.980 9.940 98.600 9.700 0.171 265.300 412.500 368.600 10.900 95.300 10.178 0.613 187.900 265.900 266.200 0.0840 62.220 0.653 36.370 367.10 354.40 -3.14 -4.43
DSCMET_COMPS 2018-09-30 23:40:00 9.900 10.040 9.980 10.000 9.990 98.300 9.650 0.207 265.300 413.100 369.100 10.960 95.000 10.191 0.655 187.900 265.900 266.200 0.1670 89.800 0.363 47.210 366.30 351.90 -3.09 -4.59
DSCMET_COMPS 2018-09-30 23:35:00 9.910 10.040 9.950 9.980 10.020 98.600 9.700 0.171 265.300 414.000 369.600 10.970 94.700 10.154 0.694 187.900 265.900 266.100 0.0930 56.620 0.387 43.250 365.90 349.50 -3.15 -4.84
DSCMET_COMPS 2018-09-30 23:30:00 9.930 10.070 10.040 10.120 10.160 98.400 9.700 0.196 265.300 414.800 370.100 11.060 94.200 10.164 0.764 187.800 265.900 265.900 0.1740 89.700 0.556 49.550 365.40 341.70 -3.11 -5.56
DSCMET_COMPS 2018-09-30 23:25:00 9.950 10.100 10.050 10.130 10.110 98.300 9.700 0.208 265.300 416.100 370.500 11.140 93.700 10.164 0.835 187.900 265.900 265.900 0.1190 76.450 0.637 39.590 366.10 342.40 -2.92 -5.43
DSCMET_COMPS 2018-09-30 23:20:00 9.950 10.120 10.030 10.130 10.120 98.300 9.710 0.208 265.300 416.300 371.100 11.130 93.900 10.186 0.808 187.900 265.900 265.900 0.1420 89.400 0.518 39.120 366.90 345.60 -2.77 -5.04
DSCMET_COMPS 2018-09-30 23:15:00 9.990 10.120 10.070 10.120 10.170 98.500 9.770 0.184 265.300 416.100 371.700 11.140 93.600 10.148 0.848 187.900 265.900 265.900 0.1280 64.890 0.191 43.000 368.20 351.40 -2.83 -4.30
DSCMET_COMPS 2018-09-30 23:10:00 9.920 10.090 10.070 10.120 10.130 98.400 9.700 0.195 265.300 417.300 371.900 11.100 94.100 10.188 0.780 187.900 265.900 265.900 0.0850 87.800 0.751 43.940 369.00 357.70 -2.81 -3.76
DSCMET_COMPS 2018-09-30 23:05:00 9.960 10.090 10.080 10.150 10.160 98.400 9.730 0.196 265.300 417.300 372.500 11.070 94.300 10.190 0.752 187.900 265.900 265.900 0.1280 92.700 0.167 64.030 369.40 361.60 -2.78 -3.57
DSCMET_COMPS 2018-09-30 23:00:00 9.890 10.090 10.050 10.110 10.110 98.000 9.590 0.244 265.300 419.900 372.900 11.090 94.600 10.257 0.713 188.000 265.900 265.900 0.1190 89.400 0.588 27.260 369.00 362.00 -2.87 -3.50
DSCMET_COMPS 2018-09-30 22:55:00 9.850 10.060 9.970 10.010 10.040 98.500 9.640 0.182 265.300 420.200 373.400 11.070 94.300 10.190 0.752 188.000 265.900 265.900 0.0590 88.500 0.508 41.440 368.40 361.00 -2.83 -3.38
DSCMET_COMPS 2018-09-30 22:50:00 9.860 10.000 9.920 9.980 10.000 98.800 9.700 0.146 265.300 420.600 373.800 11.050 94.900 10.265 0.672 188.100 265.900 266.100   0.000 0.337 50.260 368.20 360.90 -2.82 -3.50
DSCMET_COMPS 2018-09-30 22:45:00 9.830 9.960 9.910 10.030 10.060 98.500 9.610 0.182 265.300 421.500 374.500 11.000 95.200 10.262 0.630 188.200 265.900 266.300 0.0850 88.400 0.222 58.940 367.20 361.00 -2.81 -3.51
DSCMET_COMPS 2018-09-30 22:40:00 9.800 9.940 9.860 9.970 10.000 98.400 9.560 0.194 265.300 423.200 374.700 11.030 95.600 10.355 0.579 188.200 266.000 266.300 0.1090 85.300 0.549 36.510 365.80 358.40 -2.69 -3.93
DSCMET_COMPS 2018-09-30 22:35:00 9.780 9.890 9.790 9.850 9.860 98.400 9.540 0.194 265.300 425.400 375.200 10.940 95.600 10.265 0.575 188.500 265.900 266.300 0.0870 75.380 0.341 43.910 364.00 350.30 -2.82 -4.49
DSCMET_COMPS 2018-09-30 22:30:00 9.770 9.920 9.780 9.790 9.800 98.600 9.570 0.169 265.300 425.500 375.600 10.960 95.400 10.254 0.602 188.600 265.900 266.300 0.1040 78.470 0.200 61.940 362.50 340.50 -2.84 -5.19
DSCMET_COMPS 2018-09-30 22:25:00 9.880 9.940 9.810 9.830 9.850 98.800 9.710 0.146 265.300 426.500 375.900 11.100 94.800 10.299 0.687 188.500 265.900 266.300 0.1290 64.620 0.706 49.130 361.50 332.80 -2.97 -5.64
DSCMET_COMPS 2018-09-30 22:20:00 9.930 9.940 9.840 9.910 9.920 98.600 9.740 0.171 265.300 427.700 375.900 10.960 96.300 10.394 0.484 188.800 265.900 266.500 0.1390 69.960 0.512 47.580 361.30 330.00 -2.96 -6.06
DSCMET_COMPS 2018-09-30 22:15:00 9.970 10.010 9.870 9.940 10.020 99.100 9.850 0.110 265.300 427.600 376.500 11.070 95.300 10.347 0.620 188.800 265.900 266.300 0.2010 339.000 0.601 45.920 360.70 324.40 -2.88 -6.59
DSCMET_COMPS 2018-09-30 22:10:00 9.980 10.090 10.040 10.060 10.060 99.300 9.890 0.086 265.300 428.000 376.500 11.130 95.500 10.438 0.596 188.800 265.900 266.300 0.1110 73.430 0.684 52.550 361.20 318.30 -2.91 -6.86
DSCMET_COMPS 2018-09-30 22:05:00 10.050 10.150 10.100 10.130 10.120 99.500 9.980 0.062 265.300 429.100 376.500 11.180 95.700 10.520 0.571 188.500 265.900 266.300 0.1560 54.830 0.778 48.700 362.70 322.70 -2.84 -6.46
DSCMET_COMPS 2018-09-30 22:00:00 10.050 10.200 10.170 10.200 10.180 99.300 9.950 0.086 265.300 430.400 376.900 11.100 96.700 10.596 0.436 188.300 265.900 266.300 0.1580 80.000 0.704 51.150 364.10 325.60 -2.88 -6.07
DSCMET_COMPS 2018-09-30 21:55:00 10.150 10.250 10.170 10.200 10.190 99.400 10.060 0.074 265.300 431.300 377.200 11.140 96.600 10.620 0.450 188.300 265.900 266.300 0.1410 64.130 0.397 43.980 366.70 338.80 -2.69 -5.00
DSCMET_COMPS 2018-09-30 21:50:00 10.170 10.240 10.190 10.220 10.230 99.400 10.080 0.075 265.300 432.100 377.600 11.220 96.100 10.622 0.519 188.300 265.900 266.300 0.1220 76.040 0.340 53.570 367.40 344.80 -2.65 -4.73
DSCMET_COMPS 2018-09-30 21:45:00 10.170 10.270 10.230 10.290 10.290 99.200 10.050 0.099 265.300 433.500 377.900 11.350 95.300 10.626 0.631 188.300 265.900 266.300 0.1400 84.600 0.468 51.640 368.40 350.50 -2.67 -4.07
DSCMET_COMPS 2018-09-30 21:40:00 10.180 10.280 10.230 10.260 10.280 99.100 10.050 0.112 265.300 434.400 378.300 11.310 96.400 10.758 0.482 188.300 265.900 266.500   0.000 1.108 39.620 369.00 355.60 -2.50 -3.91
DSCMET_COMPS 2018-09-30 21:35:00 10.190 10.310 10.280 10.280 10.270 99.100 10.070 0.112 265.300 435.500 378.600 11.150 97.200 10.723 0.371 188.300 265.900 266.600 0.1160 86.900 0.150 73.490 367.90 356.20 -2.59 -4.04
DSCMET_COMPS 2018-09-30 21:30:00 10.200 10.310 10.260 10.280 10.270 99.000 10.050 0.124 265.300 436.700 379.100 11.230 97.000 10.772 0.400 188.500 265.900 266.700 0.0700 99.100 0.337 39.310 366.50 351.00 -2.61 -4.36
DSCMET_COMPS 2018-09-30 21:25:00 10.210 10.360 10.280 10.310 10.400 99.200 10.100 0.100 265.300 437.400 379.600 11.470 95.500 10.777 0.609 188.500 265.900 266.800 0.1530 60.110 0.438 51.020 365.10 343.50 -2.62 -4.73
DSCMET_COMPS 2018-09-30 21:20:00 10.230 10.400 10.380 10.400 10.370 99.100 10.090 0.112 265.300 438.400 379.900 11.450 96.300 10.882 0.500 188.500 265.900 267.500 0.1680 88.200 0.380 59.180 364.50 336.70 -2.54 -5.24
DSCMET_COMPS 2018-09-30 21:15:00 10.260 10.420 10.380 10.400 10.410 98.900 10.090 0.137 265.300 439.600 380.500 11.380 96.600 10.859 0.458 188.600 265.900 267.500 0.1100 85.500 0.285 44.840 364.50 336.30 -2.54 -5.23
DSCMET_COMPS 2018-09-30 21:10:00 10.370 10.450 10.360 10.370 10.460 99.200 10.260 0.101 265.300 440.000 381.000 11.460 96.400 10.908 0.487 188.700 265.900 267.100 0.1700 52.500 0.212 48.080 363.60 333.80 -2.59 -5.70
DSCMET_COMPS 2018-09-30 21:05:00 10.380 10.520 10.430 10.440 10.440 99.000 10.240 0.126 265.300 440.900 381.300 11.470 95.900 10.839 0.555 188.700 265.900 266.700 0.1190 67.310 0.175 62.000 362.60 327.00 -2.58 -5.95
DSCMET_COMPS 2018-09-30 21:00:00 10.410 10.610 10.520 10.580 10.570 98.800 10.230 0.151 265.300 443.300 381.600 11.770 95.000 10.996 0.691 188.800 265.900 266.600 0.1580 82.900 0.520 42.860 362.60 325.20 -2.58 -6.16
DSCMET_COMPS 2018-09-30 20:55:00 10.480 10.620 10.500 10.560 10.580 98.600 10.280 0.178 265.300 447.000 382.000 11.830 94.700 11.008 0.735 188.800 265.900 266.500 0.1290 76.450 0.640 37.160 362.40 321.10 -2.64 -6.66
DSCMET_COMPS 2018-09-30 20:50:00 10.560 10.700 10.560 10.560 10.640 98.900 10.410 0.140 265.300 447.700 382.100 11.860 94.300 10.974 0.792 188.700 265.900 266.200 0.1260 50.800 0.443 38.910 362.20 318.60 -2.66 -6.88
DSCMET_COMPS 2018-09-30 20:45:00 10.680 10.780 10.640 10.650 10.820 99.100 10.550 0.116 265.300 448.800 382.600 12.010 94.100 11.091 0.828 188.700 265.900 266.200 0.1420 52.330 0.513 53.900 362.90 318.10 -2.58 -6.87
DSCMET_COMPS 2018-09-30 20:40:00 10.680 10.830 10.730 10.730 10.770 98.700 10.500 0.167 265.300 450.300 382.600 12.110 94.100 11.190 0.833 188.800 265.900 266.200 0.1030 55.370 0.999 47.680 363.20 318.60 -2.64 -6.86
DSCMET_COMPS 2018-09-30 20:35:00 10.800 10.920 10.820 10.790 10.770 98.900 10.640 0.142 265.300 450.800 382.800 12.060 94.400 11.189 0.788 188.700 265.900 266.200   0.000 0.272 58.010 363.80 320.10 -2.62 -6.57
DSCMET_COMPS 2018-09-30 20:30:00 10.900 11.040 10.950 10.950 10.930 99.100 10.770 0.117 265.300 451.800 383.300 12.160 94.100 11.240 0.836 188.600 265.900 266.200   0.000 0.396 57.560 364.90 323.60 -2.60 -6.22
DSCMET_COMPS 2018-09-30 20:25:00 10.980 11.120 11.080 11.090 11.080 98.700 10.790 0.170 265.300 453.200 383.400 12.150 94.200 11.246 0.822 188.600 265.900 266.200 0.1270 83.400 0.433 39.660 365.50 324.50 -2.62 -6.29
DSCMET_COMPS 2018-09-30 20:20:00 11.050 11.200 11.090 11.120 11.250 98.600 10.860 0.184 265.300 453.900 384.000 12.310 93.700 11.325 0.902 188.400 265.900 266.000 0.1070 74.380 0.314 40.050 365.70 324.50 -2.65 -6.42
DSCMET_COMPS 2018-09-30 20:15:00 11.170 11.320 11.140 11.230 11.380 99.000 11.040 0.133 265.300 454.800 384.000 12.570 92.400 11.371 1.107 188.100 265.900 265.900 0.1230 77.100 1.144 40.970 365.90 325.30 -2.59 -6.27
DSCMET_COMPS 2018-09-30 20:10:00 11.270 11.360 11.270 11.340 11.320 98.900 11.120 0.147 265.300 455.800 384.600 12.600 92.700 11.450 1.065 188.400 265.900 265.900 0.1020 78.370 0.572 47.220 366.10 326.10 -2.61 -6.36
DSCMET_COMPS 2018-09-30 20:05:00 11.270 11.440 11.350 11.420 11.390 98.400 11.050 0.214 265.300 456.500 384.900 12.540 93.600 11.537 0.930 188.100 265.900 265.900 0.0830 79.820 0.364 46.960 366.00 322.20 -2.73 -6.70
DSCMET_COMPS 2018-09-30 20:00:00 11.390 11.540 11.390 11.480 11.620 99.200 11.270 0.108 265.300 456.600 385.300 12.780 92.800 11.645 1.063 187.800 265.900 265.700 0.1720 43.230 0.468 44.860 366.40 321.50 -2.97 -6.84
DSCMET_COMPS 2018-09-30 19:55:00 11.430 11.610 11.590 11.640 11.910 99.500 11.360 0.068 265.300 456.800 385.800 13.030 91.300 11.646 1.306 187.900 265.900 265.500 0.1500 54.200 0.954 46.450 367.20 322.10 -2.70 -6.85
DSCMET_COMPS 2018-09-30 19:50:00 11.510 11.700 11.670 11.730 12.080 99.400 11.420 0.081 265.300 458.000 386.200 13.250 90.300 11.697 1.477 187.900 265.900 265.500 0.1890 88.100 1.595 44.630 368.80 324.60 -2.55 -6.76
DSCMET_COMPS 2018-09-30 19:45:00 11.560 11.780 11.750 11.810 12.150 99.200 11.450 0.109 265.300 458.600 386.700 13.400 89.600 11.727 1.599 188.000 265.900 265.500 0.1390 80.100 1.507 35.360 369.10 325.00 -2.68 -6.74
DSCMET_COMPS 2018-09-30 19:40:00 11.650 11.850 11.800 11.830 12.080 99.300 11.560 0.096 265.300 459.100 387.100 13.480 90.200 11.907 1.514 188.200 265.900 265.500 0.1430 85.200 2.068 42.500 369.80 326.00 -2.61 -6.49
DSCMET_COMPS 2018-09-30 19:35:00 11.810 11.960 11.920 11.930 12.030 99.500 11.740 0.069 265.300 459.400 387.500 13.510 90.100 11.920 1.533 188.300 265.800 265.500 0.1530 86.000 1.239 53.370 371.10 330.10 -2.57 -6.30
DSCMET_COMPS 2018-09-30 19:30:00 11.880 12.040 12.010 12.040 12.190 99.200 11.780 0.111 265.300 460.300 388.100 13.470 91.500 12.114 1.313 188.200 265.800 265.500 0.2420 86.800 1.042 49.150 372.10 331.60 -2.66 -6.03
DSCMET_COMPS 2018-09-30 19:25:00 11.980 12.120 12.080 12.110 12.170 99.100 11.860 0.126 265.300 460.700 388.400 13.330 92.600 12.157 1.132 188.000 265.800 265.500   0.000 0.833 52.530 373.30 338.30 -2.92 -5.69
DSCMET_COMPS 2018-09-30 19:20:00 12.060 12.190 12.150 12.170 12.230 98.900 11.900 0.155 265.300 461.300 389.000 13.460 91.100 12.038 1.374 187.800 265.800 265.500 0.1170 82.000 0.487 49.440 372.90 343.70 -2.79 -5.89
DSCMET_COMPS 2018-09-30 19:15:00 12.120 12.270 12.240 12.300 12.480 98.500 11.910 0.212 265.300 462.000 389.400 13.700 91.400 12.325 1.348 187.800 265.800 265.500 0.1890 84.000 1.135 37.380 372.10 336.80 -2.78 -6.44
DSCMET_COMPS 2018-09-30 19:10:00 12.230 12.400 12.320 12.380 12.540 98.500 12.020 0.214 265.300 462.400 390.100 13.960 89.400 12.246 1.690 187.700 265.800 265.500 0.1730 54.670 1.580 43.530 371.30 328.20 -2.72 -6.76
DSCMET_COMPS 2018-09-30 19:05:00 12.370 12.520 12.510 12.530 12.520 98.700 12.180 0.187 265.300 462.800 390.700 13.750 88.400 11.868 1.824 187.700 265.800 265.500 0.1610 71.590 0.366 49.720 372.20 326.00 -2.81 -6.87
DSCMET_COMPS 2018-09-30 19:00:00 12.520 12.650 12.620 12.690 12.750 98.400 12.280 0.232 265.300 463.700 391.000 13.840 91.000 12.397 1.424 188.000 265.800 265.500 0.1570 74.560 0.810 40.400 372.80 326.40 -2.79 -7.17
DSCMET_COMPS 2018-09-30 18:55:00 12.700 12.770 12.720 12.790 12.800 98.800 12.530 0.176 265.300 464.000 391.500 13.990 89.000 12.207 1.757 187.900 265.800 265.500 0.1470 32.440 0.606 35.320 373.40 327.00 -3.02 -7.33
DSCMET_COMPS 2018-09-30 18:50:00 12.770 12.900 12.890 12.940 12.860 98.400 12.530 0.236 265.300 464.600 392.100 14.080 88.600 12.227 1.832 187.900 265.800 265.500 0.1710 84.800 0.406 45.130 373.90 327.00 -2.86 -7.54
DSCMET_COMPS 2018-09-30 18:45:00 12.860 13.000 12.990 13.060 13.020 98.400 12.630 0.237 265.300 465.600 392.600 14.190 89.600 12.506 1.683 187.900 265.800 265.300 0.1490 36.890 0.780 35.470 374.80 327.30 -2.85 -7.55
DSCMET_COMPS 2018-09-30 18:40:00 12.900 13.120 13.070 13.160 13.130 97.300 12.500 0.402 265.300 466.100 393.400 14.360 86.100 12.068 2.274 187.800 265.600 265.100 0.0670 44.840 0.291 35.650 375.80 328.50 -2.79 -7.45
DSCMET_COMPS 2018-09-30 18:35:00 12.980 13.220 13.190 13.260 13.270 98.200 12.720 0.269 265.300 466.600 394.200 14.560 85.600 12.176 2.387 187.400 265.500 265.100 0.1140 51.900 0.283 49.360 377.30 331.40 -3.11 -7.05
DSCMET_COMPS 2018-09-30 18:30:00 13.110 13.300 13.320 13.400 13.400 98.300 12.850 0.256 265.300 467.200 394.800 14.560 89.500 12.854 1.740 187.800 265.500 265.200 0.1920 84.800 0.577 37.170 378.40 338.00 -3.24 -7.17
DSCMET_COMPS 2018-09-30 18:25:00 13.140 13.440 13.430 13.540 13.560 97.500 12.760 0.378 265.300 468.600 395.400 14.710 89.700 13.037 1.724 187.800 265.500 265.100 0.1550 70.870 0.736 35.360 378.20 333.60 -3.31 -7.80
DSCMET_COMPS 2018-09-30 18:20:00 13.240 13.530 13.520 13.630 13.670 98.100 12.950 0.289 265.300 469.300 396.300 14.910 83.900 12.214 2.729 187.800 265.500 264.800 0.0530 9.420 0.300 38.910 378.90 330.40 -3.31 -7.98
DSCMET_COMPS 2018-09-30 18:15:00 13.360 13.660 13.640 13.760 13.940 97.600 13.000 0.368 265.300 469.900 397.400 15.200 83.400 12.407 2.867 187.300 265.400 264.800   0.000 0.573 46.720 380.80 332.10 -2.97 -7.69
DSCMET_COMPS 2018-09-30 18:10:00 13.470 13.750 13.780 13.920 13.970 98.600 13.270 0.216 265.300 469.800 398.300 15.160 83.000 12.295 2.929 187.600 265.400 264.800 0.1000 57.660 0.265 51.040 382.90 339.50 -3.20 -6.95
DSCMET_COMPS 2018-09-30 18:05:00 13.610 13.900 13.970 14.090 14.140 98.800 13.450 0.187 265.300 470.000 399.300 15.110 88.300 13.190 2.009 187.800 265.400 265.000 0.2040 87.900 0.425 44.570 384.10 344.20 -3.69 -6.61
DSCMET_COMPS 2018-09-30 18:00:00 13.740 14.050 14.120 14.230 14.290 98.900 13.580 0.173 265.300 471.300 399.700 15.430 86.200 13.136 2.419 187.700 265.400 264.900 0.1500 86.700 0.725 39.150 384.40 339.70 -3.70 -6.72
DSCMET_COMPS 2018-09-30 17:55:00 13.870 14.220 14.330 14.440 14.460 99.200 13.750 0.127 265.300 471.300 400.700 15.600 83.000 12.725 3.013 187.600 265.400 264.700 0.1600 83.600 0.640 34.250 386.10 336.80 -3.69 -5.73
DSCMET_COMPS 2018-09-30 17:50:00 13.950 14.260 14.410 14.540 14.630 99.000 13.800 0.159 265.300 470.900 402.100 15.670 84.200 13.013 2.813 187.900 265.400 264.600 0.1120 74.840 0.400 38.750 389.30 341.80 -3.39 -4.14
DSCMET_COMPS 2018-09-30 17:45:00 14.080 14.370 14.540 14.690 14.870 98.800 13.900 0.193 265.300 472.000 403.600 16.060 83.300 13.230 3.048 187.900 265.400 264.500 0.1720 94.400 0.478 44.990 392.20 357.00 -3.15 -1.47
DSCMET_COMPS 2018-09-30 17:40:00 14.130 14.460 14.630 14.770 14.890 98.800 13.960 0.193 265.300 472.500 405.100 16.040 83.100 13.173 3.080 187.800 265.400 264.400 0.1030 84.200 0.186 17.670 394.30 365.20 -3.22 0.62
DSCMET_COMPS 2018-09-30 17:35:00 14.190 14.530 14.760 14.940 15.050 98.700 14.000 0.210 265.300 473.200 406.600 16.280 81.000 13.016 3.517 187.500 265.300 264.400 0.1270 91.700 0.439 46.270 394.90 362.80 -2.81 3.03
DSCMET_COMPS 2018-09-30 17:30:00 14.200 14.630 14.870 15.070 15.180 98.600 14.000 0.227 265.300 474.200 408.500 16.350 82.600 13.384 3.235 187.500 265.300 264.400 0.1380 80.200 0.348 38.860 396.00 358.70 -2.13 6.15
DSCMET_COMPS 2018-09-30 17:25:00 14.290 14.680 14.980 15.210 15.410 98.600 14.080 0.228 265.300 475.500 410.500 16.530 82.800 13.597 3.235 187.900 265.100 264.400 0.2570 100.300 0.927 39.910 398.50 368.70 -2.58 9.58
DSCMET_COMPS 2018-09-30 17:20:00 14.330 14.700 14.990 15.280 15.530 98.400 14.090 0.261 265.300 476.300 413.800 16.740 80.600 13.388 3.697 188.000 265.100 264.300 0.1740 79.130 0.440 41.300 399.60 372.60 -2.36 12.17
DSCMET_COMPS 2018-09-30 17:15:00 14.360 14.720 15.010 15.370 15.630 98.200 14.090 0.295 265.300 476.900 417.300 16.750 80.600 13.398 3.700 187.800 265.100 264.100 0.1530 98.700 0.621 39.560 400.50 373.20 -1.18 15.54
DSCMET_COMPS 2018-09-30 17:10:00 14.520 14.800 15.150 15.510 15.720 98.100 14.230 0.314 265.300 478.200 417.600 16.980 76.690 12.860 4.511 187.900 265.100 264.100 0.1330 96.800 0.333 43.940 401.00 374.90 -1.26 16.49
DSCMET_COMPS 2018-09-30 17:05:00 14.580 14.900 15.260 15.670 15.800 98.000 14.270 0.332 265.300 479.500 421.400 16.750 82.000 13.662 3.433 188.000 265.100 264.100   0.000 0.568 40.900 402.30 378.40 -1.54 17.77
DSCMET_COMPS 2018-09-30 17:00:00 14.700 14.950 15.340 15.760 15.840 98.200 14.430 0.301 265.300 480.800 423.500 17.120 78.170 13.288 4.262 188.000 265.000 264.100 0.1320 90.300 0.172 48.400 402.90 379.80 -1.22 20.79
DSCMET_COMPS 2018-09-30 16:55:00 14.740 15.060 15.400 15.780 15.960 98.000 14.440 0.335 265.500 482.300 427.200 17.040 80.500 13.661 3.788 188.100 265.000 264.000 0.1320 93.100 0.279 52.100 403.90 380.70 -0.49 21.87
DSCMET_COMPS 2018-09-30 16:50:00 14.770 15.180 15.520 15.870 16.070 98.000 14.460 0.336 265.700 484.400 430.500 17.410 78.110 13.558 4.353 188.100 264.900 264.000 0.1770 91.800 0.662 46.540 404.60 380.80 -0.34 22.82
DSCMET_COMPS 2018-09-30 16:45:00 14.800 15.280 15.620 15.950 16.150 98.000 14.500 0.337 265.700 485.700 434.200 17.410 79.220 13.775 4.132 187.800 264.800 264.000 0.2000 77.590 0.454 53.890 405.60 378.30 -0.27 28.96
DSCMET_COMPS 2018-09-30 16:40:00 14.880 15.310 15.690 16.050 16.300 97.700 14.540 0.389 265.800 487.400 438.500 17.640 75.850 13.330 4.872 187.700 264.700 263.800 0.1470 92.800 0.521 43.880 406.20 375.30 0.52 35.51
DSCMET_COMPS 2018-09-30 16:35:00 14.960 15.330 15.740 16.260 16.540 97.300 14.560 0.459 265.900 488.600 441.400 17.880 73.780 13.138 5.371 187.900 264.700 263.700 0.1900 88.200 0.899 40.710 407.60 378.00 1.40 40.50
DSCMET_COMPS 2018-09-30 16:30:00 14.980 15.420 15.790 16.200 16.520 97.700 14.630 0.392 265.900 490.600 443.900 17.700 77.400 13.699 4.577 187.800 264.700 263.700 0.1740 87.000 0.708 28.670 408.70 380.90 1.24 44.44
DSCMET_COMPS 2018-09-30 16:25:00 15.040 15.450 15.840 16.280 16.630 97.800 14.710 0.376 265.900 491.800 445.600 17.940 76.280 13.707 4.877 187.900 264.700 263.700 0.1710 90.400 0.315 56.490 410.10 383.20 2.20 50.30
DSCMET_COMPS 2018-09-30 16:20:00 15.090 15.510 15.940 16.390 16.750 97.700 14.750 0.394 265.900 493.400 447.100 18.450 68.060 12.452 6.781 188.000 264.700 263.400 0.2920 98.300 0.127 119.800 411.40 383.30 3.22 59.59
DSCMET_COMPS 2018-09-30 16:15:00 15.090 15.520 15.920 16.370 16.790 97.200 14.660 0.480 265.900 495.100 448.600 18.340 72.880 13.393 5.718 188.100 264.700 263.500 0.1640 91.100 0.331 131.900 413.00 383.70 4.59 73.10
DSCMET_COMPS 2018-09-30 16:10:00 15.090 15.580 16.080 16.650 17.080 96.900 14.620 0.532 265.900 496.900 450.100 18.650 70.650 13.214 6.309 188.000 264.700 263.400 0.1660 97.400 0.152 265.100 414.20 384.20 5.78 83.90
DSCMET_COMPS 2018-09-30 16:05:00 15.090 15.600 16.120 16.640 16.980 97.200 14.650 0.480 265.900 498.700 451.600 18.740 69.600 13.071 6.572 188.100 264.700 263.300 0.1410 88.000 0.122 289.200 414.50 383.40 7.12 90.30
DSCMET_COMPS 2018-09-30 16:00:00 15.070 15.610 16.120 16.610 17.080 97.100 14.630 0.497 265.900 500.500 452.900 19.020 65.200 12.341 7.656 188.000 264.700 263.200   0.000 0.212 39.090 415.80 383.00 8.38 105.30
DSCMET_COMPS 2018-09-30 15:55:00 15.130 15.630 16.110 16.640 17.240 97.300 14.720 0.464 265.900 502.300 454.000 18.840 65.490 12.238 7.507 188.200 264.700 263.300   0.000 0.333 288.600 416.30 384.10 10.77 112.70
DSCMET_COMPS 2018-09-30 15:50:00 15.120 15.710 16.150 16.720 17.310 97.000 14.670 0.516 266.600 504.300 455.100 18.920 63.600 11.870 7.958 188.400 264.600 263.200 0.1960 85.800 0.327 273.200 416.60 384.20 11.12 113.70
DSCMET_COMPS 2018-09-30 15:45:00 15.230 15.680 16.180 16.760 17.330 97.600 14.870 0.415 266.600 505.700 456.300 18.920 66.730 12.600 7.274 188.200 264.400 263.300 0.1430 37.920 0.341 251.500 416.90 385.20 10.97 121.50
DSCMET_COMPS 2018-09-30 15:40:00 15.280 15.720 16.250 16.870 17.460 97.500 14.900 0.434 266.600 506.800 457.300 18.990 70.060 13.411 6.574 187.900 264.300 263.200 0.1730 89.300 0.238 172.800 417.10 386.10 9.25 109.70
DSCMET_COMPS 2018-09-30 15:35:00 15.380 15.820 16.380 17.080 17.970 97.800 15.050 0.384 266.600 508.500 458.600 19.350 55.890 10.327 9.905 187.700 264.200 263.000 0.2100 89.800 0.500 288.600 417.70 385.30 9.55 110.00
DSCMET_COMPS 2018-09-30 15:30:00 15.320 15.730 16.240 16.850 17.530 98.200 15.050 0.313 266.600 509.800 459.700 19.140 61.240 11.505 8.591 187.800 264.300 263.100 0.1900 95.300 0.489 234.500 418.70 384.20 11.53 128.10
DSCMET_COMPS 2018-09-30 15:25:00 15.240 15.700 16.200 16.850 17.520 97.600 14.870 0.416 266.900 511.300 461.100 19.060 68.390 13.108 6.971 188.100 264.400 263.200 0.2120 75.240 0.267 176.300 420.70 384.90 11.96 134.30
DSCMET_COMPS 2018-09-30 15:20:00 15.180 15.700 16.250 17.000 17.780 97.500 14.800 0.431 267.300 513.000 462.100 19.310 57.620 10.747 9.493 188.100 264.300 263.000 0.1770 93.500 0.400 257.600 420.90 384.80 12.66 141.60
DSCMET_COMPS 2018-09-30 15:15:00 15.160 15.620 16.190 16.920 17.740 97.600 14.800 0.413 267.300 514.600 463.200 19.340 62.540 12.012 8.407 188.000 264.300 263.200 0.1260 63.980 0.452 243.000 421.90 385.90 14.51 153.50
DSCMET_COMPS 2018-09-30 15:10:00 15.140 15.610 16.200 16.900 17.490 97.900 14.820 0.361 267.500 516.300 464.300 19.330 64.350 12.436 7.996 188.000 264.300 263.400 0.1410 100.100 0.318 207.100 422.20 386.00 14.10 152.00
DSCMET_COMPS 2018-09-30 15:05:00 15.110 15.540 16.130 16.770 17.480 98.000 14.800 0.343 268.000 517.700 465.500 19.140 71.830 13.938 6.244 188.100 264.400 263.400 0.1660 87.900 0.078 299.300 422.60 384.70 12.96 148.70
DSCMET_COMPS 2018-09-30 15:00:00 15.040 15.470 16.120 16.850 17.580 97.900 14.730 0.359 268.100 519.400 466.400 19.370 63.150 12.187 8.285 188.100 264.200 263.200 0.1760 122.800 0.421 218.300 425.40 385.50 17.22 182.90
DSCMET_COMPS 2018-09-30 14:55:00 15.040 15.400 16.020 16.790 17.580 97.800 14.710 0.376 268.700 520.700 467.700 19.390 68.780 13.510 7.028 188.000 264.200 263.300 0.1480 96.300 0.136 246.300 425.90 386.90 21.51 214.30
DSCMET_COMPS 2018-09-30 14:50:00 14.970 15.440 16.030 16.900 17.870 97.800 14.640 0.374 268.700 522.500 468.400 19.280 61.170 11.620 8.682 187.900 264.000 263.000   0.000 0.397 177.800 425.30 385.30 15.19 178.00
DSCMET_COMPS 2018-09-30 14:45:00 14.830 15.570 16.230 17.260 18.100 97.000 14.380 0.506 269.300 524.200 469.800 19.380 57.130 10.684 9.645 187.800 263.900 262.900 0.1090 98.600 0.492 241.600 425.20 382.50 13.25 165.60
DSCMET_COMPS 2018-09-30 14:40:00 14.910 15.630 16.390 17.490 18.370 97.100 14.470 0.492 269.500 525.800 470.700 19.730 59.140 11.532 9.395 187.800 263.800 262.900 0.1890 81.700 0.266 351.200 425.40 364.20 2.75 104.50
DSCMET_COMPS 2018-09-30 14:35:00 14.930 15.460 16.230 17.390 18.450 97.800 14.590 0.373 270.900 527.300 472.100 20.190 56.780 11.347 10.224 187.500 263.900 263.100 0.2270 76.590 0.379 141.200 445.40 375.60 58.66 448.40
DSCMET_COMPS 2018-09-30 14:30:00 14.910 15.330 16.020 17.070 18.070 98.100 14.630 0.322 271.400 528.900 473.500 19.460 58.760 11.182 9.324 187.600 264.000 263.100 0.2150 79.220 0.453 206.200 438.60 375.10 54.97 421.90
DSCMET_COMPS 2018-09-30 14:25:00 14.810 15.130 15.740 16.470 17.260 98.000 14.510 0.337 271.900 530.500 474.900 19.040 64.760 12.257 7.762 187.600 264.200 263.400 0.1640 86.300 0.418 265.800 440.80 385.50 68.93 512.60
DSCMET_COMPS 2018-09-30 14:20:00 14.780 15.120 15.690 16.410 17.130 98.300 14.520 0.286 272.000 532.200 476.100 18.680 72.270 13.590 5.972 187.300 264.000 263.400 0.2010 105.500 0.234 299.200 424.80 383.20 22.51 226.40
DSCMET_COMPS 2018-09-30 14:15:00 14.810 15.200 15.890 16.680 17.460 97.800 14.480 0.371 272.000 533.300 477.200 18.970 64.760 12.191 7.728 188.400 263.800 263.200 0.2420 103.100 0.207 265.100 423.50 385.60 12.49 170.90
DSCMET_COMPS 2018-09-30 14:10:00 14.900 15.480 16.370 17.380 18.110 97.800 14.560 0.373 272.700 535.000 478.200 19.190 55.310 10.023 9.936 188.800 263.400 263.000 0.3120 94.100 0.666 240.600 423.60 375.00 6.30 139.00
DSCMET_COMPS 2018-09-30 14:05:00 14.950 15.730 16.700 17.880 18.420 97.500 14.560 0.425 273.500 535.900 480.000 19.450 56.490 10.580 9.832 188.700 263.200 263.000 0.2560 106.400 1.011 181.300 426.40 359.60 2.48 118.90
DSCMET_COMPS 2018-09-30 14:00:00 15.000 15.710 16.670 17.970 18.870 97.100 14.550 0.495 274.700 538.000 482.100 19.630 56.010 10.620 10.052 188.900 263.300 263.000 0.2700 77.360 0.603 97.700 448.00 362.30 56.30 439.30
DSCMET_COMPS 2018-09-30 13:55:00 14.960 15.560 16.540 17.720 18.800 97.100 14.530 0.493 276.200 540.100 483.900 19.490 57.540 10.894 9.618 189.000 263.800 263.100 0.2680 98.500 0.415 150.400 456.50 371.80 103.00 710.90
DSCMET_COMPS 2018-09-30 13:50:00 14.950 15.590 16.440 17.470 18.100 97.400 14.560 0.442 277.700 542.200 486.100 19.050 58.780 10.803 9.085 188.900 263.800 263.100 0.3490 94.100 0.573 128.700 444.10 372.70 70.51 526.00
DSCMET_COMPS 2018-09-30 13:45:00 14.840 15.380 16.220 17.050 17.640 97.500 14.470 0.422 279.000 543.900 487.900 18.980 62.150 11.577 8.306 189.000 264.000 263.300 0.1800 87.800 0.702 267.900 436.10 378.60 50.56 415.10
DSCMET_COMPS 2018-09-30 13:40:00 14.770 15.460 16.240 17.100 17.660 96.900 14.300 0.521 280.600 545.700 489.300 18.950 59.030 10.773 8.974 188.600 263.800 263.100   0.000 0.656 177.000 430.70 379.60 32.54 299.80
DSCMET_COMPS 2018-09-30 13:35:00 14.830 15.570 16.440 17.400 18.090 96.800 14.340 0.540 282.100 547.400 490.800 19.180 60.830 11.441 8.703 188.800 263.600 263.400 0.2470 112.900 0.251 217.300 434.90 368.50 23.44 244.80
DSCMET_COMPS 2018-09-30 13:30:00 14.990 15.420 16.120 16.870 17.880 96.900 14.510 0.528 283.900 549.300 492.200 19.200 65.190 12.510 7.744 190.500 264.300 263.600 0.1900 75.930 0.503 203.300 450.80 376.70 99.00 709.10
DSCMET_COMPS 2018-09-30 13:25:00 14.880 15.700 16.310 16.970 17.460 95.300 14.150 0.795 285.600 551.900 494.400 18.600 62.060 11.197 8.130 198.000 264.100 263.400 0.2120 116.300 0.366 271.300 432.30 373.60 52.13 418.40
DSCMET_COMPS 2018-09-30 13:20:00 14.850 15.860 16.360 17.110 17.680 93.200 13.780 1.148 288.100 555.700 496.500 18.670 58.630 10.409 8.904 206.900 264.100 263.100 0.3290 356.400 1.362 224.500 428.20 370.20 23.20 238.80
DSCMET_COMPS 2018-09-30 13:15:00 14.760 15.810 16.360 17.100 17.820 93.400 13.710 1.108 291.100 558.700 498.200 18.850 60.750 11.111 8.543 214.600 264.300 263.400 0.3150 336.700 0.740 190.300 439.00 374.50 44.48 379.60
DSCMET_COMPS 2018-09-30 13:10:00 14.670 15.760 16.240 17.020 17.550 92.200 13.430 1.302 294.700 562.100 500.600 18.620 62.590 11.344 8.027 219.800 264.400 263.400 0.2350 31.390 0.707 201.300 435.70 382.10 51.97 425.80
DSCMET_COMPS 2018-09-30 13:05:00 14.740 15.560 15.970 16.780 17.440 94.300 13.850 0.956 298.600 565.500 503.000 18.600 61.280 11.007 8.297 225.400 264.500 263.500 0.2480 327.500 0.947 191.200 433.70 383.20 39.15 361.40
DSCMET_COMPS 2018-09-30 13:00:00 14.740 15.530 15.670 16.650 17.330 93.100 13.640 1.157 302.100 568.200 505.600 18.360 61.960 10.946 8.030 229.900 265.100 263.700 0.2330 10.420 0.470 257.900 431.90 382.40 38.05 356.30
DSCMET_COMPS 2018-09-30 12:55:00 15.030 15.640 15.860 16.740 17.290 93.900 14.070 1.042 305.300 570.400 507.100 18.470 64.110 11.565 7.629 233.800 265.900 263.800 0.3070 305.900 0.663 239.700 430.00 374.30 25.14 272.20
DSCMET_COMPS 2018-09-30 12:50:00 15.070 15.630 15.660 16.530 17.170 96.300 14.500 0.634 308.800 572.600 508.600 18.260 64.610 11.483 7.424 239.400 267.000 263.900 0.3490 330.100 0.677 256.500 435.60 380.30 50.62 437.30
DSCMET_COMPS 2018-09-30 12:45:00 15.100 15.420 15.570 16.180 16.790 99.000 14.960 0.172 311.100 573.900 509.200 18.270 75.390 13.845 5.166 245.200 269.500 264.300 0.2270 301.900 0.425 245.700 431.80 382.20 42.98 379.20
DSCMET_COMPS 2018-09-30 12:40:00 15.000 15.250 15.550 16.050 16.690 99.300 14.900 0.119 312.300 575.000 510.300 17.890 78.130 14.027 4.482 246.600 271.400 264.400 0.1360 33.440 0.179 347.900 430.70 383.70 38.19 351.90
DSCMET_COMPS 2018-09-30 12:35:00 14.860 15.110 15.460 16.010 16.570 99.100 14.740 0.152 313.500 576.000 511.300 17.460 74.670 12.916 5.053 246.200 274.400 264.200 0.1120 79.750 0.657 26.570 429.30 383.60 35.48 332.90
DSCMET_COMPS 2018-09-30 12:30:00 14.750 15.000 15.420 15.860 16.320 98.700 14.560 0.218 314.900 576.700 512.800 17.300 78.000 13.430 4.344 248.800 282.200 264.400   0.000 0.736 38.520 428.40 382.00 35.70 337.80
DSCMET_COMPS 2018-09-30 12:25:00 14.760 14.870 15.180 15.760 16.240 98.700 14.570 0.218 316.700 577.600 513.900 17.200 80.300 13.779 3.866 250.600 289.000 264.400 0.1810 91.800 0.561 38.160 428.50 384.30 40.22 372.60
DSCMET_COMPS 2018-09-30 12:20:00 14.770 14.880 15.270 15.780 16.120 99.000 14.630 0.168 317.900 578.100 514.800 16.920 74.600 12.381 4.896 250.700 297.400 264.200 0.1720 91.500 0.908 39.120 425.00 382.30 30.70 298.00
DSCMET_COMPS 2018-09-30 12:15:00 14.640 14.870 15.260 15.650 15.960 99.200 14.520 0.133 319.100 578.900 516.800 16.710 75.520 12.365 4.657 252.900 308.200 264.200 0.1300 84.900 1.182 35.850 426.10 381.00 31.38 307.70
DSCMET_COMPS 2018-09-30 12:10:00 14.520 14.660 15.060 15.430 15.880 99.100 14.390 0.149 320.300 579.700 517.900 16.590 78.970 12.930 3.970 256.000 321.500 264.400 0.1150 84.200 1.467 37.590 428.00 378.10 36.98 338.50
DSCMET_COMPS 2018-09-30 12:05:00 14.340 14.420 14.700 15.130 15.660 99.200 14.230 0.131 321.500 580.900 519.100 16.540 81.400 13.345 3.500 258.700 334.900 264.700 0.1240 90.300 1.020 40.130 429.20 380.60 52.14 438.20
DSCMET_COMPS 2018-09-30 12:00:00 14.160 14.270 14.530 14.870 15.480 99.300 14.070 0.113 322.800 581.800 520.200 16.410 83.100 13.535 3.154 259.800 345.200 264.600 0.1370 93.700 0.920 43.860 424.90 379.40 40.21 355.00
DSCMET_COMPS 2018-09-30 11:55:00 14.000 14.180 14.480 14.820 15.350 99.100 13.870 0.144 324.200 582.600 521.000 16.440 84.900 13.894 2.823 260.200 355.200 264.400 0.2100 107.300 0.474 54.030 424.10 372.70 36.59 317.80
DSCMET_COMPS 2018-09-30 11:50:00 13.870 14.130 14.470 14.930 15.400 98.900 13.700 0.174 325.700 583.500 522.200 16.350 80.700 13.027 3.588 259.900 365.900 264.200 0.1940 104.700 1.066 45.420 424.60 366.20 36.92 331.70
DSCMET_COMPS 2018-09-30 11:45:00 13.800 14.110 14.480 14.850 15.320 99.000 13.660 0.158 327.500 584.500 524.600 16.150 74.760 11.671 4.633 260.700 378.300 264.000 0.2390 112.600 1.719 37.510 426.60 364.80 41.18 371.70
DSCMET_COMPS 2018-09-30 11:40:00 13.630 13.860 14.130 14.620 15.090 98.900 13.470 0.172 329.400 585.400 526.800 15.970 77.560 12.054 4.072 264.000 390.300 264.500 0.2140 101.200 2.019 38.790 432.90 377.20 76.41 634.80
DSCMET_COMPS 2018-09-30 11:35:00 13.640 13.780 14.020 14.450 14.920 99.200 13.530 0.125 331.500 586.200 528.500 15.810 77.750 11.936 3.996 266.800 398.700 264.400 0.2800 109.000 1.857 39.130 422.00 370.70 43.17 383.90
DSCMET_COMPS 2018-09-30 11:30:00 13.570 13.600 13.890 14.210 14.600 99.100 13.440 0.140 333.200 587.000 529.500 15.770 85.600 13.363 2.580 269.200 406.700 264.800 0.2170 102.100 0.943 41.960 420.50 369.00 39.33 366.50
DSCMET_COMPS 2018-09-30 11:25:00 13.450 13.430 13.790 14.000 14.240 99.100 13.330 0.139 335.100 587.800 530.300 15.700 92.100 14.421 1.409 270.000 411.700 265.100   0.000 0.183 58.080 419.90 369.70 35.93 349.90
DSCMET_COMPS 2018-09-30 11:20:00 13.290 13.330 13.650 13.840 14.050 98.600 13.100 0.214 336.900 588.800 531.400 15.240 91.400 13.848 1.489 270.300 415.000 264.800   0.000 0.508 47.760 419.20 375.10 33.44 320.40
DSCMET_COMPS 2018-09-30 11:15:00 13.480 13.450 13.580 13.840 14.240 98.700 13.290 0.201 338.900 589.400 532.600 15.660 85.800 13.291 2.526 270.800 418.300 264.500 0.3630 104.600 0.224 67.260 417.70 389.70 25.21 260.90
DSCMET_COMPS 2018-09-30 11:10:00 13.590 13.750 13.870 14.110 14.650 98.300 13.340 0.265 341.000 589.500 533.200 16.160 84.700 13.583 2.810 271.600 421.500 264.000 0.3930 129.000 0.347 55.980 418.40 390.70 20.76 244.30
DSCMET_COMPS 2018-09-30 11:05:00 13.510 13.840 14.020 14.250 14.800 96.400 12.960 0.557 343.000 589.900 533.500 16.130 85.500 13.698 2.658 272.000 425.300 264.500 0.1070 128.400 0.749 49.710 426.60 391.50 46.96 469.30
DSCMET_COMPS 2018-09-30 11:00:00 13.440 13.850 13.820 14.190 14.750 92.900 12.330 1.094 346.300 590.700 535.100 15.470 81.500 12.320 3.251 272.800 431.600 265.600 0.0910 308.100 1.748 48.900 428.50 389.20 55.02 539.00
DSCMET_COMPS 2018-09-30 10:55:00 13.400 13.670 13.390 13.730 14.120 93.400 12.360 1.015 351.600 593.100 539.100 15.130 79.450 11.603 3.534 273.000 436.500 266.600 0.2090 30.140 2.435 42.860 433.10 398.90 79.93 749.20
DSCMET_COMPS 2018-09-30 10:50:00 13.220 13.580 13.360 13.660 13.960 97.000 12.750 0.456 358.100 596.000 542.800 14.910 83.800 12.196 2.746 277.700 446.000 270.700 0.1730 33.860 2.040 43.760 425.50 400.80 76.12 725.80
DSCMET_COMPS 2018-09-30 10:45:00 13.080 13.380 13.430 13.700 13.860 98.400 12.850 0.241 361.200 598.000 545.600 14.720 88.300 12.806 1.959 282.500 454.300 288.900 0.2700 338.100 1.578 44.330 414.30 396.40 39.28 395.20
DSCMET_COMPS 2018-09-30 10:40:00 13.020 13.160 13.340 13.630 13.850 98.600 12.820 0.210 363.200 599.300 547.200 14.850 95.900 14.202 0.692 283.900 458.700 290.500 0.2390 359.300 0.579 36.240 409.70 396.20 25.31 266.00
DSCMET_COMPS 2018-09-30 10:35:00 12.910 13.110 13.220 13.540 13.680 98.600 12.710 0.208 364.600 600.900 548.700 14.600 91.300 13.198 1.446 284.600 463.600 291.400 0.2170 357.300 0.529 26.900 409.20 397.70 23.27 247.40
DSCMET_COMPS 2018-09-30 10:30:00 12.820 13.040 13.120 13.500 13.590 98.500 12.610 0.222 366.500 602.300 550.300 14.500 89.100 12.727 1.800 287.400 470.700 297.500 0.2670 353.900 0.427 341.500 407.10 398.00 22.56 240.80
DSCMET_COMPS 2018-09-30 10:25:00 12.780 13.020 13.000 13.420 13.580 98.300 12.540 0.251 367.700 602.000 549.200 14.440 92.300 13.207 1.266 286.400 472.300 295.100 0.4300 341.100 0.260 329.100 404.90 399.10 17.41 195.60
DSCMET_COMPS 2018-09-30 10:20:00 12.760 12.960 13.010 13.430 13.570 98.500 12.540 0.221 367.900 598.100 546.500 14.450 93.400 13.398 1.086 284.800 471.200 281.300 0.3190 349.100 0.179 351.100 403.60 399.30 15.15 181.60
DSCMET_COMPS 2018-09-30 10:15:00 12.850 12.960 12.940 13.350 13.600 99.000 12.700 0.148 369.900 598.700 546.300 14.430 94.600 13.575 0.888 285.700 473.000 274.500   0.000 0.106 292.500 403.50 398.60 17.15 191.60
DSCMET_COMPS 2018-09-30 10:10:00 12.760 12.940 13.060 13.280 13.420 98.700 12.570 0.192 371.700 600.200 547.500 14.460 95.700 13.782 0.708 286.500 475.500 274.400 0.2470 344.900 0.052 277.300 402.70 397.70 17.05 180.90
DSCMET_COMPS 2018-09-30 10:05:00 12.830 12.970 12.930 13.270 13.350 99.100 12.700 0.133 373.500 601.400 548.500 14.170 93.800 13.186 1.002 287.600 478.000 274.200 0.2440 341.900 0.253 296.800 401.30 400.60 12.45 148.30
DSCMET_COMPS 2018-09-30 10:00:00 12.880 12.980 12.950 13.290 13.440 99.100 12.750 0.134 375.200 603.000 549.300 14.250 95.600 13.557 0.715 288.800 480.600 273.800 0.3510 344.700 0.305 283.400 400.90 399.80 10.87 130.10
DSCMET_COMPS 2018-09-30 09:55:00 12.960 13.090 13.060 13.240 13.450 99.600 12.910 0.060 376.900 605.100 550.400 14.480 95.800 13.818 0.693 289.700 482.900 273.800 0.2800 346.800 0.242 219.700 402.40 400.00 11.76 142.70
DSCMET_COMPS 2018-09-30 09:50:00 12.960 13.120 12.990 13.230 13.390 99.900 12.960 0.015 378.200 606.500 552.000 14.270 97.500 13.880 0.407 290.800 486.300 276.200 0.0560 291.500 0.161 259.300 404.10 400.20 20.34 217.60
DSCMET_COMPS 2018-09-30 09:45:00 12.830 13.010 12.980 13.150 13.160 99.900 12.820 0.015 379.200 604.800 552.300 13.970 96.300 13.390 0.590 288.800 487.700 276.500 0.2380 324.000 0.474 268.200 402.30 399.90 20.19 216.10
DSCMET_COMPS 2018-09-30 09:40:00 12.770 12.970 13.000 13.110 13.090 100.000 12.780 -0.000 379.600 604.200 553.200 13.850 97.200 13.414 0.443 287.600 488.900 274.200 0.3560 321.600 0.530 254.200 400.00 400.00 13.38 157.90
DSCMET_COMPS 2018-09-30 09:35:00 12.660 12.890 12.940 13.150 13.190 100.000 12.670 0.000 380.900 605.400 554.700 13.960 97.500 13.571 0.399 288.300 491.600 274.200 0.2960 320.800 0.608 240.300 400.80 400.40 12.15 150.80
DSCMET_COMPS 2018-09-30 09:30:00 12.570 12.780 12.860 13.080 13.160 100.000 12.580 0.000 381.700 606.500 556.600 14.150 97.200 13.713 0.452 288.900 493.500 274.800 0.1240 266.000 0.361 233.300 402.60 401.40 17.91 203.60
DSCMET_COMPS 2018-09-30 09:25:00 12.510 12.740 12.830 12.970 13.020 100.000 12.520 0.000 382.800 607.700 558.700 14.090 97.900 13.763 0.338 289.800 495.900 275.500 0.1100 250.800 0.210 162.700 401.90 403.20 17.06 197.70
DSCMET_COMPS 2018-09-30 09:20:00 12.460 12.580 12.690 12.870 12.970 100.100 12.480 -0.014 383.900 608.900 560.600 13.960 98.600 13.743 0.223 290.500 498.200 275.900 0.0460 58.160 0.088 329.200 401.40 405.30 18.30 208.40
DSCMET_COMPS 2018-09-30 09:15:00 12.450 12.480 12.590 12.710 12.810 100.100 12.480 -0.014 385.000 610.300 562.100 13.820 99.600 13.758 0.063 291.000 500.900 276.500 0.1320 341.100 0.091 333.000 396.80 403.50 14.38 170.60
DSCMET_COMPS 2018-09-30 09:10:00 12.310 12.400 12.570 12.680 12.790 100.000 12.320 0.000 386.300 611.700 563.100 13.830 99.600 13.768 0.063 292.100 503.200 276.200 0.1860 337.600 0.099 245.500 394.50 400.80 8.90 124.80
DSCMET_COMPS 2018-09-30 09:05:00 12.130 12.340 12.450 12.630 12.750 100.000 12.140 0.000 387.500 612.700 564.200 13.710 100.000 13.710 0.000 292.700 505.200 276.400   0.000 0.169 231.100 394.80 401.20 9.21 127.10
DSCMET_COMPS 2018-09-30 09:00:00 12.020 12.230 12.340 12.570 12.720 100.000 12.030 0.000 388.400 613.500 565.600 13.660 100.000 13.660 0.000 293.200 507.100 276.500 0.0370 242.800 0.147 212.200 395.50 401.30 10.46 133.40
DSCMET_COMPS 2018-09-30 08:55:00 11.940 12.140 12.220 12.470 12.660 100.000 11.950 0.000 389.100 614.200 566.900 13.420 100.000 13.420 0.000 293.900 509.500 276.700 0.0660 257.000 0.238 274.300 394.40 400.80 12.46 149.80
DSCMET_COMPS 2018-09-30 08:50:00 11.880 12.040 12.110 12.400 12.600 100.000 11.890 0.000 390.000 615.500 568.300 13.520 100.000 13.520 0.000 294.400 511.900 277.000 0.1120 293.800 0.276 258.900 392.00 399.20 10.44 129.80
DSCMET_COMPS 2018-09-30 08:45:00 11.830 11.990 12.060 12.380 12.450 100.000 11.840 0.000 391.100 616.600 569.600 13.510 100.000 13.510 0.000 295.200 514.100 277.500 0.0590 273.400 0.150 232.300 390.80 396.30 6.40 94.70
DSCMET_COMPS 2018-09-30 08:40:00 11.780 11.940 12.020 12.280 12.370 100.000 11.790 0.000 392.300 617.800 571.300 13.430 100.000 13.430 0.000 296.300 516.900 277.800 0.0790 300.700 0.067 299.800 391.10 396.40 7.41 106.70
DSCMET_COMPS 2018-09-30 08:35:00 11.710 11.840 11.960 12.180 12.370 100.000 11.720 0.000 393.400 619.800 572.000 13.470 100.000 13.470 0.000 297.300 518.900 278.200 0.0400 87.300 0.080 110.000 391.40 396.00 10.74 126.50
DSCMET_COMPS 2018-09-30 08:30:00 11.610 11.750 11.900 12.090 12.220 100.000 11.620 0.000 395.000 621.800 573.200 13.270 100.000 13.270 0.000 299.000 521.300 279.300 0.1280 56.090 0.171 28.250 391.40 396.30 12.71 144.60
DSCMET_COMPS 2018-09-30 08:25:00 11.460 11.650 11.820 11.980 12.090 100.000 11.480 0.000 396.600 620.000 575.500 12.900 99.800 12.869 0.030 300.300 524.200 281.900 0.0340 94.400 0.316 32.200 391.60 396.50 12.83 150.70
DSCMET_COMPS 2018-09-30 08:20:00 11.380 11.530 11.660 11.790 11.910 100.000 11.390 -0.000 397.300 621.300 578.800 12.770 100.000 12.770 -0.000 320.000 527.100 291.500 0.1020 89.600 0.368 46.900 390.10 395.50 15.39 172.50
DSCMET_COMPS 2018-09-30 08:15:00 11.290 11.450 11.490 11.630 11.740 100.000 11.310 0.000 398.500 621.500 583.800 12.860 100.000 12.860 0.000 326.500 530.100 299.700 0.1360 102.900 0.157 48.270 386.50 392.30 13.94 155.30
DSCMET_COMPS 2018-09-30 08:10:00 11.240 11.380 11.420 11.520 11.630 100.000 11.250 -0.000 400.000 620.800 571.400 12.610 100.000 12.610 0.000 328.800 532.400 304.700 0.1770 103.200 0.152 48.740 383.10 388.70 9.77 114.50
DSCMET_COMPS 2018-09-30 08:05:00 11.190 11.380 11.370 11.420 11.460 100.000 11.200 0.000 401.700 625.900 571.800 12.320 100.000 12.320 -0.000 327.800 534.700 307.400 0.1640 110.500 0.299 41.470 382.90 388.20 6.80 92.70
DSCMET_COMPS 2018-09-30 08:00:00 11.130 11.330 11.330 11.370 11.440 100.000 11.140 0.000 403.800 630.700 572.500 12.230 100.000 12.230 0.000 328.200 536.700 312.600   0.000 0.564 29.630 382.00 389.10 6.83 89.50
DSCMET_COMPS 2018-09-30 07:55:00 11.090 11.250 11.310 11.360 11.420 100.000 11.100 0.000 409.700 630.900 573.300 12.230 100.000 12.230 0.000 328.700 538.900 317.700 0.1120 89.800 0.343 33.150 381.90 390.40 6.79 81.10
DSCMET_COMPS 2018-09-30 07:50:00 11.050 11.220 11.250 11.310 11.390 100.000 11.060 -0.000 427.900 631.000 574.000 12.170 100.000 12.170 0.000 329.200 540.500 321.800 0.0190 85.300 0.198 43.600 381.00 392.90 3.91 64.78
DSCMET_COMPS 2018-09-30 07:45:00 10.970 11.100 11.110 11.250 11.350 100.000 10.980 0.000 434.500 631.500 575.000 12.130 100.000 12.130 0.000 329.900 542.100 324.300 0.1440 89.900 0.194 21.110 381.70 392.50 5.93 78.23
DSCMET_COMPS 2018-09-30 07:40:00 10.900 11.040 11.090 11.180 11.190 100.000 10.910 0.000 437.100 632.200 574.400 12.010 100.000 12.010 0.000 331.000 544.900 327.500 0.0890 120.600 0.268 339.200 382.10 392.70 7.98 92.50
DSCMET_COMPS 2018-09-30 07:35:00 10.830 10.960 11.020 11.060 11.030 100.000 10.840 -0.000 438.300 633.000 575.000 11.840 100.000 11.840 0.000 331.800 548.500 336.100 0.1470 304.500 0.235 337.800 380.70 392.90 6.37 81.80
DSCMET_COMPS 2018-09-30 07:30:00 10.860 10.880 10.860 10.930 10.980 100.100 10.880 -0.013 438.100 633.700 576.000 11.870 100.000 11.870 -0.000 333.200 550.500 348.800 0.0910 283.200 0.097 119.600 379.80 391.40 6.42 81.60
DSCMET_COMPS 2018-09-30 07:25:00 10.830 10.820 10.800 10.850 10.920 100.100 10.850 -0.013 437.100 633.600 578.300 11.860 100.000 11.860 0.000 334.100 552.900 338.300 0.1550 96.100 0.205 115.100 378.40 390.70 6.48 76.87
DSCMET_COMPS 2018-09-30 07:20:00 10.730 10.800 10.770 10.810 10.840 100.000 10.740 0.000 436.900 633.900 580.900 11.780 100.000 11.780 0.000 335.000 555.600 343.500 0.1660 113.100 0.081 190.400 376.10 390.10 4.00 58.03
DSCMET_COMPS 2018-09-30 07:15:00 10.730 10.820 10.770 10.790 10.820 100.000 10.740 0.000 433.100 635.000 583.100 11.740 100.000 11.740 0.000 336.700 558.300 348.400 0.1190 174.800 0.435 20.300 373.80 389.70 1.00 31.10
DSCMET_COMPS 2018-09-30 07:10:00 10.690 10.780 10.750 10.780 10.760 100.000 10.700 0.000 427.800 634.300 586.200 11.620 100.000 11.620 0.000 337.600 559.500 353.600 0.0950 51.940 1.113 31.080 374.50 389.40 -0.42 17.72
DSCMET_COMPS 2018-09-30 07:05:00 10.610 10.710 10.660 10.720 10.750 100.000 10.620 0.000 428.900 631.300 592.900 11.630 100.000 11.630 0.000 338.000 564.500 353.600 0.0550 79.910 0.250 39.330 374.70 389.80 0.36 25.63
DSCMET_COMPS 2018-09-30 07:00:00 10.590 10.690 10.640 10.690 10.730 100.000 10.600 0.000 428.800 629.900 586.400 11.550 100.000 11.550 0.000 339.200 564.600 353.600 0.1440 107.400 0.267 49.550 374.20 388.90 2.23 39.23
DSCMET_COMPS 2018-09-30 06:55:00 10.530 10.660 10.600 10.640 10.700 100.000 10.540 0.000 429.300 631.000 582.200 11.540 100.000 11.540 0.000 340.700 556.000 362.500 0.0940 79.530 0.409 39.180 373.70 388.10 2.88 41.08
DSCMET_COMPS 2018-09-30 06:50:00 10.480 10.630 10.560 10.590 10.640 100.000 10.490 0.000 429.600 636.300 583.800 11.480 100.000 11.480 0.000 338.800 557.600 378.700   0.000 0.156 46.630 372.70 387.50 2.34 34.61
DSCMET_COMPS 2018-09-30 06:45:00 10.480 10.600 10.540 10.550 10.590 100.000 10.490 0.000 429.800 635.600 581.100 11.420 100.000 11.420 0.000 334.100 558.100 398.600 0.0920 86.100 0.340 50.550 371.90 387.00 1.27 26.47
DSCMET_COMPS 2018-09-30 06:40:00 10.480 10.590 10.510 10.520 10.570 100.000 10.490 0.000 430.600 637.300 580.300 11.430 100.000 11.430 0.000 336.200 560.000 399.100 0.0490 80.300 0.595 39.700 371.00 386.80 -0.04 17.26
DSCMET_COMPS 2018-09-30 06:35:00 10.480 10.590 10.510 10.540 10.540 100.000 10.490 0.000 430.700 627.900 582.000 11.430 100.000 11.430 0.000 341.500 565.200 420.400 0.1050 95.100 0.676 39.290 370.60 386.60 -0.98 8.41
DSCMET_COMPS 2018-09-30 06:30:00 10.480 10.590 10.500 10.510 10.530 100.000 10.490 0.000 429.900 628.300 580.800 11.400 100.000 11.400 -0.000 337.900 561.900 430.500 0.1510 48.410 0.702 30.180 370.40 387.00 -1.54 3.20
DSCMET_COMPS 2018-09-30 06:25:00 10.530 10.590 10.500 10.520 10.580 100.000 10.530 0.000 428.900 626.000 578.200 11.450 100.000 11.450 0.000 328.300 559.800 455.200 0.1380 88.500 0.204 45.190 370.00 386.90 -1.72 0.44
DSCMET_COMPS 2018-09-30 06:20:00 10.480 10.580 10.490 10.540 10.580 100.000 10.500 0.000 427.700 629.200 577.400 11.500 100.000 11.500 0.000 324.300 554.100 410.000 0.0630 91.600 0.453 32.110 369.70 387.00 -2.02 -1.10
DSCMET_COMPS 2018-09-30 06:15:00 10.460 10.570 10.490 10.510 10.550 100.000 10.470 0.000 428.700 641.400 577.300 11.410 100.000 11.410 0.000 322.900 543.700 387.300 0.1240 64.380 0.346 16.520 369.40 386.70 -2.36 -2.32
DSCMET_COMPS 2018-09-30 06:10:00 10.480 10.550 10.460 10.520 10.560 100.000 10.490 0.000 429.800 632.400 575.700 11.480 100.000 11.480 0.000 324.600 542.900 384.400 0.0460 74.920 0.050 92.800 368.30 387.10 -2.46 -3.23
DSCMET_COMPS 2018-09-30 06:05:00 10.510 10.580 10.500 10.520 10.530 100.000 10.520 0.000 428.400 627.800 575.600 11.430 100.000 11.430 0.000 324.100 543.600 391.700 0.1430 316.300 0.111 124.100 367.60 387.00 -2.49 -3.79
DSCMET_COMPS 2018-09-30 06:00:00 10.560 10.650 10.540 10.530 10.530 100.000 10.570 0.000 427.800 627.200 576.600 11.440 100.000 11.440 0.000 323.400 540.900 401.200 0.0800 81.800 0.127 98.100 367.60 387.00 -2.39 -4.18
DSCMET_COMPS 2018-09-30 05:55:00 10.510 10.640 10.530 10.540 10.560 100.000 10.520 0.000 426.600 626.500 577.100 11.460 100.000 11.460 0.000 342.600 544.000 402.400 0.0820 89.200 0.273 31.920 367.60 386.40 -2.27 -4.75
DSCMET_COMPS 2018-09-30 05:50:00 10.590 10.630 10.530 10.580 10.620 100.000 10.600 0.000 415.800 624.300 578.100 11.500 100.000 11.500 0.000 344.000 576.900 378.300 0.0790 39.950 0.506 32.280 367.60 386.50 -2.35 -4.90
DSCMET_COMPS 2018-09-30 05:45:00 10.630 10.700 10.600 10.600 10.610 100.000 10.640 0.000 412.000 624.000 577.000 11.460 100.000 11.460 0.000 343.500 576.200 383.700 0.1690 10.870 0.267 349.400 367.80 386.40 -2.12 -5.24
DSCMET_COMPS 2018-09-30 05:40:00 10.640 10.750 10.650 10.640 10.630 100.000 10.640 0.000 411.200 618.400 577.400 11.480 100.000 11.480 0.000 345.400 575.500 407.300   0.000 0.169 57.320 369.10 386.20 -2.09 -5.05
DSCMET_COMPS 2018-09-30 05:35:00 10.650 10.720 10.650 10.640 10.650 100.000 10.660 0.000 403.700 617.400 578.400 11.500 100.000 11.500 0.000 349.200 585.100 421.000 0.0740 63.100 0.712 30.280 370.00 387.00 -2.17 -4.49
DSCMET_COMPS 2018-09-30 05:30:00 10.680 10.730 10.630 10.630 10.650 100.000 10.690 0.000 402.800 613.600 577.800 11.580 100.000 11.580 0.000 350.800 585.500 439.100 0.1040 73.740 0.289 53.880 370.70 388.00 -2.24 -4.39
DSCMET_COMPS 2018-09-30 05:25:00 10.680 10.740 10.650 10.650 10.680 100.000 10.690 0.000 399.900 609.700 576.900 11.570 100.000 11.570 0.000 353.700 586.700 495.300 0.1320 94.200 0.547 49.200 371.20 388.10 -2.12 -4.53
DSCMET_COMPS 2018-09-30 05:20:00 10.760 10.770 10.670 10.660 10.720 100.100 10.780 -0.013 393.000 601.500 566.400 11.640 100.000 11.640 0.000 341.600 579.400 403.800 0.1450 91.900 3.654 0.495 371.50 388.10 -2.14 -4.46
DSCMET_COMPS 2018-09-30 05:15:00 10.770 10.780 10.630 10.660 10.740 100.000 10.790 0.000 389.600 595.900 561.500 11.610 100.000 11.610 0.000 332.200 568.400 371.000 0.0790 53.170 0.319 333.400 371.50 388.20 -2.05 -4.57
DSCMET_COMPS 2018-09-30 05:10:00 10.730 10.730 10.630 10.650 10.660 100.000 10.740 0.000 389.300 592.900 559.200 11.580 100.000 11.580 0.000 333.900 568.900 390.900 0.0980 298.900 0.090 235.000 371.30 388.50 -2.36 -4.49
DSCMET_COMPS 2018-09-30 05:05:00 10.700 10.740 10.650 10.620 10.630 100.000 10.710 0.000 389.000 591.800 559.200 11.570 100.000 11.570 0.000 333.700 569.400 378.300 0.1170 65.100 0.302 131.500 371.40 389.10 -2.57 -4.37
DSCMET_COMPS 2018-09-30 05:00:00 10.680 10.750 10.650 10.650 10.650 100.000 10.690 0.000 389.100 592.600 560.700 11.570 100.000 11.570 0.000 333.800 571.400 388.900 0.1620 118.000 0.175 85.400 371.10 388.60 -2.29 -4.32
DSCMET_COMPS 2018-09-30 04:55:00 10.610 10.730 10.650 10.680 10.720 100.000 10.620 0.000 388.900 595.800 560.400 11.690 100.000 11.690 0.000 334.400 570.700 401.900 0.0840 88.400 0.440 0.159 371.30 388.00 -2.17 -4.28
DSCMET_COMPS 2018-09-30 04:50:00 10.610 10.730 10.640 10.670 10.680 100.000 10.620 0.000 387.300 601.700 563.700 11.580 100.000 11.580 0.000 334.200 570.000 428.100 0.1060 310.800 0.870 30.030 371.40 387.90 -1.86 -4.36
DSCMET_COMPS 2018-09-30 04:45:00 10.630 10.710 10.650 10.690 10.690 100.000 10.640 0.000 385.200 598.400 561.600 11.570 100.000 11.570 0.000 330.300 566.200 429.700 0.0390 81.600 0.470 40.980 371.40 387.70 -1.83 -4.53
DSCMET_COMPS 2018-09-30 04:40:00 10.680 10.750 10.660 10.670 10.680 100.000 10.690 0.000 385.600 593.300 557.100 11.560 100.000 11.560 0.000 325.400 563.300 392.800 0.1170 86.600 0.154 79.820 371.20 388.30 -2.30 -4.38
DSCMET_COMPS 2018-09-30 04:35:00 10.680 10.790 10.670 10.720 10.750 100.000 10.690 0.000 386.700 593.600 555.900 11.570 100.000 11.570 0.000 324.800 563.200 377.400   0.000 0.141 302.900 370.90 388.40 -2.42 -4.50
DSCMET_COMPS 2018-09-30 04:30:00 10.680 10.770 10.640 10.760 10.760 100.000 10.690 0.000 386.600 581.400 555.000 11.580 100.000 11.580 0.000 326.600 563.600 372.900 0.0930 34.370 0.467 314.300 370.80 388.80 -2.34 -4.36
DSCMET_COMPS 2018-09-30 04:25:00 10.680 10.740 10.640 10.670 10.650 100.000 10.690 0.000 387.200 580.400 554.500 11.490 100.000 11.490 0.000 325.700 564.400 380.600 0.1680 328.100 0.363 293.600 370.80 388.50 -2.26 -4.37
DSCMET_COMPS 2018-09-30 04:20:00 10.640 10.740 10.660 10.670 10.650 100.000 10.650 0.000 385.400 580.000 553.800 11.540 100.000 11.540 0.000 326.900 565.400 379.400 0.1400 150.200 0.344 128.400 370.90 388.30 -2.31 -4.54
DSCMET_COMPS 2018-09-30 04:15:00 10.630 10.720 10.670 10.690 10.690 100.000 10.640 0.000 384.000 579.700 554.500 11.580 100.000 11.580 0.000 328.200 566.900 392.700 0.1550 110.100 0.656 44.780 371.00 388.60 -2.13 -4.39
DSCMET_COMPS 2018-09-30 04:10:00 10.670 10.740 10.670 10.670 10.700 100.000 10.680 0.000 379.500 590.900 555.700 11.580 100.000 11.580 0.000 324.700 562.600 393.200 0.0920 82.700 0.390 42.310 371.10 388.30 -2.40 -4.50
DSCMET_COMPS 2018-09-30 04:05:00 10.670 10.780 10.710 10.700 10.670 100.000 10.680 0.000 380.000 607.600 556.400 11.550 100.000 11.550 0.000 325.100 563.500 390.500 0.0800 77.130 0.065 290.700 370.60 389.10 -2.42 -4.67
DSCMET_COMPS 2018-09-30 04:00:00 10.680 10.760 10.660 10.680 10.670 100.000 10.690 0.000 379.000 608.200 557.200 11.550 100.000 11.550 0.000 334.100 561.800 400.500 0.0160 304.500 0.189 2.225 370.30 389.40 -2.54 -4.57
DSCMET_COMPS 2018-09-30 03:55:00 10.690 10.760 10.680 10.670 10.660 100.000 10.700 0.000 375.200 605.000 558.400 11.600 100.000 11.600 -0.000 343.700 559.200 409.500 0.1180 17.510 0.509 50.280 370.10 389.10 -2.41 -4.51
DSCMET_COMPS 2018-09-30 03:50:00 10.670 10.770 10.700 10.710 10.700 100.000 10.680 0.000 375.900 603.800 555.700 11.620 100.000 11.620 0.000 343.100 562.100 412.300 0.0990 80.900 0.726 50.330 370.30 388.80 -2.26 -4.59
DSCMET_COMPS 2018-09-30 03:45:00 10.690 10.790 10.720 10.720 10.740 100.000 10.700 0.000 375.900 602.000 555.700 11.630 100.000 11.630 0.000 347.800 572.300 417.900 0.0660 65.470 0.374 40.220 370.20 389.10 -2.38 -4.80
DSCMET_COMPS 2018-09-30 03:40:00 10.680 10.820 10.740 10.760 10.760 100.000 10.690 0.000 376.600 598.100 555.600 11.640 100.000 11.640 0.000 344.700 571.500 399.200 0.1390 88.200 0.348 37.270 369.90 389.60 -2.41 -4.84
DSCMET_COMPS 2018-09-30 03:35:00 10.690 10.830 10.750 10.810 10.810 100.000 10.700 0.000 377.500 598.900 556.200 11.690 100.000 11.690 0.000 340.700 567.000 398.400 0.0780 87.100 0.687 31.140 370.20 388.80 -2.19 -5.20
DSCMET_COMPS 2018-09-30 03:30:00 10.750 10.830 10.740 10.760 10.770 100.000 10.760 0.000 379.500 598.600 556.300 11.630 100.000 11.630 0.000 339.900 567.300 406.800 0.1180 57.750 0.464 28.050 370.20 389.10 -2.50 -4.68
DSCMET_COMPS 2018-09-30 03:25:00 10.750 10.850 10.780 10.760 10.770 100.000 10.760 0.000 378.800 596.800 557.400 11.690 100.000 11.690 0.000 340.700 566.900 420.500   0.000 0.196 45.220 370.10 389.40 -2.36 -4.48
DSCMET_COMPS 2018-09-30 03:20:00 10.750 10.880 10.790 10.740 10.780 100.000 10.760 0.000 374.800 593.400 563.600 11.720 100.000 11.720 0.000 341.100 556.900 418.600 0.0750 84.000 0.237 51.520 370.20 388.80 -2.02 -4.81
DSCMET_COMPS 2018-09-30 03:15:00 10.810 10.880 10.780 10.790 10.800 100.000 10.820 0.000 373.400 594.500 557.900 11.760 100.000 11.760 0.000 341.600 556.700 401.100 0.1190 71.800 0.274 32.350 370.40 388.60 -1.91 -5.25
DSCMET_COMPS 2018-09-30 03:10:00 10.910 10.920 10.820 10.820 10.840 100.100 10.930 -0.013 372.400 593.200 553.500 11.740 100.000 11.740 0.000 345.900 555.400 431.800 0.1260 341.300 0.196 46.790 370.20 389.60 -2.42 -5.21
DSCMET_COMPS 2018-09-30 03:05:00 10.900 10.940 10.870 10.870 10.840 100.000 10.920 0.000 372.100 592.600 554.800 11.740 100.000 11.740 0.000 343.500 557.300 433.500 0.0680 82.900 0.260 49.430 370.50 390.00 -2.56 -5.33
DSCMET_COMPS 2018-09-30 03:00:00 10.920 10.960 10.880 10.870 10.820 100.000 10.930 0.000 370.800 591.300 552.400 11.740 100.000 11.740 0.000 345.900 561.600 437.900 0.0490 75.780 0.200 33.170 370.80 390.50 -2.38 -5.21
DSCMET_COMPS 2018-09-30 02:55:00 10.890 10.990 10.900 10.870 10.850 100.000 10.900 -0.000 369.900 586.400 549.700 11.820 100.000 11.820 -0.000 347.100 564.000 463.900 0.0660 87.500 0.328 41.110 371.30 390.30 -2.15 -5.33
DSCMET_COMPS 2018-09-30 02:50:00 10.880 11.020 10.920 10.910 10.890 100.000 10.890 0.000 369.600 582.400 545.600 11.860 100.000 11.860 0.000 348.500 560.100 477.600 0.0960 89.000 0.584 29.870 371.90 390.30 -2.13 -5.20
DSCMET_COMPS 2018-09-30 02:45:00 10.890 11.030 10.930 10.940 10.940 100.000 10.900 -0.000 369.400 572.900 532.400 11.900 100.000 11.900 -0.000 346.100 546.300 499.100 0.0680 74.430 0.879 33.840 372.20 390.40 -2.15 -5.00
DSCMET_COMPS 2018-09-30 02:40:00 10.930 11.030 10.940 10.930 10.930 100.000 10.940 0.000 369.600 565.600 520.800 11.820 100.000 11.820 -0.000 339.400 534.600 456.700 0.0870 68.870 0.433 41.540 372.50 390.50 -2.29 -4.77
DSCMET_COMPS 2018-09-30 02:35:00 10.900 11.030 10.950 10.970 10.970 100.000 10.910 0.000 369.100 563.000 518.000 11.820 100.000 11.820 -0.000 339.200 527.800 459.500 0.1030 100.900 0.307 44.050 372.60 390.50 -2.20 -4.69
DSCMET_COMPS 2018-09-30 02:30:00 10.920 11.010 10.930 10.980 10.970 100.000 10.930 0.000 368.700 561.000 515.900 11.870 100.000 11.870 -0.000 336.900 524.300 437.300 0.0920 19.760 0.466 23.920 372.80 390.30 -2.22 -4.69
DSCMET_COMPS 2018-09-30 02:25:00 10.910 11.010 10.910 10.920 10.940 100.000 10.920 0.000 366.800 557.600 511.700 11.820 100.000 11.820 -0.000 333.400 520.700 441.400 0.1510 342.600 0.674 32.100 372.80 390.20 -2.36 -4.55
DSCMET_COMPS 2018-09-30 02:20:00 10.880 11.010 10.950 10.930 10.920 100.000 10.890 0.000 366.900 556.300 510.400 11.820 100.000 11.820 -0.000 334.200 518.800 408.800   0.000 0.248 56.400 372.70 390.20 -2.33 -4.44
DSCMET_COMPS 2018-09-30 02:15:00 10.890 11.030 10.960 10.940 10.940 100.000 10.900 -0.000 368.000 554.200 510.300 11.860 100.000 11.860 0.000 341.400 518.100 400.800   0.000 0.276 62.270 372.80 390.10 -2.36 -4.34
DSCMET_COMPS 2018-09-30 02:10:00 10.930 11.030 10.970 10.950 10.990 100.000 10.940 0.000 369.100 553.600 511.500 11.920 100.000 11.920 0.000 346.700 518.400 393.300 0.0900 85.200 0.787 35.620 373.00 389.80 -1.99 -4.49
DSCMET_COMPS 2018-09-30 02:05:00 10.970 11.030 10.960 10.940 10.930 100.000 10.980 0.000 370.600 552.300 511.800 11.830 100.000 11.830 0.000 346.100 519.300 408.800 0.0880 64.300 0.571 36.930 373.00 389.90 -2.06 -4.45
DSCMET_COMPS 2018-09-30 02:00:00 10.930 11.020 10.960 10.940 10.920 100.000 10.940 0.000 372.200 551.500 511.200 11.800 100.000 11.800 0.000 346.600 519.100 407.300 0.0540 91.900 0.831 39.880 372.80 390.30 -2.14 -4.36
DSCMET_COMPS 2018-09-30 01:55:00 10.940 11.040 10.970 10.950 10.940 100.000 10.950 0.000 374.400 550.500 511.700 11.790 100.000 11.790 0.000 347.100 519.900 423.000 0.0690 89.100 0.343 44.320 372.90 390.10 -2.09 -4.49
DSCMET_COMPS 2018-09-30 01:50:00 10.950 11.050 10.970 10.950 10.950 100.000 10.960 0.000 376.700 549.300 512.500 11.820 100.000 11.820 -0.000 349.700 521.500 439.300 0.0720 81.300 0.248 54.080 372.60 390.40 -2.33 -4.24
DSCMET_COMPS 2018-09-30 01:45:00 10.950 11.070 10.980 10.960 10.970 100.000 10.960 0.000 379.300 547.200 513.700 11.830 100.000 11.830 0.000 351.100 526.000 445.300 0.0990 73.220 0.584 41.020 372.70 390.20 -2.22 -4.17
DSCMET_COMPS 2018-09-30 01:40:00 10.980 11.080 10.980 10.980 10.950 100.000 10.990 -0.000 383.300 548.200 513.900 11.820 100.000 11.820 -0.000 352.000 514.500 424.500 0.1080 82.000 0.653 36.320 372.80 389.70 -1.92 -4.45
DSCMET_COMPS 2018-09-30 01:35:00 11.020 11.120 11.020 11.020 10.980 100.000 11.030 0.000 387.300 555.100 512.300 11.860 100.000 11.860 0.000 348.500 514.300 433.700 0.1150 67.660 0.336 31.860 372.70 389.50 -2.12 -4.24
DSCMET_COMPS 2018-09-30 01:30:00 11.020 11.130 11.030 11.030 11.030 100.000 11.030 0.000 387.400 553.300 512.100 11.880 100.000 11.880 0.000 348.800 517.000 418.900 0.1080 110.800 0.272 40.230 372.60 389.50 -2.02 -4.13
DSCMET_COMPS 2018-09-30 01:25:00 11.030 11.140 11.030 11.010 11.030 99.900 11.030 0.013 387.900 550.800 513.000 11.900 100.000 11.900 -0.000 350.200 517.700 422.300 0.1560 76.970 0.358 350.600 373.00 388.70 -1.84 -4.22
DSCMET_COMPS 2018-09-30 01:20:00 11.090 11.130 11.020 11.010 11.020 100.000 11.100 0.000 389.300 548.400 514.100 11.850 100.000 11.850 0.000 358.900 517.500 444.000 0.1140 259.500 0.211 295.000 372.80 389.20 -2.03 -3.88
DSCMET_COMPS 2018-09-30 01:15:00 11.090 11.100 11.020 11.040 11.030 100.000 11.090 0.000 388.000 552.400 517.500 11.880 100.000 11.880 0.000 372.600 526.000 438.100 0.1640 119.700 0.726 40.480 373.00 388.50 -1.79 -3.79
DSCMET_COMPS 2018-09-30 01:10:00 11.050 11.100 11.010 11.000 10.980 99.800 11.030 0.026 385.200 541.300 517.000 11.830 100.000 11.830 0.000 386.300 526.400 462.200   0.000 0.607 36.200 373.20 387.90 -1.77 -3.68
DSCMET_COMPS 2018-09-30 01:05:00 11.030 11.120 11.050 11.030 11.030 99.800 11.000 0.026 378.800 532.700 506.600 11.950 100.000 11.950 0.000 391.500 527.600 508.500 0.2000 114.100 0.227 57.280 373.20 388.30 -1.70 -3.67
DSCMET_COMPS 2018-09-30 01:00:00 11.090 11.180 11.090 11.070 11.060 99.600 11.040 0.053 369.800 523.300 498.500 11.970 100.000 11.970 0.000 399.100 528.700 473.700 0.2000 100.400 0.359 23.090 373.60 387.70 -1.58 -3.58
DSCMET_COMPS 2018-09-30 00:55:00 11.080 11.190 11.040 10.980 11.050 99.800 11.050 0.026 362.700 467.400 476.200 11.900 100.000 11.900 -0.000 389.000 515.200 437.100 0.1080 49.740 0.797 303.400 374.00 387.60 -1.53 -3.49
DSCMET_COMPS 2018-09-30 00:50:00 11.020 11.140 11.030 10.990 11.000 99.700 10.980 0.039 346.600 438.900 460.400 11.860 100.000 11.860 0.000 370.100 508.600 436.500 0.2980 319.400 0.551 254.000 373.80 387.10 -1.68 -3.17
DSCMET_COMPS 2018-09-30 00:45:00 11.020 11.110 11.070 11.050 10.950 99.600 10.970 0.053 334.600 428.200 452.200 11.810 100.000 11.810 0.000 360.800 515.000 453.800 0.1830 222.100 0.471 204.400 373.70 387.50 -1.66 -3.96
DSCMET_COMPS 2018-09-30 00:40:00 10.960 11.100 11.020 11.030 10.960 99.600 10.920 0.052 322.400 424.400 445.200 11.780 100.000 11.780 0.000 358.900 520.600 503.600 0.1410 297.000 0.290 256.400 373.60 388.40 -1.88 -4.58
DSCMET_COMPS 2018-09-30 00:35:00 10.950 11.090 11.020 10.970 10.930 99.600 10.900 0.052 292.300 405.000 410.300 11.790 100.000 11.790 0.000 352.500 502.600 504.100 0.0960 64.670 0.210 97.400 373.30 389.90 -2.15 -4.41
DSCMET_COMPS 2018-09-30 00:30:00 10.960 11.090 11.020 10.970 10.930 99.400 10.890 0.079 274.000 384.700 385.000 11.820 100.000 11.820 -0.000 342.000 483.600 541.300 0.1230 86.400 0.227 49.710 373.30 389.50 -1.68 -4.56
DSCMET_COMPS 2018-09-30 00:25:00 10.990 11.120 11.030 11.020 10.960 99.300 10.900 0.092 269.500 368.200 369.900 11.840 100.000 11.840 0.000 324.100 460.600 560.700 0.0840 86.200 0.565 31.330 373.50 389.90 -1.80 -4.71
DSCMET_COMPS 2018-09-30 00:20:00 11.040 11.120 11.040 10.990 10.980 99.200 10.930 0.105 268.500 341.400 355.500 11.850 100.000 11.850 0.000 302.400 443.700 502.700 0.0990 63.990 0.463 37.580 373.20 390.40 -2.02 -4.77
DSCMET_COMPS 2018-09-30 00:15:00 11.040 11.120 11.050 11.020 10.970 99.100 10.920 0.118 268.000 331.900 350.400 11.820 100.000 11.820 -0.000 295.800 437.100 506.900 0.1100 71.160 0.656 10.140 372.90 390.40 -2.04 -4.73
DSCMET_COMPS 2018-09-30 00:10:00 11.090 11.120 11.050 11.020 10.970 99.000 10.950 0.132 267.100 325.900 341.200 11.860 100.000 11.860 0.000 286.400 422.300 514.700 0.0950 65.110 0.317 35.550 373.00 390.20 -2.02 -4.81
DSCMET_COMPS 2018-09-30 00:05:00 11.040 11.150 11.060 11.030 10.980 99.000 10.900 0.132 266.200 313.800 335.200 11.850 100.000 11.850 0.000 278.600 402.400 512.500 0.1650 58.180 0.377 27.040 372.70 390.40 -2.15 -4.50
DSCMET_COMPS 2018-09-30 00:00:00 11.040 11.130 11.040 11.080 11.040 98.900 10.870 0.145 265.900 306.800 331.300 11.830 100.000 11.830 0.000 271.800 389.100 470.100   0.000 0.256 14.480 372.60 390.20 -2.19 -4.47
DSCMET_COMPS 2018-09-29 23:55:00 11.080 11.130 11.060 11.110 11.040 98.800 10.910 0.158 266.500 306.700 330.800 11.880 100.000 11.880 0.000 269.400 385.800 466.400 0.1520 314.200 0.443 31.890 372.40 390.10 -2.12 -4.63
DSCMET_COMPS 2018-09-29 23:50:00 11.040 11.140 11.050 11.040 11.010 98.900 10.890 0.145 267.000 307.500 331.900 11.870 100.000 11.870 -0.000 269.200 383.000 470.000 0.0930 79.310 0.467 41.830 372.40 390.50 -2.22 -4.55
DSCMET_COMPS 2018-09-29 23:45:00 11.080 11.150 11.070 11.040 11.020 98.800 10.910 0.158 267.600 308.400 332.200 11.860 100.000 11.860 0.000 269.300 383.600 455.200 0.1730 21.950 0.275 24.980 372.30 390.00 -2.11 -4.53
DSCMET_COMPS 2018-09-29 23:40:00 11.100 11.180 11.100 11.080 11.020 98.800 10.930 0.159 268.300 309.500 333.100 11.880 99.900 11.865 0.014 269.500 384.600 456.000 0.1780 45.710 0.097 40.400 372.70 389.60 -1.92 -4.45
DSCMET_COMPS 2018-09-29 23:35:00 11.130 11.180 11.100 11.090 11.050 98.800 10.960 0.159 268.700 310.600 334.100 12.020 99.600 11.959 0.056 267.300 385.600 478.700 0.1260 49.520 0.642 37.970 372.80 389.60 -1.98 -4.32
DSCMET_COMPS 2018-09-29 23:30:00 11.150 11.220 11.160 11.120 11.150 98.700 10.970 0.172 269.300 311.600 335.400 12.060 98.900 11.892 0.155 263.600 386.000 528.700 0.1470 65.620 0.338 41.760 372.90 389.40 -1.88 -4.39
DSCMET_COMPS 2018-09-29 23:25:00 11.150 11.200 11.150 11.110 11.120 98.700 10.960 0.172 269.800 311.600 336.900 12.050 99.600 11.989 0.056 263.600 386.800 553.700 0.1590 48.400 0.973 25.690 373.20 389.60 -1.89 -4.26
DSCMET_COMPS 2018-09-29 23:20:00 11.150 11.240 11.170 11.120 11.090 98.600 10.950 0.186 270.100 311.700 338.700 11.980 99.700 11.934 0.042 263.300 387.300 564.600 0.2120 96.800 0.970 42.440 373.70 390.20 -1.93 -4.55
DSCMET_COMPS 2018-09-29 23:15:00 11.170 11.240 11.200 11.160 11.120 98.400 10.940 0.212 270.500 310.100 337.300 12.060 99.600 11.999 0.056 256.300 383.100 584.500 0.1340 60.160 1.120 32.300 373.40 390.40 -1.90 -4.59
DSCMET_COMPS 2018-09-29 23:10:00 11.220 11.280 11.210 11.180 11.120 98.100 10.950 0.253 270.000 305.900 319.400 12.010 99.600 11.949 0.056 251.100 366.400 594.100 0.1370 60.130 0.923 38.570 373.50 390.30 -1.95 -4.11
DSCMET_COMPS 2018-09-29 23:05:00 11.260 11.320 11.240 11.210 11.150 97.400 10.870 0.347 269.300 293.700 302.100 12.000 99.500 11.924 0.070 231.300 325.900 555.700 0.1520 69.130 0.818 38.420 374.10 389.90 -1.84 -4.46
DSCMET_COMPS 2018-09-29 23:00:00 11.310 11.380 11.290 11.250 11.240 97.300 10.900 0.362 267.900 276.600 284.800 12.080 99.000 11.928 0.141 208.000 298.100 430.800 0.1900 91.900 0.208 100.100 373.90 389.80 -1.98 -4.50
DSCMET_COMPS 2018-09-29 22:55:00 11.360 11.430 11.280 11.230 11.290 96.700 10.860 0.444 265.900 268.900 271.100 12.130 98.400 11.885 0.226 196.900 294.800 397.700   0.000 0.362 223.900 374.00 389.00 -1.96 -4.72
DSCMET_COMPS 2018-09-29 22:50:00 11.360 11.450 11.340 11.340 11.360 96.100 10.770 0.524 265.900 266.800 268.300 12.210 97.500 11.826 0.355 194.100 292.700 393.500   0.000 0.429 215.400 373.70 388.00 -2.29 -4.93
DSCMET_COMPS 2018-09-29 22:45:00 11.360 11.460 11.350 11.330 11.340 95.900 10.740 0.551 266.200 267.600 268.100 12.250 97.400 11.850 0.371 194.300 292.700 394.000 0.1490 161.900 0.319 227.600 373.40 387.40 -2.39 -4.84
DSCMET_COMPS 2018-09-29 22:40:00 11.360 11.410 11.270 11.300 11.300 96.200 10.780 0.511 265.100 266.300 265.900 12.190 97.400 11.790 0.369 191.300 287.600 389.600 0.1520 316.800 0.537 268.400 373.20 385.60 -2.41 -4.78
DSCMET_COMPS 2018-09-29 22:35:00 11.410 11.490 11.370 11.410 11.310 95.300 10.690 0.634 264.200 265.200 264.300 12.140 97.200 11.710 0.396 189.900 281.700 389.000 0.2690 305.500 0.490 232.100 373.10 383.90 -2.48 -4.93
DSCMET_COMPS 2018-09-29 22:30:00 11.420 11.550 11.460 11.400 11.300 94.800 10.640 0.702 263.300 265.300 264.600 12.180 96.700 11.671 0.468 190.400 280.900 392.600 0.2130 279.400 0.487 241.700 372.90 383.70 -2.59 -4.98
DSCMET_COMPS 2018-09-29 22:25:00 11.450 11.560 11.490 11.480 11.400 94.800 10.650 0.703 263.200 265.300 264.600 12.290 95.900 11.655 0.586 191.000 282.400 397.600 0.1820 237.800 0.369 248.000 372.60 383.10 -2.43 -4.95
DSCMET_COMPS 2018-09-29 22:20:00 11.370 11.450 11.400 11.380 11.370 95.400 10.670 0.619 263.200 265.300 265.000 12.190 96.700 11.681 0.469 191.900 283.600 402.600 0.1420 242.200 0.338 277.900 372.80 382.60 -2.50 -5.08
DSCMET_COMPS 2018-09-29 22:15:00 11.470 11.470 11.390 11.380 11.310 95.200 10.730 0.650 263.200 266.100 265.900 12.360 95.200 11.614 0.689 192.600 285.200 405.700 0.2000 15.280 0.234 35.570 372.80 382.90 -2.36 -4.91
DSCMET_COMPS 2018-09-29 22:10:00 11.500 11.530 11.440 11.360 11.340 95.200 10.770 0.651 263.600 266.700 267.000 12.300 95.900 11.665 0.586 193.800 286.800 409.000 0.1750 89.300 0.408 334.700 373.20 382.80 -2.16 -5.07
DSCMET_COMPS 2018-09-29 22:05:00 11.520 11.530 11.400 11.330 11.310 95.000 10.750 0.679 263.900 267.400 268.200 12.180 95.600 11.498 0.624 194.900 289.600 413.800 0.2050 318.000 0.771 295.500 373.00 383.10 -2.25 -5.28
DSCMET_COMPS 2018-09-29 22:00:00 11.460 11.550 11.510 11.510 11.380 94.800 10.660 0.704 263.900 268.400 269.600 12.240 95.000 11.463 0.712 196.000 292.100 419.100 0.1760 228.600 0.631 201.400 372.90 383.70 -2.35 -5.41
DSCMET_COMPS 2018-09-29 21:55:00 11.410 11.480 11.450 11.510 11.550 95.000 10.650 0.674 264.300 269.400 271.000 12.410 93.500 11.392 0.937 197.600 294.400 423.900 0.1410 10.050 0.200 277.400 373.50 384.20 -2.54 -5.98
DSCMET_COMPS 2018-09-29 21:50:00 11.430 11.490 11.410 11.510 11.560 94.500 10.580 0.743 264.600 270.700 272.400 12.360 93.700 11.374 0.905 198.400 296.800 427.800 0.2190 345.300 0.372 296.400 373.60 384.90 -2.55 -5.88
DSCMET_COMPS 2018-09-29 21:45:00 11.490 11.550 11.510 11.570 11.570 93.800 10.550 0.841 264.500 272.600 274.000 12.410 93.400 11.375 0.951 199.000 299.500 431.000   0.000 0.122 329.400 373.90 385.10 -2.57 -5.53
DSCMET_COMPS 2018-09-29 21:40:00 11.580 11.660 11.640 11.670 11.570 92.700 10.450 0.996 264.600 274.200 274.900 12.450 92.700 11.302 1.055 198.600 300.700 430.800 0.2220 359.600 0.195 91.600 374.60 384.50 -2.51 -5.94
DSCMET_COMPS 2018-09-29 21:35:00 11.730 11.830 11.810 11.820 11.630 91.500 10.400 1.171 264.000 274.100 275.700 12.570 90.800 11.108 1.340 199.200 302.400 430.200 0.1940 47.040 0.314 68.480 375.40 383.60 -2.37 -6.62
DSCMET_COMPS 2018-09-29 21:30:00 11.870 12.030 12.030 12.040 12.010 89.500 10.200 1.460 263.600 272.100 276.000 12.960 87.900 11.004 1.807 198.200 301.500 391.400 0.1910 97.700 0.662 31.650 376.70 381.50 -2.36 -7.06
DSCMET_COMPS 2018-09-29 21:25:00 11.880 12.120 12.090 12.070 12.020 88.800 10.100 1.558 263.200 265.600 263.900 12.900 88.100 10.979 1.771 189.100 275.300 307.400 0.2020 26.310 2.145 27.810 376.30 368.50 -2.80 -5.86
DSCMET_COMPS 2018-09-29 21:20:00 11.890 12.000 12.000 12.000 11.910 88.500 10.060 1.601 262.900 264.600 262.600 12.840 87.800 10.869 1.808 186.600 264.800 279.600 0.2890 87.000 1.820 40.400 375.90 364.50 -3.13 -4.47
DSCMET_COMPS 2018-09-29 21:15:00 11.940 12.050 12.060 12.030 11.970 88.300 10.070 1.634 262.700 264.600 262.600 12.900 87.200 10.825 1.904 186.300 264.500 275.800 0.1330 73.770 1.374 38.290 375.60 363.30 -3.03 -4.49
DSCMET_COMPS 2018-09-29 21:10:00 11.990 12.090 12.090 12.100 12.040 87.900 10.060 1.696 262.600 264.600 263.000 12.860 86.900 10.734 1.944 186.400 264.600 280.600 0.1660 83.700 0.745 42.430 375.30 362.00 -2.78 -4.68
DSCMET_COMPS 2018-09-29 21:05:00 12.040 12.130 12.090 12.110 12.060 87.500 10.040 1.758 262.600 264.600 262.600 12.980 86.000 10.696 2.094 186.300 264.900 278.100 0.1950 90.200 0.796 48.960 375.40 362.30 -3.03 -4.67
DSCMET_COMPS 2018-09-29 21:00:00 12.080 12.200 12.160 12.180 12.100 87.100 10.010 1.819 262.600 264.600 262.600 13.030 85.400 10.640 2.191 186.100 265.000 275.200 0.1530 78.820 0.504 47.840 375.20 360.70 -3.09 -5.06
DSCMET_COMPS 2018-09-29 20:55:00 12.120 12.250 12.210 12.200 12.200 86.600 9.960 1.894 262.600 264.600 262.600 13.050 85.200 10.624 2.224 185.800 264.900 268.400 0.1410 76.020 0.653 38.450 375.10 359.80 -3.18 -5.37
DSCMET_COMPS 2018-09-29 20:50:00 12.130 12.270 12.220 12.230 12.260 87.100 10.050 1.825 262.600 264.600 262.600 13.150 84.700 10.634 2.314 186.000 264.500 266.500 0.1050 82.600 0.317 25.120 375.40 360.10 -3.01 -5.05
DSCMET_COMPS 2018-09-29 20:45:00 12.140 12.310 12.250 12.250 12.280 86.800 10.020 1.868 262.600 264.600 262.600 13.170 84.400 10.600 2.362 186.100 264.200 264.700 0.1210 95.300 0.330 31.530 375.40 361.30 -2.97 -4.91
DSCMET_COMPS 2018-09-29 20:40:00 12.170 12.320 12.230 12.240 12.300 86.300 9.950 1.943 262.600 264.600 262.600 13.260 83.800 10.581 2.468 186.300 264.200 265.100 0.1510 100.200 0.988 32.250 375.50 362.30 -2.89 -4.99
DSCMET_COMPS 2018-09-29 20:35:00 12.210 12.310 12.260 12.280 12.310 87.100 10.140 1.834 262.600 264.600 262.600 13.360 83.100 10.553 2.591 184.500 264.200 264.200   0.000 0.419 59.930 375.50 361.70 -2.71 -5.18
DSCMET_COMPS 2018-09-29 20:30:00 12.260 12.370 12.280 12.320 12.410 86.600 10.090 1.912 262.600 264.400 262.600 13.330 83.100 10.524 2.586 186.200 264.200 263.500 0.1540 91.800 0.234 75.830 375.30 360.00 -2.85 -5.06
DSCMET_COMPS 2018-09-29 20:25:00 12.340 12.380 12.220 12.320 12.470 85.300 9.960 2.108 262.600 264.000 262.600 13.390 83.000 10.565 2.612 186.200 264.200 263.500 0.1470 313.400 0.436 303.500 375.10 358.80 -2.88 -5.36
DSCMET_COMPS 2018-09-29 20:20:00 12.240 12.380 12.260 12.300 12.350 85.800 9.950 2.023 262.600 264.500 262.600 13.360 83.300 10.589 2.561 186.200 264.500 263.900 0.2770 327.300 0.391 295.100 375.20 363.80 -2.77 -5.78
DSCMET_COMPS 2018-09-29 20:15:00 12.230 12.390 12.370 12.380 12.350 86.400 10.030 1.936 262.600 264.600 262.600 13.360 83.000 10.535 2.607 186.200 264.500 265.000 0.1750 16.350 0.377 93.400 375.20 365.70 -3.19 -6.31
DSCMET_COMPS 2018-09-29 20:10:00 12.280 12.440 12.420 12.450 12.430 86.000 10.020 2.000 262.600 264.500 262.800 13.500 82.300 10.545 2.739 186.200 264.700 267.400 0.2520 94.000 0.523 67.160 376.00 367.80 -2.98 -6.37
DSCMET_COMPS 2018-09-29 20:05:00 12.360 12.550 12.460 12.500 12.510 85.400 9.990 2.097 262.600 263.900 263.100 13.660 81.400 10.537 2.908 186.600 264.200 268.900 0.2660 85.300 1.073 33.980 376.20 367.90 -2.83 -6.53
DSCMET_COMPS 2018-09-29 20:00:00 12.490 12.660 12.550 12.550 12.560 85.200 10.090 2.144 262.600 263.900 262.400 13.530 82.400 10.593 2.729 186.800 264.800 270.700 0.1550 32.670 0.472 350.400 375.80 358.90 -3.30 -6.68
DSCMET_COMPS 2018-09-29 19:55:00 12.430 12.680 12.650 12.660 12.650 85.100 10.010 2.150 262.600 264.400 262.600 13.620 81.800 10.571 2.838 187.300 265.700 273.000 0.1580 321.600 0.188 38.730 375.80 351.30 -3.39 -6.56
DSCMET_COMPS 2018-09-29 19:50:00 12.530 12.710 12.700 12.730 12.780 85.100 10.090 2.164 262.600 264.600 263.000 13.700 81.500 10.594 2.900 187.600 266.700 276.400 0.2490 83.300 0.597 50.810 378.50 358.10 -3.32 -5.59
DSCMET_COMPS 2018-09-29 19:45:00 12.590 12.750 12.720 12.800 13.130 84.600 10.090 2.245 262.600 264.200 262.700 14.080 78.860 10.470 3.397 187.300 266.700 271.500 0.4010 88.500 1.187 35.020 379.70 364.10 -3.49 -5.06
DSCMET_COMPS 2018-09-29 19:40:00 12.660 12.790 12.750 12.820 12.970 83.700 9.980 2.387 262.600 263.900 261.900 14.030 79.230 10.492 3.326 185.900 264.000 263.500 0.1730 75.250 1.081 14.660 379.40 364.40 -3.45 -4.91
DSCMET_COMPS 2018-09-29 19:35:00 12.670 12.770 12.690 12.710 12.750 83.800 10.020 2.374 262.600 263.900 261.900 13.840 80.700 10.582 3.053 185.800 263.900 263.200 0.1520 71.280 1.263 33.370 379.40 363.60 -3.34 -4.88
DSCMET_COMPS 2018-09-29 19:30:00 12.640 12.760 12.660 12.680 12.690 83.900 10.010 2.355 262.600 263.900 261.900 13.740 81.600 10.651 2.892 185.800 263.900 263.200   0.000 0.759 34.260 379.60 363.00 -3.44 -4.99
DSCMET_COMPS 2018-09-29 19:25:00 12.620 12.790 12.750 12.720 12.760 84.900 10.170 2.206 262.600 263.900 261.900 13.690 82.200 10.712 2.789 185.800 263.900 263.200   0.000 0.202 101.300 379.00 362.50 -3.58 -4.94
DSCMET_COMPS 2018-09-29 19:20:00 12.770 12.880 12.820 12.770 12.820 84.400 10.220 2.301 262.600 263.900 261.900 13.730 81.700 10.660 2.874 185.800 263.900 263.200 0.3560 93.200 0.278 37.550 379.10 362.20 -3.45 -5.10
DSCMET_COMPS 2018-09-29 19:15:00 12.800 12.930 12.830 12.780 12.850 83.500 10.080 2.439 262.600 263.900 261.900 13.720 82.200 10.742 2.794 185.800 263.900 263.200 0.1720 334.600 0.385 282.100 379.10 363.00 -3.51 -5.09
DSCMET_COMPS 2018-09-29 19:10:00 12.670 12.880 12.900 12.890 12.840 84.300 10.100 2.301 262.600 263.900 261.900 13.800 81.900 10.765 2.856 185.900 263.800 263.200 0.1680 279.500 0.458 41.660 379.30 363.40 -3.82 -5.21
DSCMET_COMPS 2018-09-29 19:05:00 12.670 12.900 12.930 12.930 12.850 83.900 10.030 2.360 262.600 263.900 261.900 13.740 82.200 10.761 2.798 185.800 263.800 263.200 0.1470 91.600 0.646 44.500 378.30 360.90 -3.59 -5.23
DSCMET_COMPS 2018-09-29 19:00:00 12.770 12.990 12.960 12.990 12.930 83.700 10.090 2.405 262.600 263.900 261.900 13.890 81.300 10.742 2.968 185.800 263.800 263.200 0.2170 89.500 0.881 46.170 377.50 358.20 -3.65 -5.48
DSCMET_COMPS 2018-09-29 18:55:00 12.940 13.070 12.980 13.130 13.200 82.700 10.080 2.581 262.600 263.900 261.900 14.250 79.170 10.694 3.384 185.700 263.800 263.100 0.2520 76.500 1.193 36.680 376.50 348.30 -3.58 -5.94
DSCMET_COMPS 2018-09-29 18:50:00 12.940 13.090 13.070 13.170 13.220 82.600 10.060 2.596 262.600 263.900 261.900 14.350 78.490 10.662 3.517 185.700 263.800 263.000 0.2540 13.750 0.473 35.300 378.00 351.20 -3.33 -6.07
DSCMET_COMPS 2018-09-29 18:45:00 12.990 13.150 13.090 13.150 13.090 82.700 10.120 2.589 262.600 263.900 261.900 14.160 79.750 10.716 3.271 185.800 263.700 262.900 0.1580 26.980 0.330 49.500 377.40 347.20 -3.67 -6.24
DSCMET_COMPS 2018-09-29 18:40:00 13.090 13.270 13.220 13.240 13.210 83.300 10.340 2.516 262.600 263.800 261.900 14.150 79.930 10.740 3.239 185.700 263.500 262.800 0.1930 86.000 0.223 64.710 378.60 350.10 -3.82 -6.15
DSCMET_COMPS 2018-09-29 18:35:00 13.250 13.350 13.310 13.380 13.390 82.100 10.270 2.725 262.600 263.600 261.900 14.370 79.100 10.798 3.422 185.600 263.500 262.800 0.1370 86.200 0.301 67.480 379.30 351.90 -3.69 -6.02
DSCMET_COMPS 2018-09-29 18:30:00 13.300 13.390 13.320 13.400 13.560 82.000 10.300 2.749 262.600 263.400 261.900 14.600 77.450 10.704 3.747 185.800 263.500 262.800 0.1610 71.940 0.551 21.350 381.10 357.70 -3.80 -5.67
DSCMET_COMPS 2018-09-29 18:25:00 13.290 13.400 13.310 13.530 13.690 81.100 10.120 2.885 262.600 263.200 261.900 14.770 76.670 10.717 3.920 185.800 263.600 262.800 0.1940 50.860 1.620 29.330 381.90 360.30 -3.70 -5.74
DSCMET_COMPS 2018-09-29 18:20:00 13.260 13.430 13.340 13.360 13.380 81.800 10.220 2.772 262.600 263.200 261.900 14.440 78.820 10.812 3.483 185.800 263.800 262.800   0.000 0.968 30.280 382.10 361.00 -3.63 -5.81
DSCMET_COMPS 2018-09-29 18:15:00 13.300 13.480 13.470 13.470 13.450 81.400 10.190 2.841 262.600 263.200 261.900 14.410 79.210 10.857 3.413 185.800 263.800 262.800 0.1600 85.900 0.567 58.730 381.80 361.20 -3.99 -5.47
DSCMET_COMPS 2018-09-29 18:10:00 13.390 13.520 13.520 13.510 13.450 81.500 10.300 2.842 262.600 263.200 261.900 14.340 79.430 10.831 3.361 185.600 263.500 262.800 0.1470 83.400 0.265 61.460 382.20 362.90 -4.11 -5.31
DSCMET_COMPS 2018-09-29 18:05:00 13.470 13.610 13.570 13.590 13.490 80.400 10.180 3.027 262.500 263.200 261.900 14.580 77.790 10.751 3.686 185.800 263.500 262.800 0.1430 63.060 0.461 46.110 382.30 362.40 -3.85 -5.49
DSCMET_COMPS 2018-09-29 18:00:00 13.600 13.700 13.630 13.680 13.630 80.000 10.230 3.115 262.400 263.200 261.900 14.770 76.740 10.731 3.908 185.700 263.500 262.800 0.1200 30.290 1.002 38.770 380.80 358.30 -4.14 -5.34
DSCMET_COMPS 2018-09-29 17:55:00 13.710 13.800 13.750 13.770 13.770 80.000 10.340 3.137 262.100 263.200 261.900 14.800 77.490 10.906 3.789 185.800 263.700 262.800 0.1750 33.390 0.778 42.540 379.40 347.90 -3.94 -5.50
DSCMET_COMPS 2018-09-29 17:50:00 13.840 13.950 13.860 13.880 13.850 78.840 10.240 3.347 261.900 263.200 261.900 14.850 76.770 10.814 3.923 185.500 263.500 262.600 0.1710 45.770 0.314 51.380 379.20 339.90 -4.33 -4.76
DSCMET_COMPS 2018-09-29 17:45:00 13.960 14.070 13.960 14.030 14.070 78.290 10.250 3.461 261.900 263.200 261.900 15.050 75.500 10.757 4.191 185.100 263.500 262.500 0.2160 348.600 0.163 304.300 380.60 340.30 -4.56 -3.45
DSCMET_COMPS 2018-09-29 17:40:00 14.090 14.220 14.180 14.210 14.110 78.270 10.380 3.494 261.900 263.200 261.900 15.130 76.040 10.941 4.120 185.600 263.500 262.500 0.2210 23.120 0.126 152.500 381.60 344.50 -4.76 -2.19
DSCMET_COMPS 2018-09-29 17:35:00 14.350 14.430 14.270 14.360 14.430 77.420 10.460 3.692 261.900 263.200 261.900 15.320 74.400 10.797 4.456 185.700 263.500 262.500 0.2740 331.100 0.227 251.000 381.10 337.00 -4.89 -2.39
DSCMET_COMPS 2018-09-29 17:30:00 14.400 14.620 14.550 14.610 14.520 77.770 10.580 3.647 262.100 263.200 261.900 15.580 73.040 10.771 4.772 185.500 263.500 262.500 0.1420 341.500 0.244 109.900 383.20 330.60 -4.94 -1.59
DSCMET_COMPS 2018-09-29 17:25:00 14.540 14.810 14.750 14.790 14.700 78.270 10.810 3.597 262.400 263.200 261.700 15.750 72.270 10.775 4.962 185.500 263.500 262.400 0.1340 81.500 0.410 46.060 387.30 338.20 -4.40 1.40
DSCMET_COMPS 2018-09-29 17:20:00 14.550 14.910 14.880 14.930 14.910 79.500 11.060 3.396 262.600 263.200 261.600 15.860 71.790 10.781 5.083 185.700 263.500 262.200 0.1430 29.250 0.848 38.490 392.90 350.20 -3.75 6.69
DSCMET_COMPS 2018-09-29 17:15:00 14.620 14.930 15.040 15.120 15.050 80.200 11.260 3.295 262.500 263.200 261.400 15.910 71.120 10.688 5.221 185.700 263.500 262.100 0.1010 81.700 0.338 52.870 397.10 361.00 -2.78 12.59
DSCMET_COMPS 2018-09-29 17:10:00 14.800 15.070 15.160 15.220 15.170 79.610 11.330 3.432 262.500 263.200 261.200 16.060 70.440 10.687 5.395 185.800 263.500 262.100   0.000 0.521 48.580 400.10 364.60 -1.17 23.15
DSCMET_COMPS 2018-09-29 17:05:00 14.800 15.190 15.200 15.280 15.270 78.840 11.180 3.562 262.300 263.200 261.200 16.120 70.160 10.685 5.467 185.800 263.400 262.100 0.2090 80.300 0.803 40.040 401.90 370.40 -0.75 27.21
DSCMET_COMPS 2018-09-29 17:00:00 14.850 15.240 15.280 15.340 15.350 78.970 11.250 3.552 262.100 263.200 261.200 16.210 68.970 10.515 5.718 185.800 263.200 262.100 0.1220 86.700 0.158 38.500 402.60 376.30 -0.75 24.18
DSCMET_COMPS 2018-09-29 16:55:00 14.860 15.280 15.350 15.400 15.390 78.070 11.080 3.706 261.900 263.200 261.200 16.310 68.750 10.562 5.795 185.800 263.200 262.100 0.0810 78.730 0.117 318.200 402.70 379.10 -1.86 20.22
DSCMET_COMPS 2018-09-29 16:50:00 14.880 15.320 15.410 15.500 15.470 77.760 11.050 3.763 261.900 263.200 261.200 16.340 68.540 10.545 5.845 185.700 263.100 262.100 0.0160 79.720 0.083 328.100 403.10 381.80 -3.18 14.84
DSCMET_COMPS 2018-09-29 16:45:00 14.950 15.340 15.490 15.580 15.590 77.680 11.100 3.794 261.900 263.200 261.200 16.540 66.370 10.254 6.328 185.800 263.100 262.100 0.1050 86.500 0.079 87.300 404.40 381.90 -2.22 19.12
DSCMET_COMPS 2018-09-29 16:40:00 14.990 15.350 15.500 15.640 15.650 77.660 11.140 3.807 261.900 263.200 261.200 16.570 66.070 10.215 6.397 185.900 263.100 262.100 0.1330 85.100 0.323 120.700 405.60 381.60 -1.30 22.50
DSCMET_COMPS 2018-09-29 16:35:00 15.080 15.410 15.550 15.660 15.700 76.870 11.070 3.964 261.900 263.200 261.200 16.650 66.230 10.327 6.399 185.900 263.100 262.100 0.1030 85.100 0.115 74.950 408.90 382.60 0.95 41.28
DSCMET_COMPS 2018-09-29 16:30:00 15.090 15.400 15.520 15.640 15.740 76.550 11.010 4.022 261.900 263.200 261.200 16.640 67.370 10.573 6.179 185.700 263.100 262.100 0.0710 85.200 0.114 156.000 410.90 381.60 5.11 65.66
DSCMET_COMPS 2018-09-29 16:25:00 15.120 15.440 15.550 15.690 15.770 76.670 11.060 4.009 261.900 263.200 261.200 16.650 66.480 10.383 6.352 185.500 263.100 262.000 0.0050 274.500 0.266 245.100 410.40 382.30 3.76 59.43
DSCMET_COMPS 2018-09-29 16:20:00 15.230 15.560 15.650 15.850 15.890 74.770 10.790 4.366 261.900 263.200 261.200 16.660 63.390 9.682 6.942 185.400 263.100 261.800 0.0430 106.300 0.290 291.800 409.00 383.80 1.32 48.39
DSCMET_COMPS 2018-09-29 16:15:00 15.250 15.540 15.710 15.930 15.900 74.450 10.750 4.427 261.900 263.200 261.200 16.650 62.960 9.572 7.019 185.400 263.100 261.800 0.0680 50.950 0.724 40.850 409.00 384.10 0.54 44.48
DSCMET_COMPS 2018-09-29 16:10:00 15.320 15.610 15.880 15.970 15.930 73.780 10.680 4.564 261.900 263.200 261.200 16.650 62.710 9.513 7.066 185.700 262.900 261.800 0.0870 80.400 1.072 38.110 409.60 384.20 -0.44 37.28
DSCMET_COMPS 2018-09-29 16:05:00 15.380 15.680 15.970 16.000 15.950 72.260 10.420 4.847 261.900 263.200 261.200 16.640 62.740 9.510 7.056 185.600 262.900 261.800 0.0210 86.000 0.775 37.620 411.30 384.60 0.27 41.44
DSCMET_COMPS 2018-09-29 16:00:00 15.360 15.730 15.940 16.000 15.970 72.720 10.500 4.761 261.900 263.000 261.200 16.640 62.670 9.494 7.069 185.800 262.800 261.800   0.000 1.022 35.370 413.70 385.80 4.56 60.94
DSCMET_COMPS 2018-09-29 15:55:00 15.370 15.670 15.770 15.890 16.000 70.680 10.080 5.120 261.900 262.800 261.200 16.880 63.760 9.977 6.968 185.800 263.100 261.900 0.0770 88.100 0.414 39.450 416.10 385.40 8.85 88.40
DSCMET_COMPS 2018-09-29 15:50:00 15.310 15.670 15.770 15.870 15.940 70.350 9.960 5.158 261.900 262.600 261.200 16.900 64.480 10.164 6.839 185.600 263.100 262.000 0.0710 55.850 0.018 143.100 416.70 385.50 10.38 107.00
DSCMET_COMPS 2018-09-29 15:45:00 15.390 15.740 15.800 15.890 15.870 69.470 9.840 5.338 261.900 262.600 261.200 16.690 63.630 9.767 6.910 185.400 262.900 261.800 0.0210 82.400 0.101 69.570 414.00 385.20 7.15 79.99
DSCMET_COMPS 2018-09-29 15:40:00 15.380 15.760 15.840 15.880 15.880 70.310 10.010 5.188 261.900 262.600 261.200 16.740 63.510 9.786 6.954 185.500 262.800 261.800 0.1240 57.070 0.230 48.320 413.50 383.80 4.15 63.37
DSCMET_COMPS 2018-09-29 15:35:00 15.460 15.890 15.960 15.990 16.020 70.230 10.080 5.229 261.900 262.600 261.200 16.810 63.400 9.827 7.006 185.600 262.800 261.800 0.0820 120.900 0.125 95.900 414.90 383.80 3.36 57.48
DSCMET_COMPS 2018-09-29 15:30:00 15.560 15.930 15.990 16.060 16.130 69.100 9.930 5.462 261.900 262.600 261.200 16.990 61.630 9.575 7.430 185.700 262.800 261.800 0.0590 95.400 0.375 43.910 420.10 380.40 10.60 103.10
DSCMET_COMPS 2018-09-29 15:25:00 15.500 15.890 15.920 15.990 16.140 69.470 9.940 5.376 261.900 262.600 261.200 17.160 61.620 9.733 7.512 185.600 263.000 261.800 0.0170 88.500 0.126 218.500 423.00 376.00 17.28 151.20
DSCMET_COMPS 2018-09-29 15:20:00 15.400 15.730 15.800 15.850 16.080 74.460 10.900 4.468 261.900 262.700 261.200 17.230 63.480 10.243 7.180 185.700 263.100 261.900 0.0300 117.000 0.194 163.400 424.50 374.60 18.84 166.40
DSCMET_COMPS 2018-09-29 15:15:00 15.490 15.790 15.790 15.810 15.950 69.250 9.880 5.411 261.900 262.600 261.200 17.050 63.600 10.101 7.075 185.700 263.100 262.100 0.1640 121.100 0.107 182.300 425.60 380.90 22.78 195.00
DSCMET_COMPS 2018-09-29 15:10:00 15.320 15.720 15.720 15.710 15.700 70.080 9.910 5.208 261.900 262.700 261.200 16.420 63.980 9.593 6.727 185.800 263.100 262.100 0.1940 34.580 0.155 296.700 422.90 385.30 21.62 184.10
DSCMET_COMPS 2018-09-29 15:05:00 15.280 15.580 15.590 15.660 15.620 70.100 9.880 5.191 261.900 262.700 261.200 16.320 64.830 9.695 6.526 185.800 263.100 262.100 0.1890 313.700 0.748 288.200 415.20 384.40 11.31 114.30
DSCMET_COMPS 2018-09-29 15:00:00 15.170 15.580 15.610 15.680 15.630 71.140 9.990 4.975 261.900 262.700 261.200 16.390 64.620 9.713 6.594 185.800 263.100 262.100 0.1610 332.200 0.133 222.100 412.80 384.10 5.74 73.22
DSCMET_COMPS 2018-09-29 14:55:00 15.200 15.540 15.580 15.600 15.630 70.070 9.790 5.170 261.900 262.700 261.200 16.450 64.730 9.795 6.599 185.800 263.100 262.100   0.000 0.323 199.100 413.10 383.70 5.98 77.21
DSCMET_COMPS 2018-09-29 14:50:00 15.200 15.550 15.580 15.580 15.540 70.000 9.770 5.182 261.900 262.900 261.200 16.340 65.060 9.767 6.492 185.700 263.100 262.100   0.000 0.272 187.200 413.20 384.30 7.04 81.00
DSCMET_COMPS 2018-09-29 14:45:00 15.240 15.560 15.550 15.550 15.500 70.950 10.020 5.031 261.900 263.000 261.200 16.290 65.600 9.842 6.371 185.500 263.100 262.100 0.1570 53.430 0.336 168.700 412.90 383.90 7.38 81.00
DSCMET_COMPS 2018-09-29 14:40:00 15.180 15.550 15.540 15.530 15.440 71.940 10.170 4.840 261.900 263.200 261.200 16.220 65.440 9.739 6.372 185.500 263.100 262.100 0.2390 32.470 0.831 195.200 412.40 384.00 5.05 68.62
DSCMET_COMPS 2018-09-29 14:35:00 15.140 15.430 15.450 15.490 15.440 70.820 9.890 5.021 261.900 263.200 261.200 16.250 65.570 9.797 6.360 185.500 263.100 262.100 0.0820 86.800 0.824 166.300 413.40 384.10 6.78 77.81
DSCMET_COMPS 2018-09-29 14:30:00 15.130 15.360 15.350 15.410 15.440 71.450 10.010 4.909 261.900 263.200 261.200 16.260 67.300 10.196 6.045 185.600 263.100 262.100 0.0200 52.300 0.327 96.500 413.50 383.90 6.51 78.36
DSCMET_COMPS 2018-09-29 14:25:00 15.110 15.410 15.360 15.410 15.410 71.170 9.940 4.951 261.900 263.200 261.200 16.160 67.840 10.220 5.907 185.500 263.100 262.100 0.0810 326.400 0.182 250.700 412.60 383.10 6.43 76.41
DSCMET_COMPS 2018-09-29 14:20:00 15.160 15.360 15.320 15.420 15.430 70.660 9.880 5.055 261.900 263.200 261.200 16.090 66.900 9.945 6.053 185.600 263.100 262.100 0.2740 320.000 0.466 239.300 413.00 383.50 5.01 70.07
DSCMET_COMPS 2018-09-29 14:15:00 15.140 15.360 15.330 15.410 15.400 70.990 9.930 4.992 261.900 263.200 261.200 16.120 67.190 10.038 6.011 185.500 263.100 262.100 0.1790 306.500 0.525 226.900 413.60 383.50 5.08 73.24
DSCMET_COMPS 2018-09-29 14:10:00 15.160 15.390 15.380 15.420 15.380 71.090 9.970 4.981 261.900 263.200 261.200 16.050 67.600 10.062 5.910 185.500 263.100 262.100 0.2150 332.000 0.454 248.400 415.10 383.40 6.47 83.00
DSCMET_COMPS 2018-09-29 14:05:00 15.160 15.400 15.410 15.460 15.400 71.360 10.020 4.934 261.900 263.200 261.200 16.080 67.360 10.037 5.965 185.500 263.100 262.200 0.1940 305.300 0.582 225.100 415.80 383.30 6.85 83.90
DSCMET_COMPS 2018-09-29 14:00:00 15.160 15.420 15.410 15.460 15.380 70.690 9.880 5.050 261.900 263.200 261.200 16.060 67.800 10.116 5.877 185.500 263.100 262.200 0.1610 29.220 0.335 260.000 418.10 383.40 8.52 95.90
DSCMET_COMPS 2018-09-29 13:55:00 15.140 15.400 15.430 15.480 15.410 71.120 9.960 4.969 261.900 263.200 261.200 16.160 67.160 10.069 6.032 185.400 263.100 262.200 0.0630 74.320 0.768 191.300 421.50 384.00 11.21 113.40
DSCMET_COMPS 2018-09-29 13:50:00 15.110 15.320 15.400 15.400 15.370 70.490 9.800 5.068 261.900 263.200 261.200 16.080 67.840 10.143 5.877 185.500 263.200 262.200 0.2290 26.490 0.666 183.900 428.00 384.60 24.75 203.20
DSCMET_COMPS 2018-09-29 13:45:00 15.090 15.270 15.280 15.370 15.340 69.930 9.660 5.157 261.900 263.200 261.200 16.070 67.610 10.083 5.915 185.500 263.200 262.200   0.000 0.784 204.500 424.80 384.30 22.64 188.30
DSCMET_COMPS 2018-09-29 13:40:00 15.090 15.330 15.350 15.370 15.200 69.990 9.670 5.147 261.900 263.200 261.200 15.920 67.580 9.934 5.864 185.500 263.200 262.200 0.1500 57.950 0.918 203.900 421.10 382.70 17.79 151.40
DSCMET_COMPS 2018-09-29 13:35:00 15.050 15.310 15.330 15.390 15.240 69.300 9.480 5.252 261.900 263.200 261.200 15.990 67.160 9.907 5.967 185.700 263.100 262.200 0.1950 293.500 0.675 198.400 421.90 382.90 17.94 154.50
DSCMET_COMPS 2018-09-29 13:30:00 14.950 15.240 15.270 15.300 15.180 70.310 9.610 5.046 261.900 263.200 261.200 15.850 67.410 9.829 5.869 185.600 263.200 262.200 0.1270 41.590 1.160 191.800 422.00 382.70 19.99 172.10
DSCMET_COMPS 2018-09-29 13:25:00 14.890 15.150 15.140 15.170 15.140 69.220 9.320 5.212 261.900 263.200 261.200 15.840 67.220 9.778 5.899 185.500 263.200 262.200 0.1250 84.900 0.809 170.600 423.10 382.80 19.63 171.90
DSCMET_COMPS 2018-09-29 13:20:00 14.820 15.070 15.080 15.060 14.910 69.530 9.310 5.136 261.900 263.200 261.200 15.740 67.220 9.682 5.862 185.500 263.200 262.200 0.1590 98.600 0.888 179.000 424.60 383.00 20.02 175.10
DSCMET_COMPS 2018-09-29 13:15:00 14.800 15.040 15.120 15.180 15.000 71.630 9.740 4.776 261.900 263.200 261.200 15.740 67.490 9.742 5.813 185.500 263.200 262.200 0.3660 156.400 0.925 172.100 425.90 383.10 22.10 190.10
DSCMET_COMPS 2018-09-29 13:10:00 14.750 14.970 15.020 15.120 15.030 71.430 9.640 4.794 261.900 263.200 261.200 15.770 68.130 9.911 5.710 185.600 263.200 262.200 0.1370 208.100 0.596 194.500 428.00 383.10 25.48 218.10
DSCMET_COMPS 2018-09-29 13:05:00 14.600 14.890 14.930 15.070 14.800 71.910 9.600 4.668 261.900 263.200 261.200 15.560 69.130 9.928 5.457 185.600 263.200 262.200 0.1970 159.500 1.148 191.500 429.80 382.30 29.77 238.50
DSCMET_COMPS 2018-09-29 13:00:00 14.580 14.850 14.880 15.100 14.810 72.630 9.730 4.542 261.900 263.200 261.200 15.540 69.510 9.991 5.383 185.700 263.200 262.200 0.3720 129.700 0.762 194.900 431.10 380.20 30.39 240.10
DSCMET_COMPS 2018-09-29 12:55:00 14.630 14.820 14.800 14.980 15.180 72.320 9.720 4.609 261.900 263.200 261.200 15.730 69.220 10.110 5.500 185.700 263.200 262.200 0.3090 159.300 0.810 197.600 433.20 380.90 39.02 296.80
DSCMET_COMPS 2018-09-29 12:50:00 14.550 14.680 14.680 14.800 14.910 72.340 9.640 4.582 261.900 263.200 261.200 15.410 70.600 10.099 5.147 185.800 263.200 262.200 0.3480 313.500 0.515 261.600 431.20 379.00 39.19 297.50
DSCMET_COMPS 2018-09-29 12:45:00 14.340 14.540 14.610 14.760 14.860 72.780 9.530 4.448 261.900 263.200 261.400 15.340 71.320 10.183 4.999 185.700 263.400 262.200 0.1480 263.900 0.502 232.800 426.80 377.40 34.57 266.50
DSCMET_COMPS 2018-09-29 12:40:00 14.150 14.360 14.380 14.490 14.530 74.170 9.630 4.169 261.900 263.200 261.700 15.180 71.520 10.071 4.913 185.700 263.500 262.400 0.1210 242.300 0.534 228.400 423.60 379.90 34.85 264.80
DSCMET_COMPS 2018-09-29 12:35:00 14.070 14.210 14.250 14.360 14.280 73.960 9.520 4.181 261.900 263.200 261.800 14.930 72.550 10.045 4.660 185.600 263.500 262.500   0.000 0.692 213.700 416.30 379.30 26.40 214.20
DSCMET_COMPS 2018-09-29 12:30:00 14.060 14.160 14.150 14.260 14.170 73.810 9.470 4.203 261.900 263.200 261.900 14.720 73.640 10.065 4.414 185.500 263.500 262.400 0.2270 262.100 0.949 222.300 410.90 378.00 16.28 144.00
DSCMET_COMPS 2018-09-29 12:25:00 14.030 14.160 14.130 14.290 14.260 74.900 9.660 4.020 261.900 263.200 261.900 14.690 73.570 10.022 4.418 185.500 263.500 262.500 0.3220 304.600 0.618 234.700 410.00 377.80 14.37 131.60
DSCMET_COMPS 2018-09-29 12:20:00 13.990 14.110 14.080 14.200 14.250 74.120 9.470 4.134 261.900 263.200 261.900 14.720 73.810 10.100 4.386 185.400 263.500 262.500 0.4550 326.300 0.621 238.900 409.70 377.60 14.60 130.90
DSCMET_COMPS 2018-09-29 12:15:00 13.920 14.090 14.070 14.100 14.030 74.590 9.490 4.041 261.900 263.200 261.900 14.610 74.140 10.060 4.300 185.500 263.500 262.500 0.4750 318.200 0.944 236.300 408.70 377.80 12.47 117.00
DSCMET_COMPS 2018-09-29 12:10:00 13.870 14.030 14.010 14.140 14.050 75.490 9.620 3.885 261.900 263.200 261.900 14.610 74.290 10.090 4.275 185.500 263.500 262.500 0.3670 323.300 0.712 243.300 407.80 377.20 11.79 110.20
DSCMET_COMPS 2018-09-29 12:05:00 13.860 14.020 14.000 14.100 13.980 75.280 9.580 3.916 261.900 263.200 261.900 14.540 74.750 10.115 4.180 185.500 263.500 262.500 0.2950 323.000 0.579 252.100 407.20 377.30 11.14 106.30
DSCMET_COMPS 2018-09-29 12:00:00 13.920 14.030 14.000 14.090 14.050 75.190 9.610 3.945 261.900 263.200 261.900 14.620 74.780 10.198 4.196 185.500 263.500 262.500 0.4160 325.400 0.650 248.500 406.40 377.20 8.40 88.60
DSCMET_COMPS 2018-09-29 11:55:00 13.840 13.960 13.920 14.020 14.110 76.140 9.730 3.775 261.900 263.200 261.900 14.700 74.670 10.253 4.237 185.600 263.500 262.500 0.3200 324.800 0.731 247.500 408.20 377.40 11.95 112.80
DSCMET_COMPS 2018-09-29 11:50:00 13.800 13.890 13.860 13.990 14.000 75.530 9.560 3.861 261.900 263.200 261.900 14.530 75.520 10.259 4.050 185.600 263.500 262.500 0.3730 320.000 0.629 259.800 407.70 377.00 13.03 120.50
DSCMET_COMPS 2018-09-29 11:45:00 13.860 13.950 13.910 13.990 13.930 75.400 9.600 3.897 261.900 263.200 261.900 14.400 75.890 10.206 3.955 185.600 263.500 262.500 0.4780 321.200 0.753 253.700 407.20 376.90 12.53 117.10
DSCMET_COMPS 2018-09-29 11:40:00 13.810 13.950 13.940 14.090 13.870 75.740 9.620 3.830 261.900 263.200 261.900 14.390 75.880 10.194 3.954 185.600 263.500 262.500 0.4430 319.900 1.053 241.800 406.70 376.60 12.70 117.10
DSCMET_COMPS 2018-09-29 11:35:00 13.790 13.900 13.840 13.990 13.970 75.470 9.540 3.868 261.900 263.200 261.900 14.400 75.680 10.165 3.990 185.800 263.500 262.500 0.4500 321.400 0.943 246.200 407.30 376.60 13.25 121.70
DSCMET_COMPS 2018-09-29 11:30:00 13.730 13.850 13.800 13.910 13.890 75.370 9.470 3.869 261.900 263.200 261.900 14.380 75.610 10.131 3.996 185.600 263.500 262.500 0.5440 322.700 1.145 248.500 407.00 376.40 14.24 128.80
DSCMET_COMPS 2018-09-29 11:25:00 13.730 13.820 13.780 13.880 13.790 75.270 9.440 3.884 261.900 263.200 261.900 14.350 75.500 10.081 4.006 185.500 263.500 262.500   0.000 1.002 246.500 406.40 376.60 13.57 125.40
DSCMET_COMPS 2018-09-29 11:20:00 13.710 13.830 13.800 13.840 13.760 75.930 9.560 3.776 261.900 263.200 261.900 14.420 75.040 10.057 4.100 185.400 263.500 262.500 0.4400 329.200 0.846 246.200 405.90 376.40 13.22 122.00
DSCMET_COMPS 2018-09-29 11:15:00 13.660 13.810 13.770 13.890 13.780 76.080 9.540 3.740 261.900 263.200 261.900 14.390 74.940 10.008 4.108 185.400 263.400 262.500 0.3190 329.000 1.056 210.000 405.70 376.20 13.11 121.20
DSCMET_COMPS 2018-09-29 11:10:00 13.670 13.790 13.790 13.880 13.750 76.360 9.600 3.699 261.900 263.200 261.900 14.300 75.550 10.042 3.985 185.500 263.500 262.500 0.3560 324.800 1.171 228.300 405.30 376.30 12.38 116.80
DSCMET_COMPS 2018-09-29 11:05:00 13.670 13.770 13.770 13.850 13.800 77.400 9.800 3.536 262.000 263.200 261.900 14.310 75.310 10.004 4.027 185.500 263.500 262.500 0.2940 290.000 0.694 243.600 405.10 375.80 12.64 116.30
DSCMET_COMPS 2018-09-29 11:00:00 13.560 13.670 13.670 13.780 13.840 77.390 9.690 3.512 261.900 263.200 261.900 14.430 74.380 9.935 4.211 185.600 263.500 262.500 0.2360 295.300 0.477 254.000 405.10 376.40 13.48 123.00
DSCMET_COMPS 2018-09-29 10:55:00 13.490 13.590 13.550 13.640 13.700 76.910 9.530 3.570 261.900 263.200 261.900 14.510 74.620 10.060 4.193 185.600 263.500 262.500 0.2180 271.700 0.325 214.400 403.60 375.80 12.93 117.60
DSCMET_COMPS 2018-09-29 10:50:00 13.410 13.570 13.520 13.520 13.510 77.490 9.570 3.463 261.900 263.200 261.900 14.360 75.410 10.072 4.023 185.600 263.500 262.500 0.1880 316.700 0.226 248.700 402.30 376.00 10.85 102.40
DSCMET_COMPS 2018-09-29 10:45:00 13.340 13.490 13.430 13.430 13.480 76.970 9.400 3.527 261.900 263.200 261.900 14.220 75.950 10.044 3.900 185.500 263.500 262.500 0.1850 312.500 0.242 268.800 400.40 375.20 9.70 90.90
DSCMET_COMPS 2018-09-29 10:40:00 13.270 13.470 13.390 13.400 13.420 78.330 9.590 3.303 261.900 263.200 261.900 14.170 75.950 9.995 3.887 185.600 263.500 262.500 0.1330 317.400 0.213 327.900 398.50 375.00 7.81 76.93
DSCMET_COMPS 2018-09-29 10:35:00 13.310 13.470 13.380 13.410 13.370 76.830 9.340 3.541 261.900 263.200 261.900 14.070 76.260 9.959 3.812 185.500 263.500 262.500 0.2810 338.700 0.394 266.800 397.40 374.90 6.55 69.72
DSCMET_COMPS 2018-09-29 10:30:00 13.210 13.420 13.330 13.350 13.330 77.150 9.310 3.469 261.900 263.200 261.900 14.030 75.860 9.842 3.866 185.500 263.500 262.500 0.2500 315.000 0.591 222.000 396.50 374.80 5.41 60.84
DSCMET_COMPS 2018-09-29 10:25:00 13.120 13.350 13.260 13.300 13.290 77.710 9.330 3.365 261.900 263.200 261.900 13.970 75.930 9.798 3.840 185.700 263.500 262.500 0.2740 300.800 0.859 223.300 395.80 374.80 4.59 54.63
DSCMET_COMPS 2018-09-29 10:20:00 13.080 13.290 13.200 13.230 13.180 77.810 9.310 3.341 261.900 263.200 261.900 13.940 76.360 9.853 3.764 185.900 263.500 262.500   0.000 0.516 239.200 395.20 374.60 4.24 51.25
DSCMET_COMPS 2018-09-29 10:15:00 13.050 13.250 13.160 13.180 13.140 77.750 9.270 3.343 261.900 263.200 261.900 13.850 76.570 9.807 3.709 185.900 263.500 262.500   0.000 0.577 203.700 394.90 374.60 3.57 44.50
DSCMET_COMPS 2018-09-29 10:10:00 13.050 13.210 13.140 13.160 13.090 77.600 9.240 3.366 261.900 263.200 261.900 13.800 76.660 9.776 3.683 185.800 263.500 262.500 0.2940 351.100 1.100 187.500 394.70 374.40 3.49 42.43
DSCMET_COMPS 2018-09-29 10:05:00 13.020 13.200 13.100 13.120 13.050 77.640 9.210 3.353 261.900 263.200 261.900 13.780 76.780 9.780 3.659 185.800 263.500 262.500 0.2110 3.725 1.094 188.000 394.60 374.50 2.97 41.89
DSCMET_COMPS 2018-09-29 10:00:00 13.010 13.160 13.050 13.070 13.060 77.380 9.160 3.390 261.900 263.200 261.900 13.730 76.860 9.747 3.635 185.900 263.500 262.500 0.2740 326.800 0.797 218.900 395.60 374.80 3.46 45.60
DSCMET_COMPS 2018-09-29 09:55:00 13.030 13.140 13.050 13.060 13.020 76.760 9.060 3.487 261.900 263.200 261.900 13.790 76.810 9.796 3.657 185.800 263.500 262.500 0.3550 336.000 0.489 251.600 396.40 374.60 4.20 51.93
DSCMET_COMPS 2018-09-29 09:50:00 13.000 13.160 13.080 13.090 12.940 76.520 8.990 3.516 261.900 263.200 261.900 13.710 76.850 9.726 3.631 185.600 263.500 262.500 0.4290 359.900 0.737 189.500 397.70 375.00 5.49 62.93
DSCMET_COMPS 2018-09-29 09:45:00 12.990 13.130 13.060 13.120 12.980 75.950 8.860 3.599 261.900 263.200 261.900 13.680 76.240 9.578 3.720 185.600 263.500 262.500 0.3820 344.000 5.058 191.200 398.90 375.20 6.14 68.16
DSCMET_COMPS 2018-09-29 09:40:00 13.020 13.140 13.060 13.110 13.050 75.900 8.880 3.614 261.900 263.200 261.900 13.690 75.600 9.462 3.822 185.800 263.500 262.500 0.5350 345.800 0.975 203.100 400.40 375.30 7.25 74.94
DSCMET_COMPS 2018-09-29 09:35:00 13.050 13.130 13.060 13.150 13.110 76.120 8.960 3.588 261.900 263.200 261.900 13.750 75.370 9.475 3.874 185.900 263.300 262.400 0.5080 330.500 1.287 220.800 401.70 375.10 8.91 89.30
DSCMET_COMPS 2018-09-29 09:30:00 13.100 13.170 13.120 13.240 13.220 75.720 8.930 3.660 261.900 263.200 261.900 13.780 75.510 9.532 3.859 186.100 263.200 262.200 0.5690 317.400 1.034 232.900 403.60 375.60 10.49 102.30
DSCMET_COMPS 2018-09-29 09:25:00 13.160 13.200 13.190 13.340 13.370 76.070 9.050 3.622 261.900 263.200 261.900 13.910 75.180 9.592 3.944 185.900 263.200 262.200 0.5320 310.900 1.050 235.400 407.40 375.80 14.84 131.00
DSCMET_COMPS 2018-09-29 09:20:00 13.160 13.200 13.240 13.390 13.460 76.310 9.100 3.585 261.900 263.200 261.900 13.870 75.540 9.625 3.877 186.000 263.200 262.200 0.5540 331.500 0.839 256.000 411.40 374.00 21.11 173.80
DSCMET_COMPS 2018-09-29 09:15:00 12.970 13.070 13.030 13.240 13.480 76.840 9.010 3.462 261.900 263.200 261.900 14.000 75.080 9.659 3.983 186.200 263.200 262.300 0.4010 318.100 0.826 252.200 416.80 370.00 33.68 252.30
DSCMET_COMPS 2018-09-29 09:10:00 12.890 12.990 13.000 13.090 13.100 77.580 9.080 3.334 262.500 263.200 261.900 13.800 76.430 9.731 3.719 186.300 263.200 262.600   0.000 0.571 233.700 416.50 359.90 41.47 305.10
DSCMET_COMPS 2018-09-29 09:05:00 12.710 12.840 12.830 12.970 13.010 78.200 9.020 3.203 262.500 263.200 261.900 13.540 77.400 9.667 3.506 186.000 263.400 262.600 0.4890 315.400 0.980 232.800 413.00 361.60 42.49 304.10
DSCMET_COMPS 2018-09-29 09:00:00 12.550 12.680 12.660 12.780 12.760 79.110 9.040 3.038 262.600 263.200 261.900 13.300 78.570 9.658 3.273 186.000 263.600 262.600 0.4230 312.200 0.954 246.100 406.30 360.90 31.14 232.90
DSCMET_COMPS 2018-09-29 08:55:00 12.390 12.530 12.480 12.600 12.520 79.750 9.000 2.914 262.600 263.200 261.900 13.170 79.130 9.637 3.161 185.900 263.500 262.600 0.2750 305.400 1.126 222.400 401.10 363.50 21.18 169.70
DSCMET_COMPS 2018-09-29 08:50:00 12.290 12.380 12.380 12.500 12.350 79.620 8.880 2.913 262.600 263.200 261.900 12.990 80.100 9.643 2.978 186.000 263.600 262.700 0.2720 307.000 0.864 222.800 397.40 369.10 14.48 126.10
DSCMET_COMPS 2018-09-29 08:45:00 12.280 12.370 12.360 12.470 12.410 79.670 8.880 2.904 262.600 263.200 261.900 12.960 80.200 9.633 2.958 185.900 263.600 262.600 0.4560 323.800 1.047 225.400 396.10 371.50 12.02 104.80
DSCMET_COMPS 2018-09-29 08:40:00 12.320 12.390 12.360 12.440 12.310 80.500 9.060 2.793 262.600 263.200 261.900 12.890 81.000 9.712 2.825 186.000 263.600 262.700 0.3120 311.100 0.639 242.000 395.50 371.10 12.28 107.00
DSCMET_COMPS 2018-09-29 08:35:00 12.330 12.390 12.330 12.500 12.440 80.800 9.130 2.752 262.600 263.400 261.900 12.900 80.900 9.704 2.842 186.200 263.600 262.700 0.3220 298.600 0.988 227.400 394.70 370.80 11.51 102.10
DSCMET_COMPS 2018-09-29 08:30:00 12.200 12.360 12.310 12.400 12.280 81.000 9.050 2.700 262.600 263.600 261.900 12.770 81.700 9.723 2.700 186.200 263.600 262.600 0.3300 304.000 0.992 234.300 395.60 369.80 13.66 117.20
DSCMET_COMPS 2018-09-29 08:25:00 12.050 12.220 12.200 12.300 12.140 80.900 8.880 2.688 262.600 263.600 261.900 12.730 81.900 9.721 2.663 186.000 263.600 262.600 0.3190 243.800 1.126 223.400 395.70 366.40 15.19 126.80
DSCMET_COMPS 2018-09-29 08:20:00 11.970 12.150 12.130 12.210 12.210 81.400 8.910 2.603 262.600 263.900 261.900 12.830 81.400 9.727 2.755 186.200 263.600 262.800 0.3720 228.300 0.698 249.100 394.70 363.50 17.03 137.40
DSCMET_COMPS 2018-09-29 08:15:00 11.970 12.070 12.030 12.080 12.050 82.700 9.120 2.421 262.600 263.900 261.900 12.750 81.900 9.740 2.667 186.200 263.600 262.900 0.1700 222.400 0.561 225.000 391.30 366.10 11.99 106.60
DSCMET_COMPS 2018-09-29 08:10:00 11.940 12.020 11.970 12.010 11.940 83.100 9.180 2.361 262.600 263.900 261.900 12.600 82.600 9.720 2.538 186.200 263.600 262.900 0.2270 230.300 0.364 245.400 389.40 367.20 8.32 83.20
DSCMET_COMPS 2018-09-29 08:05:00 11.820 11.920 11.850 11.860 11.840 83.100 9.050 2.342 262.600 263.900 261.900 12.590 82.800 9.747 2.508 185.900 263.700 262.900 0.2350 228.400 0.353 234.600 388.80 368.40 7.89 77.26
DSCMET_COMPS 2018-09-29 08:00:00 11.720 11.810 11.660 11.670 11.700 82.800 8.900 2.368 262.600 263.900 261.900 12.480 83.400 9.747 2.403 185.900 263.900 262.900   0.000 0.134 123.000 387.00 369.90 5.85 62.37
DSCMET_COMPS 2018-09-29 07:55:00 11.710 11.770 11.650 11.600 11.540 82.900 8.920 2.353 262.600 263.900 261.900 12.350 84.200 9.762 2.268 185.900 263.900 262.900 0.1190 305.900 0.157 290.200 385.40 370.20 4.95 53.73
DSCMET_COMPS 2018-09-29 07:50:00 11.700 11.780 11.670 11.610 11.530 83.500 9.010 2.269 262.600 263.900 261.900 12.240 84.600 9.724 2.194 185.900 263.800 262.900 0.2010 7.272 0.499 23.570 383.90 370.00 2.92 39.60
DSCMET_COMPS 2018-09-29 07:45:00 11.700 11.790 11.680 11.690 11.580 83.300 8.970 2.296 262.600 263.900 261.900 12.280 84.500 9.746 2.214 185.900 263.900 262.900 0.1600 42.310 0.249 308.000 383.40 369.90 2.35 36.38
DSCMET_COMPS 2018-09-29 07:40:00 11.690 11.740 11.620 11.610 11.550 83.200 8.950 2.308 262.600 263.900 261.900 12.240 84.900 9.777 2.151 186.000 263.900 262.900 0.1440 16.140 0.349 238.900 382.70 369.50 2.59 36.13
DSCMET_COMPS 2018-09-29 07:35:00 11.640 11.730 11.620 11.580 11.460 83.200 8.910 2.301 262.600 263.900 261.900 12.150 85.100 9.724 2.110 186.000 263.900 262.900 0.2480 16.270 0.513 198.600 382.20 369.20 2.39 33.48
DSCMET_COMPS 2018-09-29 07:30:00 11.640 11.700 11.560 11.520 11.440 83.200 8.890 2.301 262.600 263.900 261.900 12.150 85.100 9.724 2.110 186.000 263.900 262.900 0.1620 331.700 0.629 235.900 381.50 369.00 2.62 32.91
DSCMET_COMPS 2018-09-29 07:25:00 11.600 11.650 11.530 11.460 11.370 83.200 8.850 2.295 262.600 263.900 261.900 12.100 85.100 9.675 2.103 185.900 263.600 262.900 0.2470 83.700 0.793 172.900 380.80 368.60 2.59 32.85
DSCMET_COMPS 2018-09-29 07:20:00 11.620 11.710 11.560 11.480 11.400 83.100 8.860 2.311 262.600 263.900 261.900 12.080 85.100 9.655 2.101 185.900 263.700 262.900 0.3160 48.460 0.970 195.400 379.80 368.50 2.13 29.17
DSCMET_COMPS 2018-09-29 07:15:00 11.560 11.680 11.560 11.520 11.440 83.200 8.820 2.289 262.600 263.900 261.900 12.120 85.100 9.694 2.106 185.900 263.800 262.900 0.2070 302.100 0.655 209.800 379.60 368.40 1.76 26.23
DSCMET_COMPS 2018-09-29 07:10:00 11.500 11.650 11.550 11.510 11.370 83.100 8.740 2.293 262.600 263.900 261.900 12.060 85.100 9.636 2.098 185.900 263.800 262.900 0.1870 91.300 0.813 162.000 379.00 368.20 1.67 25.01
DSCMET_COMPS 2018-09-29 07:05:00 11.470 11.640 11.550 11.510 11.370 83.100 8.700 2.289 262.600 263.800 261.900 12.060 84.900 9.601 2.126 185.900 263.700 262.900 0.3030 11.910 0.931 199.700 379.00 368.20 1.73 25.40
DSCMET_COMPS 2018-09-29 07:00:00 11.080 11.660 11.550 11.500 11.370 83.400 8.380 2.191 262.600 263.700 261.900 12.100 84.600 9.587 2.174 185.900 263.600 262.900 0.1900 34.030 1.211 193.700 378.60 367.60 2.49 29.43
DSCMET_COMPS 2018-09-29 06:55:00 10.940 11.600 11.510 11.490 11.390 83.300 8.230 2.183 262.600 263.700 261.900 12.050 84.400 9.503 2.195 185.900 263.400 262.900   0.000 1.050 212.700 378.70 366.80 3.81 37.68
DSCMET_COMPS 2018-09-29 06:50:00 10.840 11.540 11.460 11.430 11.360 82.900 8.070 2.221 262.400 263.700 261.900 12.010 84.700 9.517 2.147 185.900 263.600 262.900   0.000 0.631 216.300 377.10 364.70 4.29 39.18
DSCMET_COMPS 2018-09-29 06:45:00 10.990 11.470 11.370 11.330 11.290 83.500 8.320 2.164 262.600 263.900 261.900 11.980 84.500 9.452 2.171 185.800 263.600 263.000 0.2240 316.900 0.888 206.500 374.80 359.80 4.87 41.42
DSCMET_COMPS 2018-09-29 06:40:00 10.560 11.300 11.340 11.280 11.220 84.100 7.991 2.027 262.600 263.600 261.900 11.930 84.600 9.421 2.150 185.800 263.500 263.000 0.3560 23.350 1.041 206.700 373.00 351.70 3.93 32.64
DSCMET_COMPS 2018-09-29 06:35:00 10.340 11.240 11.320 11.270 11.170 83.700 7.708 2.047 262.600 263.600 261.900 11.880 84.700 9.389 2.129 185.900 263.600 263.000 0.1830 75.840 0.565 203.000 370.80 352.10 2.08 21.50
DSCMET_COMPS 2018-09-29 06:30:00 10.200 11.170 11.270 11.230 11.140 83.800 7.583 2.016 262.300 263.500 261.900 11.830 84.700 9.340 2.122 185.500 263.600 263.000 0.3850 56.130 0.932 184.000 369.00 349.40 1.75 18.69
DSCMET_COMPS 2018-09-29 06:25:00 10.320 11.080 11.170 11.140 11.060 83.400 7.636 2.082 262.300 263.600 261.900 11.750 84.700 9.262 2.111 185.500 263.600 263.000 0.3470 192.800 0.991 197.900 366.70 347.20 1.51 18.45
DSCMET_COMPS 2018-09-29 06:20:00 10.260 10.980 11.080 11.070 10.990 84.200 7.730 1.974 262.500 263.700 261.900 11.710 84.600 9.205 2.119 185.400 263.600 263.000 0.2820 315.800 0.548 288.900 364.40 343.20 0.78 13.05
DSCMET_COMPS 2018-09-29 06:15:00 9.910 10.740 11.040 11.080 10.990 83.900 7.326 1.965 262.100 263.400 261.900 11.730 84.300 9.172 2.163 185.500 263.500 263.000 0.3470 352.100 0.887 198.200 362.60 338.10 0.10 6.93
DSCMET_COMPS 2018-09-29 06:10:00 9.870 10.750 10.890 10.970 11.020 84.200 7.329 1.923 262.400 263.800 261.900 11.780 83.800 9.133 2.239 185.700 263.300 263.000 0.4760 319.700 1.515 212.400 361.40 334.60 -0.84 1.29
DSCMET_COMPS 2018-09-29 06:05:00 9.500 10.150 10.390 10.660 10.850 84.600 7.041 1.828 262.000 263.300 261.900 11.690 83.700 9.027 2.240 185.800 263.300 263.000 0.2250 243.300 0.899 249.200 363.40 336.60 -0.34 -0.54
DSCMET_COMPS 2018-09-29 06:00:00 9.370 9.740 10.070 10.520 10.810 85.000 6.982 1.765 262.000 263.300 261.900 11.670 83.800 9.025 2.223 185.800 263.500 263.000 0.4790 66.500 1.249 196.100 359.80 337.60 -1.51 -2.13
DSCMET_COMPS 2018-09-29 05:55:00 9.420 9.790 10.000 10.290 10.560 84.800 7.002 1.795 262.000 263.400 261.900 11.620 84.200 9.047 2.161 186.000 263.300 263.000 0.2760 318.100 0.876 236.000 359.20 338.90 -1.70 -2.86
DSCMET_COMPS 2018-09-29 05:50:00 9.360 9.600 9.560 9.720 9.990 85.100 6.986 1.753 262.000 263.300 261.900 11.320 85.200 8.927 1.984 185.700 263.300 263.000 0.3000 116.300 0.543 244.900 358.10 338.60 -2.14 -3.50
DSCMET_COMPS 2018-09-29 05:45:00 9.170 9.370 9.320 9.590 10.080 85.500 6.861 1.684 261.900 263.300 261.900 11.260 85.100 8.851 1.990 185.700 263.300 263.000   0.000 3.374 267.900 357.10 337.50 -2.37 -3.91
DSCMET_COMPS 2018-09-29 05:40:00 9.060 9.210 9.230 9.400 9.920 85.700 6.791 1.648 261.900 263.300 261.900 11.100 85.700 8.798 1.890 185.600 263.300 263.000 0.1590 68.590 0.387 197.200 356.30 334.50 -2.45 -4.14
DSCMET_COMPS 2018-09-29 05:35:00 9.110 9.220 9.230 9.530 9.930 86.000 6.902 1.619 261.900 263.300 261.900 11.100 85.700 8.798 1.890 185.600 263.300 263.000 0.1500 94.800 0.295 245.200 356.30 333.20 -2.64 -4.35
DSCMET_COMPS 2018-09-29 05:30:00 9.160 9.260 9.200 9.380 9.710 85.000 6.782 1.741 261.900 263.300 261.900 10.930 86.200 8.717 1.803 185.400 263.300 262.900 0.1120 86.200 0.275 278.700 356.10 333.30 -2.73 -4.48
DSCMET_COMPS 2018-09-29 05:25:00 9.130 9.220 9.180 9.250 9.510 85.500 6.828 1.679 261.900 263.300 261.900 10.830 85.900 8.567 1.830 185.300 263.300 262.700 0.1010 39.290 0.233 251.500 355.10 330.10 -2.91 -4.97
DSCMET_COMPS 2018-09-29 05:20:00 9.130 9.240 9.190 9.270 9.530 85.500 6.831 1.679 261.900 263.300 261.800 10.890 85.600 8.575 1.876 185.200 263.100 262.600 0.1560 84.800 0.160 230.800 353.30 324.20 -3.12 -5.48
DSCMET_COMPS 2018-09-29 05:15:00 9.150 9.300 9.240 9.280 9.520 85.400 6.843 1.693 261.900 263.300 261.700 10.820 84.800 8.368 1.971 185.300 263.000 262.600 0.1160 85.700 0.139 284.300 353.70 324.30 -3.22 -5.41
DSCMET_COMPS 2018-09-29 05:10:00 9.160 9.300 9.270 9.340 9.470 85.200 6.814 1.717 261.900 263.300 261.600 10.880 84.200 8.322 2.057 185.200 263.000 262.600 0.0430 88.900 1.276 301.400 354.30 329.50 -3.08 -5.14
DSCMET_COMPS 2018-09-29 05:05:00 9.140 9.280 9.230 9.290 9.490 85.700 6.873 1.657 261.900 263.300 261.300 10.790 83.500 8.111 2.136 185.000 263.000 262.600 0.1470 98.600 0.140 42.410 354.30 331.30 -3.16 -5.19
DSCMET_COMPS 2018-09-29 05:00:00 9.190 9.300 9.270 9.380 9.530 84.600 6.739 1.791 261.900 263.300 261.300 10.740 82.800 7.938 2.219 184.900 263.000 262.400 0.1300 82.200 0.424 34.260 353.30 325.90 -3.26 -5.55
DSCMET_COMPS 2018-09-29 04:55:00 9.210 9.320 9.300 9.400 9.480 84.800 6.795 1.770 261.900 263.300 261.300 10.610 82.400 7.740 2.251 185.000 263.000 262.300 0.0990 83.800 0.378 41.020 353.10 322.80 -3.02 -5.71
DSCMET_COMPS 2018-09-29 04:50:00 9.330 9.350 9.320 9.390 9.520 85.100 6.957 1.749 261.900 263.300 261.300 10.780 82.200 7.871 2.303 185.000 263.000 262.300 0.1650 99.500 0.132 48.640 353.90 323.60 -2.93 -5.52
DSCMET_COMPS 2018-09-29 04:45:00 9.350 9.410 9.350 9.410 9.560 84.900 6.947 1.775 261.900 263.300 261.300 10.830 81.900 7.866 2.349 184.900 263.000 262.300 0.1660 85.500 0.170 50.620 354.90 326.90 -3.13 -5.24
DSCMET_COMPS 2018-09-29 04:40:00 9.230 9.400 9.360 9.450 9.520 85.300 6.892 1.714 261.900 263.300 261.200 10.680 81.600 7.666 2.364 184.800 263.000 262.300   0.000 0.197 41.230 356.40 332.30 -2.96 -5.02
DSCMET_COMPS 2018-09-29 04:35:00 9.250 9.380 9.380 9.450 9.520 85.200 6.898 1.728 261.900 263.300 261.200 10.730 81.100 7.625 2.437 184.700 263.000 262.300   0.000 0.379 39.150 356.70 335.50 -3.13 -4.81
DSCMET_COMPS 2018-09-29 04:30:00 9.230 9.380 9.370 9.480 9.600 85.700 6.956 1.667 261.900 263.300 261.200 10.830 81.400 7.776 2.414 184.700 263.000 262.300 0.1480 95.100 0.255 39.240 356.40 335.20 -3.01 -4.90
DSCMET_COMPS 2018-09-29 04:25:00 9.210 9.410 9.350 9.410 9.610 85.300 6.888 1.712 261.900 263.300 261.200 10.730 81.700 7.732 2.359 184.900 263.000 262.300 0.1700 95.600 0.251 30.660 356.30 334.90 -2.99 -4.88
DSCMET_COMPS 2018-09-29 04:20:00 9.250 9.380 9.350 9.490 9.600 84.900 6.842 1.763 261.900 263.300 261.200 10.710 81.300 7.641 2.408 184.800 263.000 262.300 0.1120 85.100 0.391 41.020 356.20 335.30 -3.05 -4.82
DSCMET_COMPS 2018-09-29 04:15:00 9.240 9.350 9.330 9.430 9.470 85.300 6.899 1.715 261.900 263.300 261.200 10.620 81.600 7.607 2.355 184.600 263.000 262.300 0.1140 103.800 0.285 48.150 355.90 334.80 -2.90 -4.81
DSCMET_COMPS 2018-09-29 04:10:00 9.280 9.340 9.330 9.410 9.570 84.900 6.871 1.767 261.900 263.300 261.200 10.700 81.200 7.613 2.419 184.700 263.000 262.300 0.1540 86.700 0.715 42.820 355.80 334.30 -2.83 -4.87
DSCMET_COMPS 2018-09-29 04:05:00 9.250 9.340 9.330 9.440 9.480 84.900 6.853 1.763 261.900 263.300 261.200 10.550 82.500 7.699 2.229 184.800 263.000 262.300 0.1500 93.200 0.482 30.100 355.30 333.20 -2.93 -4.94
DSCMET_COMPS 2018-09-29 04:00:00 9.270 9.340 9.300 9.380 9.440 84.500 6.805 1.812 261.900 263.300 261.200 10.600 81.900 7.641 2.313 184.700 263.000 262.300 0.0790 72.740 0.729 40.710 354.60 331.20 -3.00 -5.13
DSCMET_COMPS 2018-09-29 03:55:00 9.230 9.310 9.260 9.330 9.430 85.000 6.852 1.749 261.900 263.300 261.200 10.610 81.700 7.615 2.341 184.800 263.000 262.300 0.1460 83.300 0.481 45.000 353.80 329.50 -3.22 -5.20
DSCMET_COMPS 2018-09-29 03:50:00 9.240 9.330 9.280 9.350 9.460 85.200 6.893 1.727 261.900 263.300 261.200 10.720 81.200 7.633 2.422 184.900 262.900 262.300 0.1630 100.000 0.259 69.500 353.30 327.30 -3.27 -5.46
DSCMET_COMPS 2018-09-29 03:45:00 9.270 9.350 9.280 9.340 9.520 84.600 6.822 1.800 261.900 263.300 261.200 10.750 80.900 7.608 2.466 185.000 262.800 262.300 0.0960 78.720 0.582 40.660 352.40 323.90 -3.33 -5.75
DSCMET_COMPS 2018-09-29 03:40:00 9.280 9.390 9.330 9.400 9.570 84.900 6.877 1.767 261.900 263.300 261.200 10.820 80.600 7.622 2.516 185.000 262.600 262.300 0.1440 84.100 0.627 38.220 351.70 320.60 -3.32 -5.94
DSCMET_COMPS 2018-09-29 03:35:00 9.330 9.430 9.370 9.430 9.570 84.600 6.874 1.808 261.900 263.300 261.200 10.840 80.600 7.641 2.520 185.000 262.600 262.000 0.1110 81.800 0.554 35.790 351.90 319.10 -3.21 -5.97
DSCMET_COMPS 2018-09-29 03:30:00 9.350 9.490 9.420 9.490 9.690 84.600 6.906 1.810 261.900 263.300 261.200 10.970 79.750 7.613 2.653 184.800 262.600 262.000   0.000 0.245 41.360 352.00 318.30 -3.24 -6.01
DSCMET_COMPS 2018-09-29 03:25:00 9.370 9.510 9.450 9.570 9.750 84.300 6.859 1.848 261.900 263.300 261.200 11.010 79.690 7.640 2.668 184.800 262.600 262.000 0.1430 68.350 0.283 25.860 352.20 317.40 -3.22 -6.02
DSCMET_COMPS 2018-09-29 03:20:00 9.380 9.550 9.560 9.600 9.700 84.700 6.940 1.802 261.900 263.300 261.200 10.980 79.800 7.631 2.648 184.600 262.600 262.000 0.1460 105.700 0.338 41.350 352.90 317.70 -3.14 -6.04
DSCMET_COMPS 2018-09-29 03:15:00 9.460 9.650 9.630 9.690 9.720 84.300 6.940 1.859 261.900 263.300 261.200 11.050 79.500 7.644 2.700 184.600 262.600 262.000 0.1190 89.400 0.540 32.700 353.90 320.90 -3.03 -5.70
DSCMET_COMPS 2018-09-29 03:10:00 9.550 9.620 9.680 9.730 9.710 84.000 6.984 1.906 261.900 263.300 261.200 10.980 79.790 7.630 2.649 184.500 262.600 262.000 0.1200 103.200 0.179 50.440 355.20 326.40 -2.87 -5.21
DSCMET_COMPS 2018-09-29 03:05:00 9.640 9.650 9.690 9.710 9.730 83.500 6.986 1.978 261.900 263.200 261.200 11.030 79.570 7.638 2.687 184.500 262.600 262.000 0.1880 88.300 0.373 38.370 356.00 331.20 -2.88 -4.82
DSCMET_COMPS 2018-09-29 03:00:00 9.530 9.600 9.640 9.660 9.740 83.500 6.885 1.963 261.900 263.200 261.200 10.960 79.850 7.621 2.638 184.400 262.600 262.000 0.1860 84.200 0.306 38.300 355.80 332.70 -2.81 -4.72
DSCMET_COMPS 2018-09-29 02:55:00 9.500 9.590 9.640 9.730 9.750 83.600 6.869 1.947 261.900 263.200 261.200 11.030 79.710 7.664 2.669 184.400 262.600 262.000 0.2330 85.200 0.681 41.120 355.20 330.70 -2.78 -4.84
DSCMET_COMPS 2018-09-29 02:50:00 9.520 9.590 9.610 9.740 9.790 83.500 6.881 1.962 261.900 263.200 261.200 11.030 79.750 7.671 2.663 184.600 262.600 262.000 0.1920 85.900 0.433 40.250 354.20 327.40 -2.82 -5.03
DSCMET_COMPS 2018-09-29 02:45:00 9.490 9.600 9.590 9.770 9.810 84.700 7.045 1.815 261.900 263.100 261.200 11.060 79.440 7.643 2.710 184.700 262.600 262.000 0.1970 88.400 0.847 38.140 353.30 323.60 -2.81 -5.22
DSCMET_COMPS 2018-09-29 02:40:00 9.510 9.650 9.620 9.770 9.860 84.500 7.033 1.842 261.900 263.000 261.200 11.150 78.770 7.607 2.815 184.700 262.600 261.900 0.1390 96.600 0.749 35.790 353.00 321.20 -2.85 -5.29
DSCMET_COMPS 2018-09-29 02:35:00 9.560 9.720 9.700 9.870 9.900 83.800 6.964 1.931 261.900 263.000 261.200 11.230 78.520 7.638 2.863 184.700 262.600 261.600 0.1430 95.800 0.391 36.700 352.50 320.20 -2.87 -5.38
DSCMET_COMPS 2018-09-29 02:30:00 9.630 9.720 9.790 9.860 9.870 82.800 6.851 2.060 261.900 262.700 261.200 11.320 78.380 7.699 2.899 184.900 262.600 261.800 0.1690 85.200 0.392 44.730 352.30 318.90 -2.86 -5.42
DSCMET_COMPS 2018-09-29 02:25:00 9.660 9.750 9.820 9.850 9.880 82.900 6.904 2.052 261.900 262.700 261.200 11.250 78.840 7.717 2.824 184.700 262.600 261.600 0.2010 84.800 0.532 43.940 351.90 317.40 -2.84 -5.52
DSCMET_COMPS 2018-09-29 02:20:00 9.660 9.770 9.830 9.880 9.910 82.700 6.862 2.076 261.900 262.600 261.200 11.240 78.830 7.705 2.823 184.600 262.600 261.600   0.000 0.705 45.170 351.80 315.30 -2.83 -5.68
DSCMET_COMPS 2018-09-29 02:15:00 9.710 9.840 9.890 9.940 9.930 82.700 6.921 2.083 261.900 262.600 261.200 11.280 78.790 7.737 2.836 184.300 262.400 261.600 0.2130 87.600 0.597 41.720 351.50 313.60 -2.89 -5.71
DSCMET_COMPS 2018-09-29 02:10:00 9.770 9.870 9.900 9.990 10.070 82.700 6.989 2.092 261.900 262.600 261.200 11.360 78.280 7.719 2.920 184.400 262.300 261.600 0.1790 84.600 0.379 39.460 351.30 312.40 -2.94 -5.89
DSCMET_COMPS 2018-09-29 02:05:00 9.820 9.900 9.900 10.080 10.150 82.700 7.031 2.099 261.900 262.600 261.200 11.530 77.320 7.703 3.084 184.300 262.300 261.600 0.1580 89.000 0.876 41.150 351.00 311.10 -2.95 -6.05
DSCMET_COMPS 2018-09-29 02:00:00 9.910 9.980 9.980 10.100 10.200 83.300 7.224 2.038 261.900 262.600 261.200 11.700 76.560 7.723 3.223 184.300 262.300 261.600 0.1900 89.300 0.573 37.180 351.40 310.90 -2.95 -6.02
DSCMET_COMPS 2018-09-29 01:55:00 9.890 10.080 10.040 10.110 10.210 83.300 7.203 2.035 261.900 262.600 261.200 11.820 75.890 7.711 3.341 184.200 262.300 261.600 0.1300 90.300 0.501 37.820 351.50 310.80 -2.95 -6.09
DSCMET_COMPS 2018-09-29 01:50:00 9.990 10.140 10.100 10.260 10.300 82.400 7.146 2.160 261.900 262.600 261.100 11.840 75.870 7.726 3.349 184.500 262.300 261.600 0.1310 93.000 0.398 42.920 351.90 310.90 -2.90 -6.02
DSCMET_COMPS 2018-09-29 01:45:00 10.060 10.160 10.180 10.370 10.430 82.600 7.246 2.145 261.900 262.600 260.600 11.900 75.740 7.759 3.380 184.500 262.300 261.600 0.1370 89.700 0.459 43.400 352.10 310.90 -2.92 -6.12
DSCMET_COMPS 2018-09-29 01:40:00 10.080 10.280 10.250 10.390 10.500 81.600 7.096 2.271 261.900 262.600 260.500 11.900 75.490 7.711 3.415 184.600 262.300 261.400 0.1880 91.700 0.828 38.030 352.60 310.90 -2.86 -6.08
DSCMET_COMPS 2018-09-29 01:35:00 10.170 10.330 10.300 10.430 10.460 81.000 7.057 2.360 261.900 262.600 260.500 11.930 75.290 7.701 3.449 184.500 262.300 261.300 0.1970 90.100 0.458 43.210 352.90 311.40 -2.88 -6.15
DSCMET_COMPS 2018-09-29 01:30:00 10.230 10.370 10.360 10.470 10.520 80.700 7.080 2.407 261.900 262.600 260.500 12.030 75.080 7.757 3.502 184.500 262.300 261.300 0.2230 88.400 0.618 40.280 353.20 311.70 -2.83 -6.09
DSCMET_COMPS 2018-09-29 01:25:00 10.300 10.380 10.370 10.460 10.540 80.900 7.171 2.393 261.900 262.600 260.500 11.970 75.070 7.697 3.489 184.200 262.300 261.300 0.2080 87.500 0.467 40.780 354.00 312.30 -2.82 -5.98
DSCMET_COMPS 2018-09-29 01:20:00 10.330 10.440 10.410 10.520 10.670 80.700 7.175 2.423 261.900 262.600 260.500 12.090 74.790 7.758 3.557 183.900 262.200 261.300 0.2250 87.900 0.908 41.710 354.20 313.30 -2.86 -5.95
DSCMET_COMPS 2018-09-29 01:15:00 10.340 10.470 10.500 10.600 10.670 80.700 7.174 2.424 261.900 262.600 260.500 12.050 74.640 7.690 3.568 183.900 262.200 261.200   0.000 0.396 41.770 354.20 314.30 -2.80 -5.88
DSCMET_COMPS 2018-09-29 01:10:00 10.430 10.590 10.690 10.780 10.760 80.600 7.241 2.452 261.900 262.600 260.500 12.380 73.330 7.749 3.835 183.800 262.200 261.200 0.3250 90.000 0.539 47.080 354.50 313.70 -2.84 -5.95
DSCMET_COMPS 2018-09-29 01:05:00 10.410 10.670 10.720 10.850 10.850 79.980 7.114 2.527 261.900 262.600 260.500 12.150 74.410 7.741 3.625 184.300 262.000 261.200 0.2440 88.900 0.952 32.440 354.10 312.30 -2.91 -6.08
DSCMET_COMPS 2018-09-29 01:00:00 10.470 10.720 10.770 10.940 10.930 80.500 7.272 2.471 261.900 262.600 260.500 12.440 72.960 7.732 3.904 184.400 261.900 261.200 0.1830 92.200 0.500 41.530 354.60 312.60 -2.86 -6.20
DSCMET_COMPS 2018-09-29 00:55:00 10.490 10.800 10.840 10.950 10.970 79.560 7.112 2.593 261.900 262.600 260.500 12.560 72.440 7.743 4.010 184.100 261.900 261.200 0.1420 82.500 0.806 33.390 354.60 312.10 -2.88 -6.14
DSCMET_COMPS 2018-09-29 00:50:00 10.550 10.800 10.820 10.950 10.990 80.100 7.273 2.535 261.900 262.600 260.500 12.510 72.280 7.662 4.020 184.300 261.900 261.000 0.2280 88.800 0.317 50.470 355.10 312.70 -2.87 -6.06
DSCMET_COMPS 2018-09-29 00:45:00 10.680 10.930 10.890 10.960 11.130 79.860 7.352 2.588 261.900 262.600 260.500 12.650 72.020 7.744 4.095 184.300 261.900 260.900 0.1930 93.700 0.495 39.070 355.30 312.40 -2.97 -6.23
DSCMET_COMPS 2018-09-29 00:40:00 10.690 10.970 10.960 11.030 11.110 79.260 7.252 2.667 261.700 262.600 260.500 12.570 72.270 7.718 4.038 184.100 261.900 260.900 0.1630 72.600 0.592 37.920 355.70 313.00 -2.91 -6.12
DSCMET_COMPS 2018-09-29 00:35:00 10.800 11.010 11.090 11.230 11.250 79.250 7.361 2.688 261.500 262.400 260.500 12.700 71.600 7.707 4.171 184.000 261.900 260.900 0.2700 88.900 0.494 46.190 356.10 313.20 -2.90 -6.22
DSCMET_COMPS 2018-09-29 00:30:00 10.900 11.150 11.210 11.450 11.590 79.260 7.461 2.704 261.700 262.300 260.500 12.950 70.620 7.745 4.386 183.900 261.900 260.900 0.3100 91.300 1.383 34.690 356.90 314.00 -2.92 -6.16
DSCMET_COMPS 2018-09-29 00:25:00 10.920 11.200 11.300 11.500 11.570 79.080 7.448 2.731 261.500 262.000 260.500 12.910 70.710 7.725 4.361 184.000 261.900 260.900 0.1900 87.000 0.797 36.640 357.30 315.30 -2.93 -6.11
DSCMET_COMPS 2018-09-29 00:20:00 11.020 11.230 11.350 11.580 11.610 79.510 7.623 2.693 261.500 261.900 260.500 13.030 70.230 7.740 4.467 184.000 261.900 260.900 0.1720 92.100 0.500 40.600 358.00 316.80 -2.87 -6.04
DSCMET_COMPS 2018-09-29 00:15:00 11.060 11.350 11.410 11.630 11.770 78.730 7.518 2.803 261.300 261.900 260.500 13.050 70.110 7.734 4.491 184.200 261.900 260.900 0.1990 93.800 0.839 39.120 358.40 317.20 -2.89 -5.98
DSCMET_COMPS 2018-09-29 00:10:00 11.040 11.310 11.460 11.610 11.720 80.600 7.852 2.553 261.400 261.900 260.500 13.180 69.570 7.745 4.611 184.200 261.900 260.900 0.1930 92.300 0.525 41.480 358.40 317.00 -2.96 -6.18
DSCMET_COMPS 2018-09-29 00:05:00 11.200 11.500 11.580 11.860 11.860 79.160 7.728 2.772 261.200 261.900 260.500 13.250 69.200 7.734 4.689 184.200 261.900 260.700   0.000 0.751 33.310 358.60 316.70 -3.06 -6.33
DSCMET_COMPS 2018-09-29 00:00:00 11.210 11.580 11.660 11.860 11.910 79.000 7.716 2.795 261.200 261.900 260.500 13.440 68.260 7.715 4.892 184.300 261.900 260.600 0.1950 91.400 0.575 29.780 358.70 317.20 -2.99 -6.39
DSCMET_COMPS 2018-09-28 23:55:00 11.260 11.600 11.690 11.860 11.910 79.500 7.853 2.738 261.200 261.900 260.500 13.410 68.130 7.659 4.903 184.300 261.800 260.500 0.1980 90.600 0.654 38.310 359.80 317.70 -2.92 -6.24
DSCMET_COMPS 2018-09-28 23:50:00 11.310 11.690 11.760 11.900 12.020 78.930 7.798 2.823 261.200 261.900 260.500 13.440 68.120 7.685 4.914 184.300 261.500 260.500 0.1470 96.600 0.302 50.540 360.30 318.60 -2.97 -6.12
DSCMET_COMPS 2018-09-28 23:45:00 11.440 11.770 11.900 12.130 12.160 77.600 7.671 3.027 261.200 261.900 260.500 13.520 67.560 7.641 5.026 184.400 261.500 260.500 0.1870 96.400 0.347 52.140 360.40 320.00 -2.93 -6.12
DSCMET_COMPS 2018-09-28 23:40:00 11.490 11.830 11.910 12.010 11.990 76.990 7.607 3.120 261.200 261.900 260.500 13.400 67.890 7.598 4.936 184.300 261.500 260.500 0.2820 89.500 0.449 36.860 361.30 321.50 -2.84 -5.96
DSCMET_COMPS 2018-09-28 23:35:00 11.490 11.870 11.950 12.000 12.010 77.200 7.648 3.092 261.200 261.900 260.400 13.460 67.850 7.646 4.962 184.100 261.500 260.500 0.2770 89.300 0.457 56.560 362.60 323.80 -2.78 -5.76
DSCMET_COMPS 2018-09-28 23:30:00 11.570 11.930 12.020 12.100 12.120 77.130 7.710 3.118 261.200 261.900 260.100 13.560 67.030 7.564 5.122 183.900 261.500 260.500 0.2720 89.200 0.364 45.480 362.80 325.00 -2.74 -5.68
DSCMET_COMPS 2018-09-28 23:25:00 11.630 12.020 12.110 12.240 12.330 77.230 7.792 3.116 261.200 261.900 259.900 13.730 66.420 7.592 5.274 184.100 261.500 260.500 0.2890 90.200 0.576 48.120 362.90 324.90 -2.82 -5.74
DSCMET_COMPS 2018-09-28 23:20:00 11.730 12.110 12.210 12.310 12.410 77.820 7.999 3.056 261.200 261.900 259.800 13.830 66.190 7.636 5.345 184.100 261.500 260.400 0.2700 92.500 0.625 39.120 362.60 323.10 -2.85 -5.89
DSCMET_COMPS 2018-09-28 23:15:00 11.800 12.160 12.260 12.370 12.470 77.100 7.929 3.170 261.200 261.900 259.800 13.930 65.730 7.629 5.453 184.000 261.500 260.200 0.2240 90.100 0.626 40.290 362.10 320.60 -2.89 -6.07
DSCMET_COMPS 2018-09-28 23:10:00 11.910 12.240 12.310 12.490 12.610 76.670 7.953 3.253 261.200 261.900 259.800 14.070 65.070 7.614 5.609 184.200 261.500 260.200 0.2920 92.800 0.759 45.060 362.40 318.80 -2.88 -6.24
DSCMET_COMPS 2018-09-28 23:05:00 11.900 12.300 12.370 12.530 12.620 76.230 7.863 3.312 261.200 261.900 259.800 14.140 64.710 7.600 5.692 184.200 261.300 260.200 0.2610 88.800 0.578 50.670 362.80 318.40 -2.84 -6.21
DSCMET_COMPS 2018-09-28 23:00:00 11.890 12.390 12.490 12.590 12.610 76.550 7.914 3.265 261.200 261.900 259.800 14.100 64.660 7.550 5.686 184.000 261.200 260.200 0.2570 90.400 0.495 49.830 362.60 318.10 -2.88 -6.19
DSCMET_COMPS 2018-09-28 22:55:00 11.960 12.420 12.590 12.730 12.790 77.010 8.070 3.216 261.200 261.900 259.800 14.180 64.380 7.563 5.761 184.200 261.200 260.200   0.000 0.480 51.160 363.40 319.10 -2.90 -6.25
DSCMET_COMPS 2018-09-28 22:50:00 12.030 12.540 12.720 12.820 12.920 76.930 8.120 3.242 261.200 261.900 259.800 14.290 64.260 7.640 5.821 183.800 261.300 260.200 0.2490 92.100 0.717 41.920 363.50 319.50 -2.97 -6.30
DSCMET_COMPS 2018-09-28 22:45:00 12.080 12.620 12.830 12.940 13.090 76.700 8.120 3.285 261.200 261.900 259.800 14.520 63.070 7.584 6.105 184.000 261.200 260.200 0.1940 95.500 0.481 44.480 364.10 320.40 -2.99 -6.30
DSCMET_COMPS 2018-09-28 22:40:00 12.230 12.830 12.930 13.070 13.150 75.920 8.120 3.429 261.200 261.900 259.800 14.500 63.100 7.572 6.092 184.000 261.200 260.200 0.1950 96.800 0.453 45.610 364.90 321.40 -2.98 -6.28
DSCMET_COMPS 2018-09-28 22:35:00 12.360 12.940 13.060 13.170 13.230 74.990 8.070 3.592 261.200 261.900 259.800 14.500 62.950 7.537 6.117 183.700 261.200 260.200 0.2920 90.200 0.331 48.810 365.20 322.80 -2.95 -6.18
DSCMET_COMPS 2018-09-28 22:30:00 12.380 13.040 13.160 13.260 13.290 74.870 8.060 3.614 261.200 261.900 259.800 14.640 62.420 7.546 6.261 183.800 261.200 260.200 0.4000 89.900 0.462 33.550 365.60 323.70 -2.96 -6.18
DSCMET_COMPS 2018-09-28 22:25:00 12.520 13.090 13.200 13.320 13.350 74.770 8.180 3.662 261.200 261.900 259.800 14.760 62.150 7.596 6.355 183.600 261.200 260.200 0.3700 90.700 0.472 48.130 366.20 324.30 -2.94 -6.21
DSCMET_COMPS 2018-09-28 22:20:00 12.540 13.140 13.220 13.330 13.400 74.380 8.120 3.723 261.200 261.900 259.800 14.840 61.250 7.458 6.540 183.600 261.200 260.200 0.2710 87.900 0.388 52.420 366.40 324.50 -2.94 -6.09
DSCMET_COMPS 2018-09-28 22:15:00 12.600 13.250 13.370 13.450 13.570 74.580 8.210 3.709 261.200 261.900 259.800 14.930 61.100 7.507 6.603 184.100 261.200 260.200 0.3230 88.700 0.270 70.910 366.60 324.20 -2.94 -6.20
DSCMET_COMPS 2018-09-28 22:10:00 12.740 13.310 13.410 13.470 13.530 73.950 8.230 3.836 261.200 261.900 259.800 15.030 60.750 7.517 6.706 184.000 261.100 259.800 0.2800 86.500 0.498 37.360 367.40 323.90 -2.88 -6.20
DSCMET_COMPS 2018-09-28 22:05:00 12.750 13.350 13.500 13.600 13.680 73.920 8.230 3.842 261.200 261.900 259.800 15.120 60.240 7.478 6.832 184.000 261.100 259.800 0.2750 86.500 0.299 62.010 367.50 323.60 -2.94 -6.39
DSCMET_COMPS 2018-09-28 22:00:00 12.840 13.470 13.650 13.840 14.010 74.170 8.360 3.828 261.200 261.900 259.800 15.350 59.560 7.528 7.053 184.000 261.100 259.800 0.3950 89.100 0.586 55.240 368.20 323.00 -2.93 -6.39
DSCMET_COMPS 2018-09-28 21:55:00 12.840 13.540 13.630 13.810 13.960 74.390 8.410 3.796 261.200 261.700 259.800 15.490 59.130 7.554 7.192 184.100 261.100 259.800 0.3370 88.300 0.833 46.580 368.40 323.20 -2.96 -6.36
DSCMET_COMPS 2018-09-28 21:50:00 12.880 13.630 13.810 13.970 14.070 74.540 8.480 3.783 261.200 261.300 259.800 15.480 59.250 7.574 7.166 184.000 260.800 259.800   0.000 0.684 53.290 368.70 323.80 -2.94 -6.34
DSCMET_COMPS 2018-09-28 21:45:00 13.100 13.810 13.880 14.060 14.140 73.920 8.570 3.931 261.200 261.200 259.800 15.670 58.670 7.608 7.357 184.000 260.800 259.700   0.000 1.113 39.230 369.50 324.10 -2.90 -6.39
DSCMET_COMPS 2018-09-28 21:40:00 13.190 13.870 13.940 14.110 14.190 73.380 8.550 4.037 261.200 261.200 259.800 15.750 58.110 7.543 7.495 183.900 260.800 259.600 0.2540 88.200 0.637 54.660 369.80 324.70 -2.95 -6.38
DSCMET_COMPS 2018-09-28 21:35:00 13.230 13.940 14.070 14.270 14.430 73.330 8.580 4.055 261.200 261.200 259.800 15.980 57.090 7.499 7.792 184.100 260.800 259.500 0.2500 88.800 0.447 58.440 370.20 325.10 -2.94 -6.40
DSCMET_COMPS 2018-09-28 21:30:00 13.280 14.050 14.160 14.310 14.430 73.490 8.650 4.044 261.200 261.200 259.700 16.040 56.800 7.480 7.874 183.600 260.900 259.500 0.2600 78.450 1.147 44.870 370.80 325.20 -2.95 -6.37
DSCMET_COMPS 2018-09-28 21:25:00 13.350 14.100 14.340 14.550 14.660 74.020 8.830 3.981 261.200 261.200 259.600 16.340 55.650 7.461 8.240 183.900 261.000 259.500 0.2950 87.000 0.828 50.590 370.90 325.50 -3.01 -6.46
DSCMET_COMPS 2018-09-28 21:20:00 13.560 14.370 14.380 14.560 14.770 73.390 8.900 4.134 261.200 261.200 259.300 16.410 55.710 7.542 8.266 184.200 261.100 259.500 0.3340 90.100 1.001 41.010 371.40 325.50 -3.02 -6.48
DSCMET_COMPS 2018-09-28 21:15:00 13.540 14.340 14.500 14.640 14.780 72.920 8.790 4.201 261.200 261.200 259.200 16.390 55.580 7.489 8.279 184.200 261.000 259.400 0.1980 79.160 0.718 47.570 371.90 325.80 -3.03 -6.51
DSCMET_COMPS 2018-09-28 21:10:00 13.620 14.440 14.720 14.840 14.920 73.990 9.080 4.056 261.200 261.200 259.200 16.420 55.880 7.596 8.239 183.800 260.800 259.400 0.2740 90.100 0.718 51.130 372.20 326.30 -3.13 -6.57
DSCMET_COMPS 2018-09-28 21:05:00 13.820 14.620 14.930 15.150 15.160 72.650 9.000 4.321 261.200 261.200 259.200 16.560 55.050 7.507 8.469 183.800 260.800 259.400 0.1930 92.900 0.492 55.610 372.40 327.00 -3.21 -6.68
DSCMET_COMPS 2018-09-28 21:00:00 14.060 14.800 14.980 15.110 15.200 71.390 8.980 4.591 261.200 261.200 259.200 16.450 55.340 7.482 8.356 184.000 260.800 259.400 0.2430 87.300 0.313 51.790 372.90 327.30 -3.12 -6.73
DSCMET_COMPS 2018-09-28 20:55:00 14.120 14.810 14.900 14.980 15.100 70.940 8.940 4.681 261.200 261.200 259.200 16.530 54.910 7.442 8.480 183.800 260.800 259.200 0.2250 81.200 0.159 59.920 374.00 327.80 -3.00 -6.57
DSCMET_COMPS 2018-09-28 20:50:00 14.240 14.980 15.130 15.250 15.340 71.330 9.140 4.655 261.200 261.200 259.200 16.710 54.420 7.478 8.670 183.800 260.800 259.100 0.3130 85.700 0.327 61.540 375.10 328.30 -2.96 -6.58
DSCMET_COMPS 2018-09-28 20:45:00 14.330 15.180 15.390 15.490 15.560 70.720 9.100 4.781 261.200 261.200 259.200 16.900 54.090 7.566 8.839 183.900 260.700 259.100 0.3220 84.200 0.351 46.420 375.60 328.90 -3.03 -6.64
DSCMET_COMPS 2018-09-28 20:40:00 14.390 15.360 15.660 15.840 15.900 70.930 9.200 4.766 261.200 261.200 259.200 17.200 53.410 7.659 9.142 184.100 260.700 259.100   0.000 0.970 40.790 376.00 329.50 -3.08 -6.63
DSCMET_COMPS 2018-09-28 20:35:00 14.450 15.480 15.760 15.900 15.910 71.090 9.290 4.758 261.200 261.200 259.200 17.490 51.660 7.440 9.661 184.100 260.700 259.100 0.3450 86.100 0.425 49.150 376.60 329.90 -3.11 -6.78
DSCMET_COMPS 2018-09-28 20:30:00 14.690 15.670 15.870 16.030 16.060 70.140 9.320 4.991 261.200 261.200 259.200 17.750 50.430 7.327 10.070 183.900 260.500 259.100 0.3600 87.700 0.768 47.160 376.90 330.50 -3.11 -6.75
DSCMET_COMPS 2018-09-28 20:25:00 14.780 15.750 15.960 16.070 16.090 69.520 9.280 5.124 261.200 261.200 259.200 17.450 51.420 7.335 9.684 183.800 260.400 259.100 0.2870 84.900 0.202 60.850 378.10 331.60 -3.06 -6.64
DSCMET_COMPS 2018-09-28 20:20:00 14.890 15.860 16.070 16.180 16.250 70.360 9.550 5.019 261.200 261.200 259.200 17.590 50.890 7.312 9.877 184.100 260.400 259.000 0.3010 85.900 0.269 54.110 379.00 332.40 -2.92 -6.53
DSCMET_COMPS 2018-09-28 20:15:00 14.950 16.030 16.220 16.290 16.380 68.700 9.260 5.320 261.200 261.200 259.200 17.700 50.690 7.356 9.986 184.100 260.400 258.800 0.3000 85.800 0.237 48.510 380.20 333.80 -2.99 -6.60
DSCMET_COMPS 2018-09-28 20:10:00 14.950 16.050 16.270 16.370 16.410 68.890 9.300 5.288 261.200 261.200 259.200 18.020 50.000 7.450 10.332 183.900 260.400 258.800 0.2800 85.100 0.364 42.390 381.00 335.20 -3.09 -6.55
DSCMET_COMPS 2018-09-28 20:05:00 14.970 16.150 16.460 16.600 16.660 69.260 9.400 5.232 261.200 261.200 259.200 18.260 49.250 7.450 10.646 184.000 260.300 258.800 0.2830 84.300 0.497 52.500 381.90 336.80 -3.05 -6.59
DSCMET_COMPS 2018-09-28 20:00:00 15.090 16.280 16.690 16.970 17.070 69.940 9.660 5.156 261.200 261.200 259.200 18.480 48.360 7.385 10.983 184.100 260.400 258.700 0.2840 88.000 0.550 48.300 382.70 338.20 -3.02 -6.52
DSCMET_COMPS 2018-09-28 19:55:00 15.230 16.450 16.850 17.110 17.250 69.040 9.600 5.358 261.200 261.200 259.200 18.640 47.950 7.407 11.182 183.900 260.400 258.700 0.2920 87.100 0.542 40.240 383.40 339.00 -3.08 -6.57
DSCMET_COMPS 2018-09-28 19:50:00 15.290 16.530 16.980 17.200 17.270 68.760 9.600 5.427 261.200 261.200 259.200 18.700 46.820 7.113 11.468 183.800 260.300 258.700 0.2250 86.800 0.297 39.610 384.00 340.80 -3.10 -6.49
DSCMET_COMPS 2018-09-28 19:45:00 15.340 16.580 17.140 17.330 17.460 70.700 10.060 5.107 261.200 261.200 259.200 18.950 45.890 7.048 11.852 183.800 260.400 258.700 0.2300 89.400 1.774 43.540 384.70 342.30 -3.09 -6.50
DSCMET_COMPS 2018-09-28 19:40:00 15.510 16.790 17.290 17.500 17.580 69.790 10.030 5.323 261.100 261.100 259.200 19.200 46.020 7.317 12.009 183.600 260.300 258.700 0.2700 90.100 0.552 40.840 384.70 343.00 -3.16 -6.53
DSCMET_COMPS 2018-09-28 19:35:00 15.660 16.980 17.300 17.490 17.600 67.540 9.680 5.775 261.100 261.100 259.200 19.210 45.640 7.205 12.101 183.400 260.100 258.700 0.1910 88.000 0.613 34.970 385.20 343.60 -3.08 -6.42
DSCMET_COMPS 2018-09-28 19:30:00 15.720 17.010 17.460 17.640 17.740 69.820 10.240 5.390 261.100 260.700 259.200 19.240 45.600 7.220 12.133 183.500 260.100 258.700   0.000 0.414 49.010 385.70 343.20 -3.20 -6.62
DSCMET_COMPS 2018-09-28 19:25:00 15.880 17.150 17.460 17.590 17.630 67.490 9.880 5.866 260.700 260.600 259.200 19.480 45.390 7.370 12.363 183.600 260.000 258.700 0.1850 89.700 0.485 48.580 386.10 342.70 -3.27 -6.66
DSCMET_COMPS 2018-09-28 19:20:00 15.880 17.220 17.650 17.830 17.820 68.500 10.110 5.683 260.600 260.500 259.000 19.480 45.150 7.293 12.417 183.700 260.000 258.600 0.2990 88.600 0.297 58.870 386.70 342.40 -3.23 -6.76
DSCMET_COMPS 2018-09-28 19:15:00 16.020 17.430 17.940 18.060 18.080 68.580 10.260 5.720 260.500 260.500 258.600 19.600 45.130 7.395 12.515 183.600 260.000 258.500 0.2710 87.800 0.417 46.540 387.30 341.80 -3.33 -6.95
DSCMET_COMPS 2018-09-28 19:10:00 16.150 17.690 18.170 18.350 18.340 68.170 10.290 5.843 260.500 260.500 258.700 19.770 44.500 7.344 12.792 183.700 260.000 258.300 0.3290 89.300 0.418 37.030 387.30 341.60 -3.45 -7.07
DSCMET_COMPS 2018-09-28 19:05:00 16.330 17.870 18.210 18.410 18.440 66.810 10.170 6.163 260.500 260.500 258.500 20.040 43.460 7.243 13.252 183.600 260.000 258.300 0.2710 89.400 0.263 46.870 387.70 341.50 -3.51 -7.14
DSCMET_COMPS 2018-09-28 19:00:00 16.390 17.840 18.310 18.490 18.520 66.530 10.160 6.238 260.500 260.500 258.500 20.140 42.950 7.161 13.454 183.700 260.000 258.300 0.2590 88.500 0.210 57.750 388.30 341.80 -3.50 -7.20
DSCMET_COMPS 2018-09-28 18:55:00 16.530 17.980 18.440 18.650 18.770 66.660 10.320 6.270 260.500 260.500 258.500 20.240 43.150 7.319 13.490 183.600 260.000 258.300 0.3040 89.300 0.410 44.880 389.40 342.10 -3.50 -7.24
DSCMET_COMPS 2018-09-28 18:50:00 16.600 18.020 18.490 18.690 18.710 66.150 10.270 6.394 260.500 260.500 258.500 20.500 42.170 7.218 13.945 183.600 259.900 258.200 0.2910 87.600 0.255 48.500 390.00 342.30 -3.55 -7.42
DSCMET_COMPS 2018-09-28 18:45:00 16.730 18.110 18.690 18.890 18.870 66.060 10.370 6.464 260.500 260.500 258.500 20.970 40.740 7.137 14.709 183.600 259.900 258.300 0.2760 89.200 0.742 51.590 390.90 342.90 -3.63 -7.52
DSCMET_COMPS 2018-09-28 18:40:00 16.860 18.300 19.030 19.290 19.380 66.630 10.620 6.408 260.500 260.500 258.500 21.060 40.000 6.950 14.975 183.600 259.900 258.000 0.3590 89.300 0.493 48.360 392.00 343.90 -3.77 -7.57
DSCMET_COMPS 2018-09-28 18:35:00 17.070 18.500 19.200 19.560 19.680 65.890 10.660 6.638 260.500 260.500 258.500 21.400 38.890 6.844 15.574 183.800 259.900 257.900 0.2880 88.900 0.403 47.590 392.60 344.20 -3.79 -7.69
DSCMET_COMPS 2018-09-28 18:30:00 17.290 18.820 19.360 19.730 19.890 65.630 10.810 6.783 260.500 260.500 258.500 21.440 38.730 6.819 15.653 184.000 259.900 257.900 0.2380 91.400 0.516 41.800 393.80 345.60 -3.94 -7.78
DSCMET_COMPS 2018-09-28 18:25:00 17.430 18.960 19.620 19.840 19.940 65.970 11.020 6.775 260.500 260.500 258.500 21.500 39.020 6.981 15.636 183.700 259.600 257.900 0.1770 88.900 0.265 35.760 395.00 347.00 -3.91 -7.77
DSCMET_COMPS 2018-09-28 18:20:00 17.620 19.190 19.850 20.130 20.310 65.850 11.180 6.881 260.500 260.500 258.500 22.090 37.050 6.752 16.733 183.600 259.600 257.900   0.000 0.795 42.310 396.40 348.20 -3.87 -7.92
DSCMET_COMPS 2018-09-28 18:15:00 17.780 19.370 19.990 20.370 20.600 66.070 11.380 6.906 260.500 260.500 258.500 22.180 37.130 6.863 16.804 183.700 259.600 257.900 0.1860 92.200 0.858 40.200 397.50 349.70 -3.96 -7.76
DSCMET_COMPS 2018-09-28 18:10:00 17.970 19.510 20.160 20.520 20.760 64.580 11.220 7.296 260.500 260.500 258.500 22.380 35.960 6.574 17.326 183.700 259.400 257.700 0.1310 107.200 0.507 38.840 398.60 350.40 -4.20 -7.71
DSCMET_COMPS 2018-09-28 18:05:00 18.070 19.630 20.460 20.810 21.100 63.920 11.150 7.479 260.500 260.500 258.500 22.700 34.920 6.430 17.953 183.800 259.200 257.500 0.2020 96.400 0.514 48.220 399.70 351.30 -4.37 -7.48
DSCMET_COMPS 2018-09-28 18:00:00 18.270 19.900 20.670 21.010 21.270 62.830 11.090 7.802 260.500 260.500 258.400 23.030 34.540 6.561 18.422 183.700 259.200 257.500 0.1970 99.400 0.898 44.930 401.20 351.70 -4.15 -6.96
DSCMET_COMPS 2018-09-28 17:55:00 18.470 20.070 20.830 21.240 21.650 61.870 11.040 8.105 260.500 260.500 257.800 23.390 34.060 6.674 18.965 184.000 259.200 257.500 0.2140 101.400 0.555 49.360 403.10 352.80 -4.06 -5.83
DSCMET_COMPS 2018-09-28 17:50:00 18.600 20.280 21.060 21.550 21.810 60.720 10.880 8.417 260.500 260.500 257.800 23.620 32.470 6.182 19.693 184.000 259.000 257.500 0.1650 93.400 0.330 31.820 404.90 353.80 -3.79 -3.59
DSCMET_COMPS 2018-09-28 17:45:00 18.750 20.420 21.330 21.830 22.230 58.590 10.480 8.958 260.500 260.500 257.800 24.080 30.750 5.795 20.760 184.500 258.800 257.400 0.1820 81.100 0.398 66.860 406.80 354.30 -3.78 -0.70
DSCMET_COMPS 2018-09-28 17:40:00 18.880 20.610 21.610 22.080 22.640 59.890 10.940 8.747 260.500 260.100 257.800 24.540 29.530 5.608 21.716 183.800 258.800 257.300 0.2500 88.700 0.573 49.890 408.60 355.20 -3.35 2.92
DSCMET_COMPS 2018-09-28 17:35:00 19.070 20.950 21.870 22.340 22.800 58.560 10.780 9.145 260.500 259.900 257.800 24.620 29.290 5.560 21.895 184.300 258.800 257.200 0.2030 90.500 0.568 38.850 410.40 356.40 -2.74 6.58
DSCMET_COMPS 2018-09-28 17:30:00 19.270 21.040 22.100 22.600 23.250 57.580 10.710 9.478 260.500 259.900 257.800 25.130 27.850 5.272 23.030 184.100 258.800 257.200 0.2340 94.000 0.192 90.200 412.80 356.90 -2.14 11.23
DSCMET_COMPS 2018-09-28 17:25:00 19.540 21.330 22.390 22.930 23.610 56.550 10.690 9.873 260.500 259.800 257.800 25.420 27.010 5.080 23.703 184.300 258.800 257.200 0.2080 80.400 0.182 289.300 415.50 358.10 -1.61 16.57
DSCMET_COMPS 2018-09-28 17:20:00 19.640 21.500 22.610 23.210 23.910 56.520 10.770 9.941 260.500 259.800 257.800 25.770 25.820 4.732 24.595 184.300 258.800 257.100 0.1710 87.500 0.169 216.900 417.00 358.40 -0.64 23.03
DSCMET_COMPS 2018-09-28 17:15:00 19.780 21.800 22.890 23.460 24.070 55.110 10.530 10.353 260.500 259.800 257.800 26.210 25.490 4.920 25.355 184.400 258.800 257.100   0.000 0.148 236.300 418.90 359.40 -0.40 25.84
DSCMET_COMPS 2018-09-28 17:10:00 19.920 21.990 23.100 23.720 24.470 55.490 10.760 10.355 260.500 259.800 257.800 26.600 25.340 5.165 25.997 184.100 258.800 257.100   0.000 0.263 202.600 420.20 359.40 -0.08 27.74
DSCMET_COMPS 2018-09-28 17:05:00 20.190 22.160 23.290 23.990 24.970 54.100 10.630 10.858 260.500 260.000 257.800 27.030 24.420 4.997 26.991 183.900 258.800 257.100 0.3280 72.170 0.352 254.600 422.30 359.60 0.06 31.66
DSCMET_COMPS 2018-09-28 17:00:00 20.370 22.270 23.570 24.350 25.210 53.560 10.650 11.109 260.400 259.800 257.800 27.410 23.350 4.674 27.989 183.900 258.800 257.100 0.2590 71.250 0.432 243.500 423.20 359.60 -0.40 33.63
DSCMET_COMPS 2018-09-28 16:55:00 20.490 22.730 23.890 24.670 25.650 52.770 10.530 11.382 260.300 259.900 257.800 27.810 21.820 4.041 29.222 184.200 258.800 257.100 0.1990 57.980 0.620 275.400 423.80 360.10 -1.14 30.02
DSCMET_COMPS 2018-09-28 16:50:00 20.760 22.860 24.080 25.120 26.050 51.850 10.520 11.798 260.300 260.000 257.800 28.330 20.530 3.606 30.617 184.300 259.100 257.100 0.2350 83.900 0.761 283.400 424.80 361.10 -2.02 25.60
DSCMET_COMPS 2018-09-28 16:45:00 20.970 23.020 24.350 25.410 26.520 52.170 10.810 11.872 260.400 259.800 257.800 28.530 19.780 3.244 31.267 183.800 259.100 257.100 0.1710 68.040 0.618 265.200 426.20 361.30 -2.45 25.45
DSCMET_COMPS 2018-09-28 16:40:00 21.200 23.290 24.680 25.720 26.890 51.190 10.730 12.288 260.400 259.800 257.800 28.810 18.840 2.786 32.150 184.400 258.800 257.100 0.2330 61.530 0.798 285.600 428.10 361.20 -2.02 27.38
DSCMET_COMPS 2018-09-28 16:35:00 21.480 23.720 25.080 26.240 27.560 52.600 11.400 12.139 260.500 259.800 257.800 29.400 17.600 2.309 33.773 184.400 259.000 257.100 0.2840 60.560 0.719 283.300 431.50 363.10 -2.52 28.03
DSCMET_COMPS 2018-09-28 16:30:00 21.580 23.800 25.250 26.450 27.620 52.910 11.580 12.134 260.500 259.800 257.800 29.570 17.140 2.075 34.295 184.100 259.000 257.100 0.1990 64.660 0.679 252.400 433.50 364.40 -2.55 28.09
DSCMET_COMPS 2018-09-28 16:25:00 21.850 24.220 25.590 26.880 28.190 52.770 11.790 12.372 260.500 259.800 257.800 30.010 16.090 1.546 35.619 184.300 259.100 257.100 0.2850 84.700 0.997 225.600 437.10 365.70 -2.70 30.28
DSCMET_COMPS 2018-09-28 16:20:00 22.130 24.330 25.720 26.990 28.150 51.140 11.580 13.019 260.500 259.800 257.800 29.900 16.140 1.501 35.374 184.300 259.100 257.100 0.2540 37.570 0.925 271.600 439.90 367.80 -2.22 33.24
DSCMET_COMPS 2018-09-28 16:15:00 22.220 24.480 25.990 27.240 28.320 50.940 11.600 13.145 260.300 259.800 257.800 30.620 16.010 1.963 36.919 184.300 259.100 257.100 0.3650 69.850 0.455 224.400 444.60 371.10 -1.26 36.89
DSCMET_COMPS 2018-09-28 16:10:00 22.350 24.680 26.310 27.760 28.950 51.120 11.780 13.200 260.100 259.800 257.800 31.020 14.490 0.893 38.454 184.200 259.100 257.100 0.3490 63.970 0.869 214.200 447.30 369.80 -0.65 42.93
DSCMET_COMPS 2018-09-28 16:05:00 22.610 24.840 26.490 27.960 29.050 48.780 11.300 14.052 259.900 259.800 257.800 30.990 14.380 0.764 38.438 184.700 259.100 257.100   0.000 1.207 200.400 451.30 371.10 1.86 57.92
DSCMET_COMPS 2018-09-28 16:00:00 22.730 25.040 26.800 28.150 29.090 49.920 11.760 13.840 259.800 259.800 257.800 30.920 15.400 1.660 37.829 184.900 258.900 257.100 0.3610 74.130 0.736 240.100 455.00 374.50 2.92 62.71
DSCMET_COMPS 2018-09-28 15:55:00 23.000 25.530 27.250 28.740 29.720 46.700 11.000 14.972 259.800 259.800 257.800 31.380 14.500 1.186 39.245 184.800 259.100 257.100 0.4090 14.640 1.190 231.700 458.30 375.70 3.60 64.32
DSCMET_COMPS 2018-09-28 15:50:00 23.280 25.780 27.430 28.810 29.720 44.800 10.630 15.771 259.800 259.800 257.800 31.410 14.310 1.027 39.399 184.900 259.100 257.100 0.4110 228.800 1.303 189.200 461.60 376.60 4.78 72.16
DSCMET_COMPS 2018-09-28 15:45:00 23.270 25.640 27.350 28.910 29.940 45.060 10.710 15.687 259.800 259.800 257.800 31.500 14.480 1.261 39.522 184.800 259.100 257.100 0.3190 312.800 0.849 229.900 465.10 377.90 6.77 76.16
DSCMET_COMPS 2018-09-28 15:40:00 23.180 25.650 27.580 29.190 30.090 45.450 10.760 15.491 259.800 259.800 257.800 31.470 13.800 0.572 39.769 185.000 259.100 257.100 0.3900 60.800 1.077 185.900 469.40 378.00 10.78 75.75
DSCMET_COMPS 2018-09-28 15:35:00 23.570 26.370 28.180 29.500 30.260 44.150 10.670 16.238 259.800 259.800 257.800 31.460 13.030 -0.226 40.101 185.000 259.100 257.100 0.3490 97.300 1.429 213.100 475.40 379.00 13.04 112.90
DSCMET_COMPS 2018-09-28 15:30:00 23.620 26.170 27.660 28.810 29.880 43.800 10.600 16.389 259.800 259.800 257.800 31.450 14.470 1.212 39.415 184.700 259.100 257.100 0.4660 1.224 1.108 207.900 481.10 383.40 18.39 285.80
DSCMET_COMPS 2018-09-28 15:25:00 23.900 26.260 27.660 28.850 30.160 42.960 10.570 16.916 259.800 259.800 257.800 31.660 14.290 1.204 39.971 184.800 259.100 257.200 0.3160 104.600 0.843 259.700 487.30 387.00 23.99 329.20
DSCMET_COMPS 2018-09-28 15:20:00 24.050 26.710 28.570 29.770 30.550 43.490 10.880 16.911 259.800 259.800 257.800 31.630 13.800 0.697 40.131 184.900 259.100 257.400 0.2740 217.400 0.913 230.900 494.30 387.70 33.55 365.00
DSCMET_COMPS 2018-09-28 15:15:00 24.210 27.030 28.740 30.040 30.540 40.930 10.090 17.847 260.000 260.000 257.800 31.600 13.760 0.633 40.081 184.900 259.100 257.300 0.6140 25.450 1.650 190.100 500.00 387.30 36.66 363.20
DSCMET_COMPS 2018-09-28 15:10:00 23.880 26.680 28.570 29.970 30.620 42.280 10.310 17.097 259.800 259.800 257.800 31.700 13.800 0.752 40.290 184.900 259.100 257.400 0.4170 134.700 0.878 179.100 508.20 388.90 46.35 395.40
DSCMET_COMPS 2018-09-28 15:05:00 23.970 26.640 28.480 29.860 30.640 41.420 10.070 17.446 259.800 259.800 257.800 31.690 14.420 1.353 39.978 185.000 259.200 257.400 0.2260 126.400 1.783 230.200 509.70 388.10 50.54 400.80
DSCMET_COMPS 2018-09-28 15:00:00 23.820 26.340 28.400 30.060 30.540 43.170 10.550 16.773 259.800 259.800 257.800 31.560 14.280 1.116 39.749 185.200 259.300 257.400 0.2310 46.060 1.518 177.700 512.70 387.60 54.46 397.60
DSCMET_COMPS 2018-09-28 14:55:00 23.880 26.570 28.540 29.810 30.430 43.190 10.630 16.828 259.800 259.800 257.800 31.620 14.740 1.604 39.671 184.600 259.200 257.400   0.000 4.315 162.200 514.90 387.20 48.33 355.50
DSCMET_COMPS 2018-09-28 14:50:00 24.090 26.790 28.900 30.200 30.690 42.920 10.720 17.122 259.800 259.800 257.800 31.860 15.080 2.111 40.053 184.400 259.300 257.400 0.2960 66.080 0.930 204.700 519.90 389.30 50.77 365.60
DSCMET_COMPS 2018-09-28 14:45:00 24.490 27.780 29.660 30.490 30.840 41.060 10.410 18.109 259.800 259.900 257.800 31.820 15.500 2.465 39.765 185.100 259.400 257.400 0.3660 150.400 0.674 214.900 535.10 394.40 68.25 456.30
DSCMET_COMPS 2018-09-28 14:40:00 24.260 27.460 29.290 30.270 30.670 41.550 10.380 17.713 259.800 259.900 257.800 31.850 14.930 1.964 40.101 184.800 259.300 257.400 0.5460 2.109 1.029 192.900 539.30 396.30 71.73 480.80
DSCMET_COMPS 2018-09-28 14:35:00 24.290 27.660 29.280 30.270 30.680 41.810 10.510 17.666 260.400 260.100 257.800 31.850 14.710 1.757 40.205 185.300 259.400 257.400 0.4390 42.090 1.473 210.300 541.10 394.50 71.57 485.50
DSCMET_COMPS 2018-09-28 14:30:00 24.280 27.050 28.780 29.920 30.630 40.950 10.180 17.916 260.500 259.800 257.800 31.940 15.640 2.686 39.969 185.200 259.200 257.400 0.4520 76.570 0.845 241.800 543.90 394.70 79.06 519.60
DSCMET_COMPS 2018-09-28 14:25:00 24.340 27.510 29.380 30.280 30.750 42.460 10.790 17.521 260.500 259.800 257.800 31.810 15.290 2.265 39.841 185.200 259.400 257.500 0.2490 120.200 1.083 240.900 549.90 396.70 85.90 552.40
DSCMET_COMPS 2018-09-28 14:20:00 24.570 28.050 29.680 30.400 30.820 41.480 10.640 18.066 260.500 259.900 257.800 31.910 15.360 2.409 40.034 185.300 259.400 257.600 0.3420 58.410 0.744 210.500 544.20 395.50 78.95 516.10
DSCMET_COMPS 2018-09-28 14:15:00 24.490 27.740 29.440 30.230 30.740 41.600 10.620 17.943 260.500 259.900 257.800 31.730 15.310 2.220 39.652 185.200 259.200 257.600 0.5490 4.475 1.544 224.900 548.60 396.10 82.70 540.90
DSCMET_COMPS 2018-09-28 14:10:00 24.420 27.750 29.690 30.360 30.840 41.630 10.560 17.859 260.500 259.800 257.800 31.810 14.820 1.829 40.062 185.300 259.100 257.700 0.3280 125.300 1.186 171.400 549.90 396.20 86.70 559.50
DSCMET_COMPS 2018-09-28 14:05:00 24.580 28.290 29.990 30.490 30.790 39.620 9.960 18.651 260.500 260.100 257.800 31.630 15.140 1.985 39.507 185.500 259.000 257.500 0.4740 331.900 1.466 204.200 546.90 394.70 79.93 523.50
DSCMET_COMPS 2018-09-28 14:00:00 24.530 28.350 30.010 30.490 31.110 40.960 10.410 18.183 260.500 260.400 257.800 31.780 14.860 1.843 39.976 185.600 258.800 257.400 0.6050 88.600 1.935 188.300 546.10 394.10 72.06 479.80
DSCMET_COMPS 2018-09-28 13:55:00 24.710 28.360 30.150 30.740 31.360 41.770 10.870 18.127 260.500 260.500 257.800 31.930 13.890 1.022 40.776 185.800 258.800 257.500 0.5860 358.600 1.223 226.500 559.50 397.10 86.60 560.40
DSCMET_COMPS 2018-09-28 13:50:00 24.540 28.630 30.070 30.840 31.370 41.330 10.550 18.080 260.600 260.500 257.900 31.840 14.310 1.365 40.371 185.900 258.700 257.500 0.5550 350.900 1.407 198.700 565.00 397.90 95.30 606.20
DSCMET_COMPS 2018-09-28 13:45:00 24.250 28.290 29.860 30.530 31.310 44.290 11.340 16.872 260.800 260.500 258.100 31.900 14.830 1.909 40.262 186.100 258.600 257.700   0.000 1.377 201.600 569.90 399.60 101.20 644.00
DSCMET_COMPS 2018-09-28 13:40:00 23.950 27.970 29.870 30.760 31.570 45.510 11.480 16.209 261.200 260.600 258.500 31.610 15.290 2.107 39.393 185.000 258.900 257.700 0.6140 27.690 2.114 216.500 563.00 397.40 99.20 646.60
DSCMET_COMPS 2018-09-28 13:35:00 23.840 27.470 29.580 30.480 31.250 45.560 11.400 16.087 261.100 260.500 258.400 31.680 15.490 2.344 39.456 184.000 259.400 257.800 0.3920 6.326 1.815 219.900 564.30 398.70 100.50 649.30
DSCMET_COMPS 2018-09-28 13:30:00 23.930 27.200 29.740 30.550 31.420 45.280 11.370 16.257 261.200 260.500 258.200 31.820 15.390 2.365 39.817 183.100 259.700 257.800 0.2840 130.500 1.044 224.000 569.00 399.10 97.20 622.50
DSCMET_COMPS 2018-09-28 13:25:00 24.280 28.700 30.090 30.740 31.100 46.160 11.990 16.335 261.200 260.700 258.500 31.730 15.430 2.330 39.596 185.900 259.600 257.800 0.3810 126.500 0.822 218.500 567.20 398.00 93.50 607.90
DSCMET_COMPS 2018-09-28 13:20:00 23.780 27.270 29.530 30.460 31.230 48.170 12.180 15.261 261.200 260.500 258.500 31.710 15.460 2.341 39.537 186.000 259.600 257.800 0.2870 295.500 1.389 221.900 569.30 398.50 103.20 666.90
DSCMET_COMPS 2018-09-28 13:15:00 23.900 27.460 29.670 30.540 31.000 46.690 11.820 15.810 261.200 260.700 258.500 31.490 15.600 2.293 38.982 185.900 259.800 257.800 0.3710 215.100 1.572 219.400 570.80 399.10 106.60 688.20
DSCMET_COMPS 2018-09-28 13:10:00 23.810 28.000 29.580 30.610 30.810 47.430 11.970 15.507 261.200 261.200 258.500 31.340 15.690 2.254 38.611 185.800 259.500 257.800 0.4620 121.000 2.074 197.900 568.40 396.40 104.70 682.80
DSCMET_COMPS 2018-09-28 13:05:00 23.470 27.290 29.300 30.560 30.960 48.980 12.150 14.745 261.300 261.200 258.500 31.370 15.740 2.322 38.654 185.600 259.400 257.800 0.3590 64.230 0.916 221.700 567.30 397.00 107.80 702.20
DSCMET_COMPS 2018-09-28 13:00:00 23.320 27.030 29.160 30.450 30.680 50.440 12.450 14.194 261.800 261.200 258.500 31.020 15.900 2.185 37.820 185.900 259.800 257.800 0.3390 93.600 1.549 199.200 563.60 396.90 101.30 663.10
DSCMET_COMPS 2018-09-28 12:55:00 22.930 26.120 28.830 30.330 30.570 54.180 13.190 12.817 261.900 261.200 258.500 31.010 15.680 1.983 37.897 185.200 259.900 257.800 0.3280 326.700 1.785 189.500 566.10 397.50 106.40 699.50
DSCMET_COMPS 2018-09-28 12:50:00 22.730 25.960 28.520 30.150 30.720 54.570 13.120 12.555 261.900 261.500 258.500 30.930 15.430 1.695 37.837 185.800 260.000 257.800 0.3600 78.470 2.070 198.300 567.00 396.10 106.20 701.60
DSCMET_COMPS 2018-09-28 12:45:00 22.480 25.170 27.650 29.710 30.770 55.780 13.220 12.036 261.900 261.500 259.000 31.130 16.170 2.509 37.935 186.000 259.800 257.900 0.4310 45.240 1.516 187.800 561.60 393.90 110.30 727.30
DSCMET_COMPS 2018-09-28 12:40:00 22.110 24.860 27.200 29.170 30.520 55.950 12.910 11.723 261.900 261.700 259.500 31.160 17.090 3.312 37.583 186.600 260.100 258.100 0.3220 55.210 0.682 202.900 560.70 393.60 110.90 734.60
DSCMET_COMPS 2018-09-28 12:35:00 21.920 24.560 26.890 28.850 30.140 56.600 12.920 11.417 261.900 261.800 259.800 30.760 18.980 4.478 35.899 186.800 260.100 258.100   0.000 0.829 199.500 557.70 391.40 112.20 738.40
DSCMET_COMPS 2018-09-28 12:30:00 21.640 24.150 26.530 28.140 29.670 56.490 12.630 11.252 261.900 261.900 259.800 30.620 20.530 5.488 34.932 186.400 260.400 258.200 0.2330 20.980 0.680 218.600 553.30 389.70 111.20 730.90
DSCMET_COMPS 2018-09-28 12:25:00 21.580 24.040 26.090 28.000 29.270 57.510 12.840 10.948 261.900 261.900 259.800 30.130 21.000 5.411 33.766 186.400 260.300 258.100 0.2030 64.110 0.571 232.200 549.40 388.80 105.30 696.40
DSCMET_COMPS 2018-09-28 12:20:00 21.310 23.590 25.500 27.460 29.200 57.320 12.550 10.817 261.900 261.900 259.800 30.010 21.640 5.744 33.263 186.300 260.700 258.100 0.1220 25.660 0.743 233.300 546.80 387.20 105.70 704.80
DSCMET_COMPS 2018-09-28 12:15:00 21.150 23.230 25.120 27.210 28.930 57.670 12.490 10.624 261.900 261.900 259.800 30.160 22.810 6.630 33.049 186.200 260.800 258.300 0.1590 30.140 0.550 225.200 542.40 386.80 97.10 665.70
DSCMET_COMPS 2018-09-28 12:10:00 20.800 23.030 25.020 27.090 28.660 58.960 12.500 10.081 261.900 261.900 259.800 30.190 22.860 6.687 33.085 185.600 260.800 258.800 0.1640 34.090 0.466 225.500 540.40 385.40 100.40 687.40
DSCMET_COMPS 2018-09-28 12:05:00 20.510 22.850 24.870 27.090 28.540 60.490 12.620 9.533 261.900 261.900 259.800 29.750 22.530 6.110 32.398 185.800 260.900 259.000 0.1680 56.110 0.534 220.800 536.90 383.70 98.20 682.20
DSCMET_COMPS 2018-09-28 12:00:00 20.420 22.610 24.460 26.660 28.120 59.720 12.340 9.665 261.900 261.900 259.800 29.220 23.010 5.974 31.230 185.600 260.800 258.800 0.1990 70.860 0.557 242.300 534.80 383.80 100.20 699.50
DSCMET_COMPS 2018-09-28 11:55:00 20.190 22.380 24.210 26.210 27.800 59.610 12.100 9.555 261.900 262.200 259.800 28.950 24.200 6.478 30.271 185.600 260.800 258.400 0.2040 50.910 0.505 244.900 530.20 381.50 96.60 676.60
DSCMET_COMPS 2018-09-28 11:50:00 19.920 22.040 24.020 26.040 27.870 59.290 11.760 9.471 261.900 262.600 259.800 29.060 24.270 6.612 30.436 185.500 261.100 258.400 0.1930 54.000 0.495 235.500 530.70 381.70 99.30 703.20
DSCMET_COMPS 2018-09-28 11:45:00 19.600 21.840 23.840 25.890 27.550 63.620 12.530 8.297 261.900 262.600 259.800 28.720 24.830 6.658 29.623 185.000 261.100 258.400 0.1500 69.510 0.472 220.800 525.80 380.40 92.80 668.30
DSCMET_COMPS 2018-09-28 11:40:00 19.490 21.790 23.760 25.930 27.390 63.680 12.440 8.227 261.900 262.600 260.000 28.090 24.860 6.145 28.548 186.200 261.100 258.200 0.1890 73.010 0.464 243.800 522.20 379.50 91.80 675.80
DSCMET_COMPS 2018-09-28 11:35:00 19.320 21.620 23.510 25.550 27.210 63.030 12.120 8.286 261.900 262.600 260.400 27.880 24.930 6.009 28.174 185.400 261.100 258.100 0.2320 60.700 0.915 224.000 520.10 377.90 89.50 668.70
DSCMET_COMPS 2018-09-28 11:30:00 18.960 21.130 23.010 25.110 26.880 65.150 12.280 7.638 261.900 262.600 260.500 27.540 25.310 5.941 27.481 185.300 260.800 258.100   0.000 0.772 229.700 525.30 380.00 101.40 743.30
DSCMET_COMPS 2018-09-28 11:25:00 18.720 20.880 22.730 24.950 26.600 63.910 11.760 7.792 262.300 262.600 260.500 27.350 24.890 5.540 27.330 185.400 260.800 258.200   0.000 0.690 228.500 520.10 378.10 99.90 738.90
DSCMET_COMPS 2018-09-28 11:20:00 18.400 20.510 22.370 24.470 26.290 65.600 11.860 7.280 262.600 262.600 260.500 27.110 25.290 5.567 26.805 185.300 260.800 258.200 0.1170 67.270 0.681 226.400 515.50 377.00 97.20 732.00
DSCMET_COMPS 2018-09-28 11:15:00 18.250 20.220 21.770 23.800 26.020 63.430 11.210 7.667 262.600 262.600 260.500 27.140 24.850 5.340 27.011 185.000 260.900 258.400 0.1330 81.300 0.684 227.100 512.80 375.70 95.00 731.00
DSCMET_COMPS 2018-09-28 11:10:00 17.910 19.710 21.340 23.290 25.400 63.590 10.920 7.472 262.600 262.800 260.500 27.180 27.330 6.748 26.181 184.900 261.200 258.600 0.0700 68.350 0.380 227.100 505.90 373.10 91.10 725.40
DSCMET_COMPS 2018-09-28 11:05:00 17.500 19.330 20.950 22.930 24.940 65.220 10.920 6.955 262.600 263.000 260.500 26.960 27.540 6.672 25.770 184.800 261.000 258.800 0.0580 82.400 0.444 219.900 499.70 371.10 90.40 720.10
DSCMET_COMPS 2018-09-28 11:00:00 17.110 18.990 20.580 22.580 24.440 66.770 10.900 6.483 262.600 263.200 260.500 26.720 28.320 6.873 25.136 184.600 261.400 258.800 0.0770 77.720 0.329 209.200 494.90 368.70 91.10 713.50
DSCMET_COMPS 2018-09-28 10:55:00 16.660 18.470 20.270 22.110 23.890 68.670 10.890 5.941 262.600 263.200 260.500 26.250 29.450 7.040 24.065 184.500 261.600 258.600 0.0410 79.890 0.316 181.400 489.20 366.90 89.90 706.30
DSCMET_COMPS 2018-09-28 10:50:00 16.250 18.220 19.950 21.780 23.590 70.800 10.960 5.394 262.600 263.200 261.000 25.820 31.070 7.450 22.922 184.500 261.600 258.700 0.1010 85.100 0.231 182.100 483.20 365.40 88.20 701.10
DSCMET_COMPS 2018-09-28 10:45:00 15.920 17.900 19.560 21.440 23.110 72.260 10.950 5.018 262.600 263.200 261.200 25.550 30.430 6.913 22.768 184.600 261.900 258.600 0.1730 82.400 0.347 134.300 478.70 363.90 88.40 696.20
DSCMET_COMPS 2018-09-28 10:40:00 15.450 17.600 19.310 21.180 22.780 75.250 11.100 4.344 262.600 263.300 261.200 25.280 31.720 7.285 21.990 184.600 261.900 258.900 0.0770 17.700 0.359 153.300 471.70 362.00 84.50 690.50
DSCMET_COMPS 2018-09-28 10:35:00 15.260 17.330 18.990 20.990 22.360 75.420 10.950 4.262 262.600 263.300 261.200 24.430 35.320 8.117 19.801 184.600 261.900 259.200 0.2570 81.800 0.211 82.800 465.90 360.00 82.90 682.40
DSCMET_COMPS 2018-09-28 10:30:00 15.020 16.880 18.590 20.450 21.800 75.770 10.790 4.137 262.600 263.300 261.200 24.660 35.900 8.559 19.895 184.700 262.200 259.200 0.1330 77.790 0.581 124.400 459.90 358.60 77.58 675.80
DSCMET_COMPS 2018-09-28 10:25:00 14.550 16.420 18.360 19.910 21.440 77.620 10.700 3.707 262.600 263.300 261.200 23.970 34.510 7.373 19.504 184.700 262.300 259.200 0.1550 76.160 0.413 147.400 453.40 356.40 75.07 670.50
DSCMET_COMPS 2018-09-28 10:20:00 14.290 16.060 18.050 19.750 21.020 78.980 10.710 3.424 262.600 263.300 261.200 23.590 36.390 7.815 18.516 184.700 262.300 259.300   0.000 0.396 131.900 449.20 354.80 72.55 663.80
DSCMET_COMPS 2018-09-28 10:15:00 14.050 15.730 17.700 19.460 20.400 79.950 10.660 3.215 263.100 263.300 261.200 23.060 39.770 8.652 16.981 184.400 262.600 259.300 0.2400 80.900 0.101 297.800 444.30 352.60 68.58 649.90
DSCMET_COMPS 2018-09-28 10:10:00 13.780 15.380 17.410 19.160 20.060 81.400 10.660 2.931 263.300 263.300 261.200 23.240 38.620 8.379 17.494 184.200 262.600 259.400 0.2010 82.300 0.156 119.400 438.80 351.50 65.27 645.70
DSCMET_COMPS 2018-09-28 10:05:00 13.400 15.010 17.110 18.740 19.640 83.400 10.660 2.552 263.300 263.700 261.200 23.160 37.460 7.860 17.739 184.100 262.700 259.300 0.2060 83.100 0.325 141.900 432.90 349.80 63.50 638.10
DSCMET_COMPS 2018-09-28 10:00:00 13.010 14.580 16.780 18.460 19.280 84.200 10.420 2.368 263.300 264.000 261.300 22.900 37.410 7.610 17.476 184.100 262.700 259.400 0.2250 88.800 0.281 131.300 427.30 348.00 60.52 626.60
DSCMET_COMPS 2018-09-28 09:55:00 12.590 14.160 16.480 18.190 18.920 85.900 10.310 2.056 263.300 264.000 261.700 22.670 39.230 8.102 16.733 184.100 262.700 259.900 0.2230 83.800 0.178 122.800 421.40 346.20 56.49 616.90
DSCMET_COMPS 2018-09-28 09:50:00 12.320 13.830 16.170 17.900 18.640 86.500 10.150 1.934 263.300 264.000 261.900 22.230 41.110 8.398 15.788 184.100 262.700 260.000 0.3090 86.900 0.219 126.700 417.40 344.20 54.89 609.80
DSCMET_COMPS 2018-09-28 09:45:00 12.050 13.410 15.650 17.430 18.200 87.400 10.020 1.773 263.300 264.000 261.900 21.150 43.790 8.356 14.107 183.900 262.700 260.100 0.2420 87.800 0.129 94.500 414.10 343.20 49.49 600.50
DSCMET_COMPS 2018-09-28 09:40:00 11.700 12.970 15.270 17.170 17.950 88.300 9.840 1.609 263.300 264.000 261.900 20.260 45.630 8.156 12.918 183.900 262.900 260.100 0.2520 88.100 0.329 56.140 409.60 341.20 48.87 588.40
DSCMET_COMPS 2018-09-28 09:35:00 11.360 12.700 15.190 16.900 17.510 89.100 9.630 1.465 263.300 264.100 261.900 19.870 47.310 8.333 12.220 183.900 263.100 260.300 0.3420 87.000 0.266 59.840 406.10 339.10 45.59 578.00
DSCMET_COMPS 2018-09-28 09:30:00 10.950 12.520 14.780 16.170 16.950 89.600 9.320 1.361 263.300 264.500 261.900 19.800 46.540 8.028 12.345 184.100 263.200 260.300 0.3740 87.800 0.419 43.430 401.50 337.10 42.90 568.80
DSCMET_COMPS 2018-09-28 09:25:00 10.620 12.030 14.230 15.940 16.970 90.000 9.060 1.280 263.300 264.600 262.200 19.250 49.420 8.408 11.288 184.000 263.200 260.800 0.3190 89.000 0.176 56.270 398.40 336.80 38.49 557.10
DSCMET_COMPS 2018-09-28 09:20:00 10.360 11.660 13.860 15.630 16.440 90.400 8.860 1.207 263.300 264.600 262.600 18.920 51.350 8.670 10.636 183.600 263.200 261.600 0.2940 87.300 0.196 40.140 396.30 331.30 41.73 416.40
DSCMET_COMPS 2018-09-28 09:15:00 10.120 11.310 13.400 15.120 15.880 90.700 8.690 1.151 263.300 264.600 262.600 18.460 53.940 8.972 9.784 183.400 263.400 262.200 0.2820 87.100 0.120 80.100 393.60 329.90 38.54 475.60
DSCMET_COMPS 2018-09-28 09:10:00 9.910 10.970 12.920 14.640 15.450 91.200 8.550 1.074 263.300 264.300 262.600 18.020 55.530 8.993 9.189 183.500 263.600 262.800   0.000 0.143 84.700 391.60 330.40 39.21 515.90
DSCMET_COMPS 2018-09-28 09:05:00 9.710 10.750 12.480 14.260 15.030 91.300 8.370 1.048 263.300 263.800 262.600 17.260 57.540 8.810 8.363 183.700 263.600 262.700 0.2560 83.800 0.183 59.220 388.90 328.00 40.80 507.20
DSCMET_COMPS 2018-09-28 09:00:00 9.540 10.450 12.090 13.770 14.850 91.500 8.230 1.012 263.300 264.300 262.600 16.720 58.470 8.542 7.905 183.200 263.600 263.100 0.2350 86.300 0.281 37.930 385.00 326.10 41.78 496.00
DSCMET_COMPS 2018-09-28 08:55:00 9.350 10.080 11.710 13.400 14.530 91.700 8.080 0.976 263.300 264.600 262.600 15.810 63.630 8.934 6.533 182.700 263.900 263.200 0.2410 82.800 0.173 34.500 379.60 323.90 41.15 486.00
DSCMET_COMPS 2018-09-28 08:50:00 9.150 9.790 11.380 13.050 14.040 92.000 7.922 0.928 263.300 264.600 262.600 15.290 65.160 8.793 6.053 183.700 263.900 263.300 0.2430 86.700 0.171 345.200 372.10 320.50 35.74 399.50
DSCMET_COMPS 2018-09-28 08:45:00 9.020 9.570 11.000 12.690 13.640 92.100 7.822 0.908 263.300 264.600 262.600 14.860 68.000 9.015 5.408 183.400 264.000 263.300 0.2720 81.500 0.196 44.280 363.20 315.80 21.48 291.80
DSCMET_COMPS 2018-09-28 08:40:00 8.810 9.410 10.510 12.180 12.940 92.400 7.657 0.861 263.300 264.600 262.600 14.200 71.210 9.066 4.662 183.500 264.000 263.300 0.2440 84.100 0.218 343.300 357.10 312.00 8.38 160.20
DSCMET_COMPS 2018-09-28 08:35:00 8.720 9.080 10.110 11.680 12.370 92.400 7.561 0.856 263.300 264.600 262.600 13.850 73.470 9.193 4.200 183.500 264.000 263.500 0.2320 75.390 0.164 83.100 354.70 307.90 2.98 46.58
DSCMET_COMPS 2018-09-28 08:30:00 8.590 8.940 9.820 11.470 12.240 92.700 7.485 0.815 263.300 264.600 262.600 13.500 75.960 9.349 3.720 183.400 264.000 263.600 0.2740 85.400 0.174 40.100 353.10 306.10 1.30 36.61
DSCMET_COMPS 2018-09-28 08:25:00 8.440 8.690 9.460 11.060 11.840 92.700 7.340 0.807 263.300 264.600 262.600 13.090 76.860 9.127 3.486 183.800 264.000 263.700 0.2290 73.270 0.156 30.750 351.90 304.80 0.33 31.90
DSCMET_COMPS 2018-09-28 08:20:00 8.390 8.540 9.230 10.750 11.510 92.700 7.291 0.804 263.300 264.600 262.600 12.680 78.590 9.059 3.140 183.400 264.000 263.700 0.2640 76.670 0.119 25.380 351.10 303.60 -0.19 29.16
DSCMET_COMPS 2018-09-28 08:15:00 8.270 8.400 9.040 10.490 11.220 93.000 7.211 0.765 263.300 264.600 262.600 12.210 80.400 8.939 2.787 183.400 264.000 263.500 0.2430 76.840 0.124 25.680 350.50 302.80 -0.37 27.79
DSCMET_COMPS 2018-09-28 08:10:00 8.190 8.320 8.930 10.340 11.100 92.900 7.128 0.772 263.300 264.600 262.600 12.020 80.400 8.754 2.752 183.100 264.000 263.300 0.2680 83.500 0.296 32.390 350.00 302.10 -0.29 26.87
DSCMET_COMPS 2018-09-28 08:05:00 8.170 8.230 8.670 9.950 10.810 92.900 7.104 0.770 263.300 264.600 262.700 12.120 78.510 8.500 3.038 183.100 264.300 263.300   0.000 0.688 30.280 349.50 301.50 -0.45 25.38
DSCMET_COMPS 2018-09-28 08:00:00 8.100 8.170 8.470 9.680 10.500 92.800 7.018 0.778 263.300 264.600 262.600 11.730 79.990 8.396 2.757 182.700 264.300 263.200 0.2490 82.600 0.987 29.200 348.90 300.80 -0.63 23.82
DSCMET_COMPS 2018-09-28 07:55:00 8.050 8.120 8.350 9.200 9.940 92.900 6.976 0.764 263.300 264.600 262.600 11.200 83.000 8.424 2.261 182.900 264.300 263.200 0.2140 80.000 0.415 29.300 348.40 300.40 -0.74 22.67
DSCMET_COMPS 2018-09-28 07:50:00 8.030 8.080 8.280 8.750 9.300 92.900 6.959 0.763 263.300 264.600 262.600 11.130 82.300 8.230 2.343 182.600 264.300 263.800 0.1940 73.240 0.744 46.900 348.10 300.50 -0.81 21.69
DSCMET_COMPS 2018-09-28 07:45:00 8.030 8.060 8.240 8.620 9.020 92.900 6.952 0.763 263.300 264.600 262.600 10.680 84.200 8.126 2.030 182.500 264.300 264.000 0.1790 85.700 0.873 54.710 347.50 300.20 -0.84 20.59
DSCMET_COMPS 2018-09-28 07:40:00 7.929 8.170 8.330 8.590 8.700 92.900 6.858 0.758 263.300 264.600 262.600 10.140 87.200 8.110 1.586 182.800 264.300 264.000 0.2010 84.800 0.737 38.220 347.20 300.00 -1.06 19.49
DSCMET_COMPS 2018-09-28 07:35:00 8.060 8.160 8.350 8.450 8.490 92.700 6.950 0.786 263.300 264.600 262.600 9.970 87.600 8.010 1.520 182.900 264.300 264.000 0.1900 78.080 0.179 53.580 346.80 299.80 -1.08 18.29
DSCMET_COMPS 2018-09-28 07:30:00 8.020 8.210 8.310 8.520 8.600 93.000 6.964 0.752 263.300 264.600 262.600 10.110 86.700 7.996 1.645 182.900 264.300 264.000 0.2620 78.150 0.668 39.710 346.80 299.50 -1.08 17.31
DSCMET_COMPS 2018-09-28 07:25:00 7.907 8.100 8.180 8.350 8.390 93.000 6.848 0.746 263.300 264.600 262.600 9.810 88.700 8.036 1.370 183.000 264.300 264.000 0.2780 70.820 0.449 48.210 346.40 299.40 -1.19 16.20
DSCMET_COMPS 2018-09-28 07:20:00 7.956 8.110 8.130 8.200 8.290 92.800 6.862 0.770 263.300 264.600 262.600 9.610 89.300 7.938 1.280 183.000 264.300 264.000 0.2380 64.780 0.369 53.600 346.20 298.90 -1.21 15.03
DSCMET_COMPS 2018-09-28 07:15:00 7.947 8.120 8.180 8.390 8.490 92.800 6.864 0.770 263.300 264.600 262.600 9.830 87.800 7.906 1.481 182.900 264.300 263.800 0.2620 69.920 0.699 40.260 346.00 298.70 -1.24 14.15
DSCMET_COMPS 2018-09-28 07:10:00 7.959 8.050 8.140 8.380 8.470 92.700 6.853 0.781 263.300 264.600 262.600 10.100 86.700 7.987 1.644 183.600 264.300 263.900 0.2350 71.420 0.586 57.800 345.90 299.10 -1.13 13.38
DSCMET_COMPS 2018-09-28 07:05:00 7.985 8.130 8.170 8.360 8.450 92.600 6.869 0.793 263.300 264.600 262.600 10.070 86.700 7.957 1.641 183.600 264.300 264.000 0.3030 75.810 0.621 57.760 345.30 298.80 -1.39 12.25
DSCMET_COMPS 2018-09-28 07:00:00 7.920 8.140 8.130 8.280 8.470 93.000 6.858 0.747 263.300 264.600 262.600 10.120 86.600 7.989 1.659 182.900 264.300 264.000 0.2350 72.420 1.117 44.370 345.20 298.80 -1.46 11.23
DSCMET_COMPS 2018-09-28 06:55:00 7.941 8.030 8.110 8.280 8.450 92.500 6.813 0.801 263.300 264.600 262.600 10.040 87.300 8.029 1.564 182.600 264.300 264.000   0.000 0.449 65.110 344.90 299.20 -1.42 10.26
DSCMET_COMPS 2018-09-28 06:50:00 8.030 8.110 8.290 8.480 8.720 92.500 6.899 0.806 263.300 264.600 262.600 10.050 87.100 8.005 1.589 183.700 264.300 264.000 0.3670 86.100 0.913 53.410 344.60 298.90 -1.58 9.00
DSCMET_COMPS 2018-09-28 06:45:00 7.922 8.130 8.200 8.380 8.490 92.900 6.849 0.758 263.300 264.600 262.600 9.710 89.300 8.036 1.289 183.900 264.300 264.000 0.2460 70.680 0.936 26.630 344.20 299.10 -1.60 7.96
DSCMET_COMPS 2018-09-28 06:40:00 7.978 8.050 8.110 8.270 8.380 92.600 6.867 0.793 263.200 264.600 262.600 9.810 88.600 8.019 1.382 184.000 264.300 264.000 0.2190 67.300 0.467 53.960 344.10 299.50 -1.58 6.78
DSCMET_COMPS 2018-09-28 06:35:00 8.020 8.140 8.160 8.370 8.470 92.500 6.888 0.806 263.200 264.600 262.600 9.940 87.800 8.014 1.492 183.800 264.300 264.000 0.2140 83.800 0.910 51.080 344.00 299.30 -1.58 5.39
DSCMET_COMPS 2018-09-28 06:30:00 8.020 8.160 8.220 8.440 8.610 92.300 6.859 0.827 263.300 264.600 262.600 10.060 87.600 8.099 1.529 183.000 264.300 264.000 0.2140 81.800 0.783 52.370 343.10 299.20 -1.80 3.72
DSCMET_COMPS 2018-09-28 06:25:00 8.040 8.220 8.290 8.400 8.430 92.400 6.890 0.817 263.200 264.600 262.600 10.000 88.000 8.107 1.473 183.800 264.300 264.000 0.2610 74.260 0.823 41.580 342.80 299.10 -1.94 2.30
DSCMET_COMPS 2018-09-28 06:20:00 8.050 8.260 8.340 8.450 8.490 92.400 6.895 0.818 263.300 264.600 262.600 10.040 87.800 8.113 1.502 184.200 264.300 264.000 0.2910 69.830 0.594 42.170 342.90 299.50 -2.01 0.86
DSCMET_COMPS 2018-09-28 06:15:00 8.060 8.260 8.360 8.530 8.640 92.600 6.933 0.797 263.200 264.600 262.600 9.940 88.400 8.114 1.419 184.400 264.300 264.000 0.2730 70.250 0.696 43.970 342.90 299.40 -2.13 -0.80
DSCMET_COMPS 2018-09-28 06:10:00 8.050 8.310 8.370 8.500 8.570 92.700 6.944 0.786 263.200 264.600 262.600 9.850 89.100 8.142 1.325 184.400 264.300 264.000 0.2990 68.320 0.582 42.490 342.70 299.50 -2.17 -2.06
DSCMET_COMPS 2018-09-28 06:05:00 8.080 8.380 8.400 8.460 8.480 92.600 6.952 0.798 263.100 264.600 262.600 9.720 89.800 8.128 1.229 184.400 264.300 264.000 0.2830 69.690 0.364 47.570 342.60 300.30 -2.06 -3.25
DSCMET_COMPS 2018-09-28 06:00:00 8.130 8.440 8.490 8.590 8.690 92.500 6.995 0.812 263.100 264.600 262.600 9.880 89.100 8.171 1.328 184.500 264.300 264.000 0.3680 71.060 0.530 44.340 342.60 300.40 -2.38 -4.26
DSCMET_COMPS 2018-09-28 05:55:00 8.160 8.350 8.370 8.460 8.470 92.500 7.028 0.813 263.100 264.600 262.600 9.830 89.800 8.237 1.238 184.600 264.300 264.000 0.1840 65.380 0.487 41.740 342.80 300.20 -2.49 -4.96
DSCMET_COMPS 2018-09-28 05:50:00 8.150 8.330 8.320 8.380 8.360 92.600 7.019 0.802 263.100 264.600 262.600 9.790 90.100 8.247 1.199 184.300 264.300 264.000   0.000 0.472 40.950 342.80 300.70 -2.21 -5.24
DSCMET_COMPS 2018-09-28 05:45:00 8.160 8.350 8.370 8.380 8.440 92.500 7.034 0.813 263.100 264.600 262.600 9.630 90.700 8.186 1.114 184.500 264.300 263.900 0.1740 57.950 0.231 53.460 343.30 300.80 -2.43 -5.62
DSCMET_COMPS 2018-09-28 05:40:00 8.230 8.320 8.350 8.420 8.440 92.200 7.038 0.850 263.000 264.600 262.600 9.950 88.900 8.207 1.358 184.700 264.300 263.800 0.1870 64.750 0.535 42.000 343.00 300.40 -2.63 -5.77
DSCMET_COMPS 2018-09-28 05:35:00 8.200 8.410 8.420 8.500 8.510 92.300 7.022 0.837 262.700 264.600 262.600 10.230 88.100 8.350 1.484 184.800 264.300 263.900 0.1560 65.410 0.571 55.410 343.00 300.70 -2.58 -5.66
DSCMET_COMPS 2018-09-28 05:30:00 8.310 8.460 8.470 8.590 8.670 92.000 7.089 0.876 262.600 264.600 262.600 10.300 87.700 8.352 1.541 184.900 264.300 263.700 0.2100 68.060 0.486 55.610 343.40 301.00 -2.60 -5.66
DSCMET_COMPS 2018-09-28 05:25:00 8.430 8.510 8.520 8.640 8.700 91.800 7.187 0.906 262.600 264.600 262.600 10.250 88.000 8.353 1.498 184.900 264.000 263.700 0.2660 78.360 0.623 53.740 343.70 301.10 -2.46 -5.66
DSCMET_COMPS 2018-09-28 05:20:00 8.530 8.540 8.580 8.780 8.840 91.600 7.253 0.934 262.600 264.600 262.600 10.350 87.800 8.418 1.534 184.900 264.000 263.700 0.2460 71.150 0.647 53.340 343.90 301.40 -2.33 -5.60
DSCMET_COMPS 2018-09-28 05:15:00 8.570 8.610 8.670 8.880 8.940 91.500 7.275 0.948 262.600 264.600 262.600 10.350 87.600 8.384 1.559 185.100 264.000 263.700 0.2970 84.700 0.768 47.880 344.20 301.20 -2.58 -5.84
DSCMET_COMPS 2018-09-28 05:10:00 8.500 8.650 8.630 8.770 8.810 91.800 7.255 0.910 262.600 264.600 262.600 10.170 88.800 8.407 1.391 185.000 264.000 263.800 0.2420 72.780 0.728 42.490 344.70 301.40 -2.58 -5.83
DSCMET_COMPS 2018-09-28 05:05:00 8.580 8.620 8.690 8.800 8.860 91.500 7.278 0.948 262.600 264.600 262.600 10.240 88.100 8.360 1.485 184.800 264.000 263.600 0.2230 73.020 0.321 55.010 344.20 301.70 -2.64 -5.80
DSCMET_COMPS 2018-09-28 05:00:00 8.600 8.760 8.790 8.930 9.030 91.200 7.260 0.983 262.600 264.600 262.600 10.510 87.200 8.474 1.626 184.700 264.000 263.600 0.2270 81.900 1.085 44.660 344.50 302.20 -2.69 -5.73
DSCMET_COMPS 2018-09-28 04:55:00 8.680 8.790 8.860 9.020 9.130 90.900 7.282 1.022 262.600 264.600 262.600 10.520 87.000 8.450 1.653 184.800 264.000 263.600 0.2340 82.500 0.536 49.880 344.40 302.20 -2.73 -5.78
DSCMET_COMPS 2018-09-28 04:50:00 8.740 8.870 8.990 9.130 9.120 90.800 7.322 1.038 262.600 264.600 262.600 10.560 86.900 8.473 1.670 184.900 264.000 263.600 0.2820 81.600 0.742 46.440 344.50 302.30 -2.70 -5.80
DSCMET_COMPS 2018-09-28 04:45:00 8.790 8.930 9.000 9.130 9.150 90.900 7.382 1.030 262.600 264.600 262.600 10.680 86.400 8.506 1.748 184.900 264.000 263.600 0.2850 82.800 0.552 35.240 345.00 302.60 -2.69 -5.80
DSCMET_COMPS 2018-09-28 04:40:00 8.790 8.940 9.000 9.220 9.270 90.900 7.395 1.030 262.600 264.600 262.600 10.780 86.200 8.570 1.785 184.900 264.000 263.600   0.000 0.800 49.470 345.20 303.00 -2.78 -5.85
DSCMET_COMPS 2018-09-28 04:35:00 8.790 8.940 9.070 9.270 9.290 91.100 7.415 1.007 262.600 264.600 262.600 10.790 86.300 8.597 1.773 184.900 264.000 263.600 0.2520 76.660 0.538 48.980 345.30 303.00 -2.69 -5.79
DSCMET_COMPS 2018-09-28 04:30:00 8.730 8.980 9.050 9.140 9.170 91.200 7.378 0.992 262.600 264.600 262.600 10.480 88.100 8.596 1.509 184.800 264.000 263.600 0.2710 74.130 0.582 41.390 345.40 302.90 -2.66 -5.79
DSCMET_COMPS 2018-09-28 04:25:00 8.790 9.040 9.060 9.080 9.100 90.900 7.393 1.030 262.600 264.500 262.600 10.330 88.500 8.515 1.444 184.800 264.000 263.600 0.3030 74.850 0.214 56.600 345.70 303.00 -2.63 -5.86
DSCMET_COMPS 2018-09-28 04:20:00 8.870 9.060 9.090 9.150 9.180 90.800 7.455 1.047 262.600 264.400 262.600 10.600 87.500 8.614 1.598 184.800 264.000 263.500 0.2840 72.640 0.382 43.150 346.00 303.30 -2.60 -5.87
DSCMET_COMPS 2018-09-28 04:15:00 8.950 9.100 9.150 9.210 9.200 90.700 7.516 1.064 262.600 264.300 262.600 10.650 87.000 8.578 1.667 184.800 264.000 263.300 0.2480 75.320 0.347 50.930 346.20 303.30 -2.65 -5.77
DSCMET_COMPS 2018-09-28 04:10:00 8.970 9.120 9.180 9.230 9.230 90.500 7.507 1.088 262.600 264.000 262.600 10.760 86.500 8.601 1.744 184.800 263.900 263.300 0.2330 74.820 0.282 66.320 346.80 303.60 -2.66 -5.79
DSCMET_COMPS 2018-09-28 04:05:00 8.990 9.220 9.230 9.290 9.330 90.600 7.540 1.078 262.600 263.900 262.600 10.850 86.200 8.638 1.793 184.800 263.900 263.300 0.2660 77.770 0.339 58.630 346.80 303.50 -2.70 -5.89
DSCMET_COMPS 2018-09-28 04:00:00 9.050 9.210 9.310 9.400 9.390 90.300 7.544 1.117 262.600 263.900 262.600 10.910 85.900 8.646 1.840 184.800 263.900 263.300 0.2770 76.170 0.384 62.750 346.90 303.80 -2.69 -5.90
DSCMET_COMPS 2018-09-28 03:55:00 9.080 9.270 9.340 9.440 9.460 90.300 7.576 1.120 262.600 263.900 262.600 10.940 86.000 8.693 1.830 184.600 263.700 263.300 0.3040 79.460 0.560 45.900 347.30 304.00 -2.70 -5.92
DSCMET_COMPS 2018-09-28 03:50:00 9.130 9.280 9.310 9.380 9.420 90.200 7.613 1.135 262.600 263.900 262.500 10.800 86.400 8.624 1.762 184.700 263.600 263.200 0.2420 78.550 0.348 47.370 347.40 304.40 -2.71 -5.80
DSCMET_COMPS 2018-09-28 03:45:00 9.250 9.350 9.390 9.530 9.630 89.900 7.677 1.179 262.600 263.900 262.300 11.190 84.600 8.695 2.047 184.600 263.600 263.200 0.2390 86.600 0.759 47.760 347.60 305.00 -2.73 -5.85
DSCMET_COMPS 2018-09-28 03:40:00 9.350 9.410 9.390 9.490 9.680 89.600 7.735 1.222 262.600 263.900 262.100 11.340 84.100 8.755 2.135 184.500 263.800 263.200 0.2230 87.800 0.914 43.510 348.00 305.10 -2.72 -5.88
DSCMET_COMPS 2018-09-28 03:35:00 9.390 9.480 9.470 9.550 9.670 89.500 7.758 1.238 262.600 263.900 261.900 11.400 84.100 8.814 2.143 184.700 263.700 263.100   0.000 0.849 45.110 348.20 305.10 -2.77 -6.03
DSCMET_COMPS 2018-09-28 03:30:00 9.370 9.480 9.520 9.610 9.660 89.500 7.747 1.236 262.600 263.900 261.900 11.370 84.300 8.819 2.112 184.900 263.600 263.100 0.1830 84.800 0.523 52.460 348.40 305.60 -2.69 -5.94
DSCMET_COMPS 2018-09-28 03:25:00 9.460 9.510 9.630 9.760 9.830 89.400 7.819 1.255 262.600 263.900 261.900 11.250 84.700 8.772 2.042 184.800 263.600 262.900 0.2740 85.400 0.369 52.580 348.90 306.00 -2.69 -5.97
DSCMET_COMPS 2018-09-28 03:20:00 9.500 9.590 9.720 9.860 9.820 89.500 7.870 1.247 262.600 263.900 261.900 11.320 84.400 8.788 2.092 185.100 263.600 262.900 0.2760 81.700 0.995 48.590 349.30 306.00 -2.70 -5.95
DSCMET_COMPS 2018-09-28 03:15:00 9.540 9.620 9.660 9.800 9.820 89.700 7.939 1.226 262.600 263.900 261.900 11.420 84.200 8.851 2.133 185.300 263.600 262.900 0.2050 77.260 0.548 51.950 349.50 306.30 -2.73 -5.91
DSCMET_COMPS 2018-09-28 03:10:00 9.560 9.640 9.650 9.800 9.820 89.300 7.893 1.276 262.600 263.900 261.900 11.420 84.100 8.833 2.146 185.300 263.600 262.900 0.2240 78.300 0.556 52.380 349.60 306.60 -2.68 -5.87
DSCMET_COMPS 2018-09-28 03:05:00 9.610 9.690 9.750 9.890 9.920 89.000 7.891 1.316 262.600 263.900 261.900 11.600 83.500 8.903 2.254 185.200 263.600 262.900 0.2400 83.700 0.886 47.710 349.90 307.10 -2.62 -5.81
DSCMET_COMPS 2018-09-28 03:00:00 9.660 9.770 9.880 9.940 9.970 89.100 7.957 1.308 262.600 263.900 261.900 11.510 84.000 8.904 2.172 185.400 263.600 262.900 0.2750 82.000 0.809 43.290 350.40 307.20 -2.65 -5.91
DSCMET_COMPS 2018-09-28 02:55:00 9.700 9.840 9.910 10.040 10.110 88.800 7.944 1.348 262.600 263.900 261.900 11.550 84.000 8.943 2.178 185.200 263.600 262.900 0.2200 88.200 0.930 36.060 350.80 307.40 -2.69 -5.89
DSCMET_COMPS 2018-09-28 02:50:00 9.710 9.880 9.890 9.990 10.100 89.000 7.984 1.325 262.600 263.900 261.900 11.740 83.100 8.969 2.330 185.200 263.600 262.900 0.1730 82.200 1.088 38.290 350.70 308.30 -2.76 -5.83
DSCMET_COMPS 2018-09-28 02:45:00 9.790 9.930 10.010 10.100 10.150 88.900 8.050 1.344 262.600 263.900 261.900 11.710 83.000 8.922 2.339 185.100 263.600 262.900 0.1870 92.500 0.371 40.780 351.00 308.40 -2.76 -5.93
DSCMET_COMPS 2018-09-28 02:40:00 9.830 10.060 10.110 10.220 10.300 88.600 8.040 1.384 262.600 263.900 261.900 11.750 82.900 8.943 2.359 185.200 263.600 262.900 0.2120 90.500 0.519 39.470 351.00 308.50 -2.76 -5.88
DSCMET_COMPS 2018-09-28 02:35:00 9.940 10.140 10.210 10.420 10.440 88.300 8.110 1.431 262.600 263.900 261.900 11.810 82.700 8.966 2.396 185.100 263.600 262.900 0.2410 90.000 0.474 44.370 351.40 308.90 -2.77 -5.93
DSCMET_COMPS 2018-09-28 02:30:00 9.950 10.140 10.200 10.360 10.420 88.400 8.130 1.420 262.600 263.900 261.900 11.850 82.900 9.041 2.375 185.000 263.600 262.900 0.2060 83.900 0.389 30.590 351.60 309.20 -2.74 -5.84
DSCMET_COMPS 2018-09-28 02:25:00 10.000 10.200 10.270 10.350 10.340 88.200 8.160 1.449 262.600 263.900 261.900 11.760 83.300 9.025 2.305 184.900 263.600 262.900   0.000 0.345 46.000 352.20 309.30 -2.63 -5.81
DSCMET_COMPS 2018-09-28 02:20:00 10.030 10.200 10.310 10.380 10.400 88.200 8.170 1.452 262.600 263.900 261.900 11.700 83.700 9.037 2.241 184.700 263.500 262.700 0.2340 84.700 0.393 29.780 352.00 309.50 -2.55 -5.78
DSCMET_COMPS 2018-09-28 02:15:00 10.120 10.280 10.500 10.640 10.660 87.800 8.200 1.510 262.600 263.700 261.900 12.050 82.000 9.075 2.533 185.000 263.500 262.800 0.2930 90.300 0.682 43.500 352.60 310.00 -2.71 -5.88
DSCMET_COMPS 2018-09-28 02:10:00 10.190 10.400 10.510 10.620 10.620 87.800 8.260 1.517 262.600 263.500 261.900 12.290 80.900 9.109 2.730 185.000 263.300 262.600 0.2880 88.700 0.796 30.710 352.70 309.60 -2.76 -5.98
DSCMET_COMPS 2018-09-28 02:05:00 10.200 10.410 10.520 10.650 10.690 87.700 8.260 1.531 262.600 263.400 261.900 12.360 80.600 9.122 2.786 184.800 263.300 262.700 0.2180 86.100 0.709 40.500 352.80 309.90 -2.78 -5.87
DSCMET_COMPS 2018-09-28 02:00:00 10.260 10.470 10.570 10.710 10.660 87.600 8.300 1.549 262.600 263.300 261.900 12.080 82.200 9.140 2.510 184.500 263.300 262.800 0.2890 87.000 0.439 50.840 353.10 310.40 -2.78 -5.96
DSCMET_COMPS 2018-09-28 01:55:00 10.310 10.550 10.630 10.750 10.770 87.400 8.310 1.580 262.600 263.300 261.900 12.080 82.300 9.158 2.495 184.600 263.300 262.700 0.3020 87.500 0.356 41.790 353.20 310.40 -2.79 -5.94
DSCMET_COMPS 2018-09-28 01:50:00 10.350 10.630 10.670 10.710 10.700 87.300 8.340 1.596 262.600 263.200 261.900 12.000 82.600 9.134 2.440 184.400 263.200 262.600 0.3500 85.200 0.340 37.350 353.70 310.60 -2.74 -5.97
DSCMET_COMPS 2018-09-28 01:45:00 10.480 10.590 10.630 10.670 10.660 87.300 8.460 1.610 262.600 263.200 261.900 12.010 83.100 9.233 2.372 184.400 263.200 262.600 0.2000 86.800 0.410 30.930 354.40 311.00 -2.75 -6.01
DSCMET_COMPS 2018-09-28 01:40:00 10.480 10.630 10.640 10.740 10.710 87.300 8.470 1.610 262.600 263.200 261.900 12.140 82.200 9.199 2.519 184.000 263.200 262.600 0.2350 85.300 0.392 37.700 354.90 311.20 -2.70 -6.00
DSCMET_COMPS 2018-09-28 01:35:00 10.530 10.680 10.720 10.870 10.870 87.100 8.500 1.641 262.600 263.200 261.900 12.460 80.900 9.275 2.761 183.800 263.200 262.600 0.2760 88.300 0.341 58.820 355.00 311.40 -2.72 -5.99
DSCMET_COMPS 2018-09-28 01:30:00 10.520 10.790 10.810 11.010 11.090 87.200 8.480 1.627 262.600 263.200 261.900 12.680 79.910 9.306 2.946 183.300 263.200 262.600 0.2920 90.100 0.856 47.960 354.80 311.80 -2.64 -5.84
DSCMET_COMPS 2018-09-28 01:25:00 10.570 10.810 10.870 11.020 11.080 87.000 8.510 1.658 262.600 263.200 261.900 12.640 80.200 9.321 2.896 183.700 263.200 262.600 0.2120 90.000 0.454 48.820 354.90 312.20 -2.66 -5.98
DSCMET_COMPS 2018-09-28 01:20:00 10.700 10.960 11.040 11.160 11.230 86.800 8.600 1.698 262.600 263.200 261.900 12.750 79.610 9.319 3.004 184.200 263.200 262.600 0.2570 94.900 0.524 39.200 355.10 311.80 -2.83 -6.08
DSCMET_COMPS 2018-09-28 01:15:00 10.750 10.980 11.000 11.100 11.120 86.300 8.560 1.769 262.600 263.200 261.900 12.640 80.400 9.358 2.867 184.100 263.200 262.500   0.000 0.477 37.680 355.50 312.10 -2.86 -6.06
DSCMET_COMPS 2018-09-28 01:10:00 10.760 11.010 11.090 11.160 11.110 86.500 8.600 1.744 262.600 263.200 261.900 12.590 80.500 9.328 2.843 184.100 263.200 262.200 0.2350 87.000 0.317 24.830 355.70 312.60 -2.79 -6.10
DSCMET_COMPS 2018-09-28 01:05:00 10.870 11.130 11.210 11.360 11.390 86.300 8.670 1.783 262.600 263.200 261.900 12.800 79.560 9.358 3.021 184.200 263.200 262.300 0.3080 90.300 0.456 42.520 356.40 312.60 -2.87 -6.19
DSCMET_COMPS 2018-09-28 01:00:00 10.930 11.180 11.250 11.350 11.350 86.300 8.740 1.790 262.600 263.200 261.900 12.870 79.580 9.430 3.032 184.800 263.000 262.200 0.2550 85.200 0.424 42.630 356.80 313.00 -2.88 -6.21
DSCMET_COMPS 2018-09-28 00:55:00 10.970 11.180 11.280 11.480 11.600 86.200 8.770 1.808 262.600 263.200 261.900 13.050 78.640 9.428 3.209 184.700 263.000 262.200 0.2660 89.000 0.473 53.890 357.10 313.20 -2.80 -6.16
DSCMET_COMPS 2018-09-28 00:50:00 11.030 11.220 11.290 11.400 11.480 86.200 8.820 1.815 262.600 263.200 261.900 12.940 79.480 9.479 3.061 184.800 263.000 262.200 0.2530 87.000 0.521 46.120 357.80 313.40 -2.78 -6.12
DSCMET_COMPS 2018-09-28 00:45:00 11.110 11.300 11.400 11.460 11.470 86.200 8.910 1.825 262.600 263.200 261.900 13.000 79.170 9.479 3.120 184.700 262.900 262.200 0.2700 87.800 0.290 44.130 358.10 313.80 -2.78 -6.07
DSCMET_COMPS 2018-09-28 00:40:00 11.170 11.450 11.490 11.580 11.660 86.100 8.950 1.845 262.600 263.200 261.800 13.190 78.510 9.539 3.259 184.600 262.900 262.200 0.3050 91.200 1.080 36.310 358.00 313.80 -2.82 -6.15
DSCMET_COMPS 2018-09-28 00:35:00 11.210 11.480 11.490 11.560 11.720 85.900 8.950 1.877 262.600 263.200 261.500 13.400 77.510 9.553 3.457 184.700 262.900 262.200 0.2040 89.700 1.014 38.160 358.20 314.30 -2.80 -5.99
DSCMET_COMPS 2018-09-28 00:30:00 11.320 11.560 11.610 11.820 11.910 85.700 9.010 1.917 262.600 263.200 261.200 13.460 77.190 9.549 3.520 184.700 262.900 262.200 0.2470 90.500 0.564 50.200 358.70 314.90 -2.77 -6.02
DSCMET_COMPS 2018-09-28 00:25:00 11.380 11.650 11.750 11.930 12.040 85.400 9.030 1.965 262.600 263.200 261.200 13.440 77.480 9.586 3.471 184.500 262.900 262.200 0.2910 90.000 0.757 44.220 359.10 315.10 -2.78 -6.11
DSCMET_COMPS 2018-09-28 00:20:00 11.450 11.710 11.780 11.940 12.020 85.400 9.100 1.974 262.600 263.200 261.200 13.530 77.260 9.631 3.526 184.700 262.900 262.200 0.2680 91.100 0.636 35.650 359.20 314.90 -2.80 -6.08
DSCMET_COMPS 2018-09-28 00:15:00 11.430 11.730 11.760 11.890 11.920 85.900 9.170 1.904 262.600 263.200 261.200 13.480 77.560 9.640 3.468 184.600 262.900 262.100 0.1770 86.300 0.407 41.250 359.20 315.80 -2.85 -6.02
DSCMET_COMPS 2018-09-28 00:10:00 11.510 11.790 11.890 12.050 12.170 86.500 9.330 1.833 262.600 263.200 261.200 13.820 76.000 9.667 3.792 184.600 262.900 262.200   0.000 0.645 45.860 359.60 315.80 -2.85 -6.13
DSCMET_COMPS 2018-09-28 00:05:00 11.620 11.970 12.010 12.140 12.270 86.100 9.380 1.901 262.500 263.200 261.200 13.900 75.790 9.703 3.845 184.700 262.900 262.000   0.000 0.946 40.350 360.10 315.60 -2.86 -6.20
DSCMET_COMPS 2018-09-28 00:00:00 11.740 12.040 12.090 12.210 12.330 85.100 9.340 2.054 262.300 263.200 261.200 14.000 75.030 9.649 3.991 184.600 262.900 262.100 0.2360 91.200 0.473 48.030 360.50 316.00 -2.86 -6.14
DSCMET_COMPS 2018-09-27 23:55:00 11.830 12.080 12.180 12.310 12.280 84.400 9.300 2.163 262.000 263.200 261.200 13.850 76.160 9.727 3.774 184.800 262.900 262.000 0.2380 89.100 0.453 45.880 360.70 316.40 -2.80 -6.10
DSCMET_COMPS 2018-09-27 23:50:00 11.860 12.170 12.260 12.300 12.250 84.600 9.360 2.140 262.000 263.200 261.200 13.720 77.270 9.817 3.568 184.400 262.900 261.900 0.2770 87.300 0.298 39.290 361.00 316.70 -2.87 -6.11
DSCMET_COMPS 2018-09-27 23:45:00 11.930 12.250 12.410 12.500 12.530 84.900 9.480 2.108 262.000 263.200 261.200 14.030 75.770 9.825 3.881 184.400 262.900 261.900 0.2850 90.800 0.370 21.400 361.50 317.30 -2.92 -6.23
DSCMET_COMPS 2018-09-27 23:40:00 12.040 12.390 12.480 12.630 12.660 84.700 9.550 2.151 261.900 263.200 261.200 14.290 74.500 9.824 4.153 184.300 262.800 261.900 0.2810 94.800 0.933 34.010 361.80 317.10 -2.98 -6.31
DSCMET_COMPS 2018-09-27 23:35:00 12.130 12.510 12.560 12.730 12.740 84.100 9.540 2.249 261.900 263.200 261.200 14.460 73.690 9.825 4.333 184.500 262.800 261.900 0.2690 91.500 0.477 44.280 361.70 317.40 -3.01 -6.36
DSCMET_COMPS 2018-09-27 23:30:00 12.140 12.560 12.700 12.860 12.880 83.900 9.500 2.279 262.000 263.200 261.200 14.380 74.330 9.877 4.206 184.500 262.800 261.800 0.2930 87.900 0.564 43.670 362.00 317.80 -2.98 -6.26
DSCMET_COMPS 2018-09-27 23:25:00 12.220 12.660 12.740 12.770 12.790 83.900 9.580 2.291 261.900 263.200 261.200 14.150 75.640 9.915 3.932 184.500 262.800 261.800 0.3250 85.000 0.356 40.610 362.60 318.10 -2.93 -6.24
DSCMET_COMPS 2018-09-27 23:20:00 12.240 12.690 12.780 12.820 12.810 83.700 9.580 2.322 261.900 263.200 261.200 14.130 76.370 10.039 3.809 184.500 262.800 261.800 0.2780 78.970 0.422 26.760 363.30 318.70 -2.92 -6.36
DSCMET_COMPS 2018-09-27 23:15:00 12.340 12.680 12.740 12.780 12.780 83.800 9.690 2.323 261.900 263.200 261.200 14.210 76.030 10.050 3.884 184.700 262.500 261.800 0.2000 76.730 0.240 37.390 364.00 318.60 -2.86 -6.37
DSCMET_COMPS 2018-09-27 23:10:00 12.430 12.800 12.870 12.930 12.930 83.700 9.750 2.352 261.900 263.200 261.200 14.360 75.700 10.130 3.976 184.600 262.500 261.700 0.3100 83.400 0.339 43.050 364.80 318.90 -2.85 -6.37
DSCMET_COMPS 2018-09-27 23:05:00 12.510 12.860 12.940 13.010 13.020 83.400 9.780 2.408 261.900 263.200 261.200 14.520 75.050 10.156 4.125 184.600 262.500 261.500 0.2740 84.600 0.283 48.440 365.00 319.30 -2.89 -6.25
DSCMET_COMPS 2018-09-27 23:00:00 12.540 12.940 13.060 13.120 13.120 83.200 9.780 2.441 261.900 263.200 261.200 14.760 74.190 10.215 4.334 184.600 262.500 261.500   0.000 0.419 54.610 365.30 320.40 -2.96 -6.26
DSCMET_COMPS 2018-09-27 22:55:00 12.580 13.040 13.190 13.240 13.280 83.700 9.910 2.375 261.900 262.900 261.200 14.970 73.080 10.192 4.582 184.600 262.500 261.500 0.2960 85.400 0.525 53.410 365.50 320.40 -2.92 -6.27
DSCMET_COMPS 2018-09-27 22:50:00 12.670 13.170 13.300 13.390 13.410 83.600 9.970 2.404 261.900 262.900 261.200 15.150 72.560 10.258 4.724 184.600 262.500 261.500 0.2910 89.200 0.839 42.910 366.20 320.70 -2.92 -6.40
DSCMET_COMPS 2018-09-27 22:45:00 12.780 13.260 13.300 13.430 13.440 84.000 10.150 2.362 261.900 262.800 261.200 15.700 69.460 10.133 5.447 184.600 262.500 261.500 0.2480 88.200 1.354 48.980 366.80 321.10 -2.92 -6.38
DSCMET_COMPS 2018-09-27 22:40:00 12.860 13.300 13.420 13.650 13.670 84.000 10.230 2.374 261.900 262.700 261.200 15.470 70.780 10.194 5.135 184.700 262.500 261.500 0.2540 88.100 0.728 52.300 367.20 321.50 -2.88 -6.29
DSCMET_COMPS 2018-09-27 22:35:00 12.910 13.450 13.500 13.750 13.860 83.500 10.200 2.457 261.900 262.600 261.200 15.600 70.700 10.302 5.192 184.500 262.500 261.500 0.2800 86.700 0.986 43.850 367.40 322.50 -2.97 -6.25
DSCMET_COMPS 2018-09-27 22:30:00 12.970 13.490 13.620 13.810 13.870 83.700 10.280 2.436 261.900 262.600 261.200 15.480 71.160 10.284 5.072 184.500 262.500 261.500 0.2430 89.600 0.292 60.610 367.80 322.80 -2.95 -6.27
DSCMET_COMPS 2018-09-27 22:25:00 13.010 13.610 13.820 13.970 14.070 83.800 10.350 2.428 261.900 262.600 261.200 15.790 70.080 10.352 5.367 184.400 262.500 261.500 0.2050 90.200 0.823 45.710 367.80 322.90 -2.99 -6.36
DSCMET_COMPS 2018-09-27 22:20:00 13.180 13.800 13.900 14.110 14.220 83.400 10.440 2.516 261.900 262.600 261.200 15.830 70.190 10.414 5.361 184.400 262.500 261.500 0.2070 91.900 1.057 34.820 368.50 323.30 -2.99 -6.33
DSCMET_COMPS 2018-09-27 22:15:00 13.280 13.880 13.960 14.120 14.180 83.200 10.510 2.562 261.900 262.600 261.200 16.040 69.130 10.387 5.627 184.400 262.500 261.400 0.2030 90.000 0.548 48.690 369.00 323.70 -3.01 -6.38
DSCMET_COMPS 2018-09-27 22:10:00 13.430 13.970 14.050 14.220 14.320 82.400 10.500 2.711 261.900 262.600 261.200 16.130 68.790 10.399 5.722 184.400 262.400 261.500 0.2830 90.200 0.439 58.970 369.30 324.10 -3.02 -6.36
DSCMET_COMPS 2018-09-27 22:05:00 13.540 14.020 14.120 14.240 14.280 82.100 10.550 2.777 261.900 262.600 261.100 15.940 70.170 10.515 5.403 184.300 262.200 261.400 0.2680 77.930 0.549 56.730 369.70 325.00 -3.03 -6.34
DSCMET_COMPS 2018-09-27 22:00:00 13.520 14.060 14.260 14.330 14.310 82.500 10.620 2.711 261.900 262.600 260.700 15.810 71.250 10.619 5.164 184.000 262.100 261.200 0.2900 83.400 0.231 60.970 370.60 325.10 -2.95 -6.39
DSCMET_COMPS 2018-09-27 21:55:00 13.750 14.380 14.550 14.630 14.630 81.400 10.630 2.925 261.900 262.600 260.800 16.100 70.280 10.692 5.438 183.900 262.200 261.300 0.2920 87.500 0.747 32.360 371.10 325.30 -2.98 -6.40
DSCMET_COMPS 2018-09-27 21:50:00 13.740 14.350 14.470 14.520 14.550 81.600 10.660 2.892 261.900 262.600 260.500 16.040 70.430 10.666 5.390 183.700 262.100 261.100   0.000 0.436 42.890 371.40 325.90 -2.97 -6.33
DSCMET_COMPS 2018-09-27 21:45:00 13.820 14.450 14.620 14.670 14.730 81.600 10.730 2.907 261.900 262.600 260.500 16.270 69.420 10.670 5.656 183.900 262.100 261.100 0.3010 85.100 0.299 63.110 371.90 326.30 -2.99 -6.43
DSCMET_COMPS 2018-09-27 21:40:00 13.940 14.580 14.790 14.860 14.900 81.300 10.800 2.978 261.900 262.600 260.500 16.510 68.630 10.727 5.892 184.100 262.100 261.100 0.3500 87.400 0.448 49.890 372.40 326.80 -3.00 -6.45
DSCMET_COMPS 2018-09-27 21:35:00 14.020 14.760 14.910 14.970 14.980 81.200 10.860 3.009 261.900 262.600 260.500 16.560 68.660 10.781 5.905 184.100 262.100 261.100 0.2710 83.600 0.460 33.710 373.00 327.10 -3.03 -6.51
DSCMET_COMPS 2018-09-27 21:30:00 14.170 14.840 14.960 15.040 15.030 81.400 11.040 3.006 261.900 262.600 260.500 16.770 67.370 10.697 6.231 183.800 262.100 261.100 0.3580 87.700 0.341 50.090 373.70 327.70 -3.01 -6.51
DSCMET_COMPS 2018-09-27 21:25:00 14.260 14.900 15.030 15.190 15.280 81.100 11.070 3.072 261.900 262.600 260.500 16.920 67.030 10.764 6.356 184.100 262.100 261.100 0.2210 86.100 0.232 69.710 374.10 328.10 -3.03 -6.44
DSCMET_COMPS 2018-09-27 21:20:00 14.290 14.960 15.180 15.380 15.530 80.900 11.070 3.111 261.900 262.600 260.500 17.140 66.750 10.910 6.500 184.100 262.100 261.100 0.3000 86.100 0.462 65.420 374.70 328.70 -3.04 -6.44
DSCMET_COMPS 2018-09-27 21:15:00 14.320 15.110 15.280 15.430 15.400 81.000 11.130 3.101 261.900 262.600 260.500 17.010 67.680 10.995 6.266 184.300 261.800 261.000 0.3820 87.100 0.597 49.150 374.90 329.40 -3.04 -6.49
DSCMET_COMPS 2018-09-27 21:10:00 14.390 15.160 15.410 15.560 15.570 81.000 11.190 3.115 261.900 262.600 260.500 17.240 66.740 11.003 6.543 184.200 261.700 261.100 0.2810 86.200 0.331 58.050 375.70 329.90 -3.04 -6.56
DSCMET_COMPS 2018-09-27 21:05:00 14.520 15.400 15.520 15.760 15.760 80.200 11.170 3.273 261.900 262.600 260.500 17.400 66.360 11.070 6.685 183.900 261.700 261.000 0.2700 87.600 0.611 32.900 376.20 330.20 -3.05 -6.52
DSCMET_COMPS 2018-09-27 21:00:00 14.550 15.420 15.580 15.690 15.750 80.400 11.220 3.247 261.900 262.600 260.500 17.470 66.260 11.114 6.735 184.400 261.700 260.800 0.2440 85.900 0.378 46.460 376.90 330.80 -3.08 -6.50
DSCMET_COMPS 2018-09-27 20:55:00 14.640 15.540 15.730 15.900 15.970 80.400 11.310 3.265 261.900 262.600 260.500 17.710 65.440 11.154 7.003 184.100 261.700 260.700 0.2760 87.600 0.669 45.430 377.00 331.20 -3.16 -6.60
DSCMET_COMPS 2018-09-27 20:50:00 14.760 15.710 15.890 16.070 16.130 80.400 11.440 3.291 261.900 262.600 260.500 17.980 64.520 11.197 7.313 184.100 261.900 260.700 0.3440 88.500 0.634 43.820 377.40 331.30 -3.20 -6.66
DSCMET_COMPS 2018-09-27 20:45:00 14.880 15.880 16.090 16.210 16.220 80.000 11.480 3.384 261.900 262.500 260.500 18.040 64.340 11.211 7.378 184.100 261.700 260.700 0.2700 89.900 0.534 42.280 377.80 331.80 -3.22 -6.69
DSCMET_COMPS 2018-09-27 20:40:00 14.970 16.040 16.290 16.490 16.470 79.670 11.500 3.460 261.900 262.300 260.500 18.140 64.260 11.287 7.441 184.400 261.700 260.700   0.000 0.463 41.690 378.30 332.30 -3.19 -6.64
DSCMET_COMPS 2018-09-27 20:35:00 15.060 16.160 16.450 16.680 16.690 79.470 11.550 3.514 261.900 262.000 260.500 18.210 63.990 11.290 7.530 184.400 261.700 260.700 0.3000 88.400 0.839 32.430 379.00 332.70 -3.14 -6.63
DSCMET_COMPS 2018-09-27 20:30:00 15.170 16.210 16.530 16.720 16.740 79.140 11.590 3.596 261.900 261.900 260.500 18.210 64.260 11.354 7.474 184.000 261.700 260.700 0.2900 87.600 0.327 41.780 379.50 333.20 -3.15 -6.63
DSCMET_COMPS 2018-09-27 20:25:00 15.230 16.290 16.570 16.750 16.740 78.870 11.600 3.657 261.900 261.900 260.500 18.390 63.500 11.345 7.719 183.900 261.700 260.600 0.2640 86.100 0.390 32.130 380.40 334.10 -3.10 -6.51
DSCMET_COMPS 2018-09-27 20:20:00 15.370 16.370 16.730 16.960 16.960 79.140 11.780 3.643 261.900 261.900 260.500 18.620 62.640 11.356 8.016 184.300 261.700 260.500 0.2330 89.700 0.447 31.540 381.10 334.50 -3.13 -6.59
DSCMET_COMPS 2018-09-27 20:15:00 15.490 16.590 16.950 17.150 17.200 78.990 11.870 3.697 261.900 261.900 260.500 18.800 61.910 11.349 8.265 184.300 261.700 260.500 0.2870 88.900 0.405 46.070 381.60 334.80 -3.13 -6.70
DSCMET_COMPS 2018-09-27 20:10:00 15.650 16.790 17.040 17.200 17.240 78.080 11.860 3.897 261.900 261.900 260.500 18.970 61.580 11.429 8.426 183.700 261.700 260.400 0.2550 89.100 0.386 44.130 382.10 335.10 -3.14 -6.66
DSCMET_COMPS 2018-09-27 20:05:00 15.710 16.850 17.200 17.310 17.250 78.160 11.930 3.898 261.900 261.900 260.500 18.980 61.780 11.487 8.387 184.400 261.700 260.400 0.3050 87.200 0.210 53.190 382.80 336.10 -3.11 -6.64
DSCMET_COMPS 2018-09-27 20:00:00 15.770 16.990 17.380 17.540 17.500 78.110 11.980 3.922 261.900 261.900 260.400 19.140 61.170 11.488 8.606 184.400 261.600 260.300 0.3110 88.100 0.275 40.660 383.50 336.60 -3.19 -6.68
DSCMET_COMPS 2018-09-27 19:55:00 15.840 17.010 17.470 17.710 17.690 77.840 11.990 3.988 261.900 261.900 260.400 19.250 60.930 11.532 8.719 184.400 261.400 260.300 0.3080 88.200 0.306 36.970 384.10 337.10 -3.15 -6.80
DSCMET_COMPS 2018-09-27 19:50:00 15.920 16.990 17.530 17.780 17.780 77.840 12.080 4.008 261.900 261.900 259.900 19.630 59.580 11.550 9.236 184.400 261.300 260.300 0.2020 89.500 0.235 38.050 384.60 337.30 -3.26 -6.86
DSCMET_COMPS 2018-09-27 19:45:00 16.020 17.140 17.680 18.110 18.170 77.990 12.200 4.007 261.900 261.900 259.800 19.970 58.250 11.528 9.743 184.300 261.300 260.300 0.2690 88.500 0.754 45.250 385.10 338.00 -3.31 -6.96
DSCMET_COMPS 2018-09-27 19:40:00 16.220 17.400 17.850 18.260 18.510 77.290 12.250 4.187 261.900 261.900 259.800 19.950 58.470 11.566 9.680 184.600 261.300 260.200 0.2370 91.300 0.637 32.360 385.80 338.80 -3.31 -6.89
DSCMET_COMPS 2018-09-27 19:35:00 16.310 17.540 18.010 18.410 18.500 76.840 12.260 4.295 261.900 261.900 259.800 20.110 58.310 11.674 9.814 184.500 261.300 260.000   0.000 0.388 37.980 386.20 339.20 -3.36 -6.98
DSCMET_COMPS 2018-09-27 19:30:00 16.400 17.750 18.200 18.420 18.490 76.760 12.320 4.334 261.900 261.900 259.800 20.220 57.560 11.581 10.058 184.800 261.300 260.000   0.000 0.492 41.940 387.10 340.10 -3.35 -7.01
DSCMET_COMPS 2018-09-27 19:25:00 16.420 17.720 18.310 18.620 18.650 76.790 12.360 4.334 261.900 261.900 259.800 20.370 57.300 11.653 10.214 184.100 261.200 260.000 0.3060 87.400 0.254 41.160 387.70 340.60 -3.40 -7.18
DSCMET_COMPS 2018-09-27 19:20:00 16.570 17.950 18.500 18.870 18.950 76.100 12.350 4.506 261.900 261.900 259.800 20.680 56.450 11.716 10.619 183.900 261.000 260.000 0.1880 95.100 0.828 34.590 388.90 341.30 -3.49 -7.19
DSCMET_COMPS 2018-09-27 19:15:00 16.660 17.880 18.650 19.050 19.130 76.380 12.500 4.479 261.900 261.900 259.800 20.970 55.140 11.631 11.135 184.700 261.000 260.000 0.2380 89.300 0.302 49.690 389.20 341.90 -3.60 -7.35
DSCMET_COMPS 2018-09-27 19:10:00 16.860 18.120 18.840 19.260 19.370 75.910 12.600 4.626 261.900 261.900 259.800 21.190 54.440 11.642 11.462 184.800 260.900 260.000 0.2580 88.600 0.817 39.240 390.40 342.60 -3.45 -7.25
DSCMET_COMPS 2018-09-27 19:05:00 17.000 18.220 18.910 19.340 19.480 75.610 12.680 4.726 261.900 261.900 259.800 21.140 54.880 11.717 11.317 184.500 260.900 259.900 0.2930 89.400 0.680 33.890 391.00 343.40 -3.50 -7.27
DSCMET_COMPS 2018-09-27 19:00:00 17.010 18.280 18.990 19.660 19.760 75.390 12.650 4.771 261.700 261.900 259.800 21.690 52.890 11.668 12.221 184.200 260.900 259.900 0.1840 90.100 0.367 43.240 391.40 344.20 -3.60 -7.31
DSCMET_COMPS 2018-09-27 18:55:00 17.170 18.510 19.200 19.770 19.960 75.130 12.740 4.871 261.600 261.900 259.800 21.530 53.940 11.817 11.832 184.000 260.900 259.800 0.2310 90.500 0.859 31.350 392.30 344.70 -3.61 -7.43
DSCMET_COMPS 2018-09-27 18:50:00 17.260 18.660 19.360 19.710 19.800 74.630 12.730 4.997 261.400 261.900 259.800 21.440 54.000 11.751 11.752 183.800 260.900 259.600 0.1870 89.600 0.353 34.970 393.50 345.80 -3.55 -7.35
DSCMET_COMPS 2018-09-27 18:45:00 17.380 18.800 19.620 19.940 19.990 74.310 12.780 5.099 261.200 261.700 259.800 21.920 51.810 11.568 12.678 184.400 260.600 259.600 0.2720 89.900 0.129 28.940 394.00 346.40 -3.67 -7.47
DSCMET_COMPS 2018-09-27 18:40:00 17.540 19.010 19.810 20.140 20.250 73.750 12.810 5.263 261.200 261.400 259.800 22.280 51.160 11.709 13.133 184.200 260.600 259.500 0.2740 89.200 0.266 40.660 395.30 347.20 -3.75 -7.59
DSCMET_COMPS 2018-09-27 18:35:00 17.680 19.140 19.900 20.240 20.310 73.410 12.880 5.378 261.200 261.200 259.300 22.650 50.110 11.735 13.721 184.400 260.600 259.500 0.2610 89.900 0.731 47.380 395.80 347.70 -3.71 -7.68
DSCMET_COMPS 2018-09-27 18:30:00 17.810 19.380 20.210 20.590 20.660 73.160 12.960 5.473 261.200 261.200 259.200 22.790 49.350 11.632 14.048 184.600 260.500 259.300 0.3070 89.100 0.477 54.140 397.00 348.70 -3.79 -7.68
DSCMET_COMPS 2018-09-27 18:25:00 18.010 19.590 20.410 20.790 20.890 72.540 13.020 5.671 261.200 261.200 259.200 22.940 48.800 11.600 14.330 184.100 260.500 259.200   0.000 0.443 51.360 398.20 349.60 -3.73 -7.79
DSCMET_COMPS 2018-09-27 18:20:00 18.190 19.780 20.550 21.040 21.290 72.040 13.090 5.840 261.200 261.200 259.200 23.480 47.430 11.662 15.202 184.300 260.500 259.200 0.2930 89.700 0.868 47.930 399.00 350.40 -3.96 -7.85
DSCMET_COMPS 2018-09-27 18:15:00 18.340 19.980 20.740 21.280 21.450 71.660 13.150 5.975 261.200 261.200 259.200 23.550 47.230 11.662 15.324 184.200 260.500 259.200 0.3270 86.800 0.965 41.540 400.20 351.30 -3.98 -7.65
DSCMET_COMPS 2018-09-27 18:10:00 18.480 20.120 20.980 21.470 21.720 71.580 13.270 6.045 261.200 261.200 259.200 23.670 47.200 11.762 15.444 184.300 260.400 259.200 0.3360 88.800 1.108 43.010 401.50 352.30 -3.98 -7.32
DSCMET_COMPS 2018-09-27 18:05:00 18.680 20.400 21.230 21.750 21.950 70.960 13.320 6.254 261.200 261.200 259.200 23.910 46.470 11.744 15.885 184.700 260.200 259.200 0.2750 88.900 0.950 42.690 403.10 353.30 -4.12 -6.68
DSCMET_COMPS 2018-09-27 18:00:00 18.840 20.510 21.420 21.920 22.110 70.580 13.400 6.400 261.200 261.200 259.200 24.120 45.970 11.771 16.237 184.300 260.200 258.800 0.2400 89.800 0.513 52.650 404.50 354.80 -4.20 -5.93
DSCMET_COMPS 2018-09-27 17:55:00 19.030 20.670 21.630 22.230 22.440 69.570 13.350 6.698 261.200 261.200 259.200 24.570 44.580 11.714 17.109 184.100 260.200 258.800 0.3220 86.300 0.542 49.190 405.60 355.40 -4.22 -5.02
DSCMET_COMPS 2018-09-27 17:50:00 19.170 20.880 21.880 22.500 22.760 68.740 13.310 6.941 261.200 261.200 259.200 24.980 42.930 11.514 18.055 183.900 260.000 258.800 0.2410 85.300 0.497 47.070 406.90 356.50 -4.38 -4.04
DSCMET_COMPS 2018-09-27 17:45:00 19.370 21.130 22.120 22.660 23.120 68.040 13.340 7.186 261.200 261.200 259.200 25.140 42.450 11.488 18.381 184.000 259.800 258.600 0.3320 88.200 0.593 42.230 408.40 357.90 -4.41 -2.57
DSCMET_COMPS 2018-09-27 17:40:00 19.620 21.430 22.400 22.920 23.520 66.640 13.260 7.618 261.200 261.200 259.200 25.530 40.670 11.191 19.393 182.900 259.800 258.500 0.1770 86.200 0.182 332.000 410.10 359.60 -4.59 -1.32
DSCMET_COMPS 2018-09-27 17:35:00 19.790 21.640 22.650 23.180 23.830 65.710 13.210 7.913 261.200 261.200 259.200 25.840 39.640 11.082 20.096 184.000 259.800 258.500 0.1820 86.400 0.293 307.300 411.10 360.40 -4.49 -0.05
DSCMET_COMPS 2018-09-27 17:30:00 20.030 21.870 22.890 23.530 24.270 64.570 13.170 8.299 261.200 261.200 259.200 26.070 38.800 10.964 20.655 184.200 259.900 258.500 0.1960 87.600 0.279 288.500 412.90 361.50 -4.58 1.37
DSCMET_COMPS 2018-09-27 17:25:00 20.300 22.060 23.150 23.830 24.550 63.450 13.150 8.705 261.100 261.200 259.200 26.740 37.010 10.847 22.115 184.500 260.100 258.400 0.2250 60.530 0.442 248.800 414.40 362.70 -4.55 2.47
DSCMET_COMPS 2018-09-27 17:20:00 20.460 22.260 23.430 24.240 24.980 62.810 13.150 8.946 260.800 260.800 259.200 27.180 35.870 10.765 23.104 184.900 260.100 258.400 0.1300 78.560 0.420 253.000 415.80 363.90 -4.54 3.60
DSCMET_COMPS 2018-09-27 17:15:00 20.720 22.540 23.740 24.660 25.510 62.250 13.250 9.227 260.500 260.500 258.900 27.960 33.600 10.468 25.037 185.000 260.100 258.400   0.000 0.482 241.400 417.60 365.00 -4.46 4.70
DSCMET_COMPS 2018-09-27 17:10:00 21.000 22.920 24.210 25.210 26.100 61.030 13.220 9.691 260.500 260.500 258.500 28.540 32.310 10.387 26.398 185.200 260.100 258.400 0.2470 47.780 0.533 246.200 419.30 366.40 -4.41 5.81
DSCMET_COMPS 2018-09-27 17:05:00 21.200 23.280 24.590 25.610 26.700 60.530 13.280 9.936 260.500 260.500 258.500 29.090 30.900 10.195 27.820 184.900 259.800 258.300 0.3900 341.000 0.595 247.000 421.50 367.70 -4.87 6.63
DSCMET_COMPS 2018-09-27 17:00:00 21.410 23.670 24.990 25.940 27.180 59.360 13.180 10.363 260.500 260.500 258.500 29.500 29.620 9.917 29.013 184.500 259.700 258.400 0.4030 49.680 1.038 267.700 423.30 369.10 -5.11 7.65
DSCMET_COMPS 2018-09-27 16:55:00 21.640 23.870 25.270 26.340 27.290 58.370 13.140 10.766 260.500 260.500 258.500 29.790 29.240 9.973 29.660 184.500 259.900 258.300 0.3560 11.950 0.922 265.800 425.60 370.60 -5.18 8.71
DSCMET_COMPS 2018-09-27 16:50:00 21.790 23.900 25.460 26.730 27.580 58.150 13.220 10.923 260.500 260.500 258.500 29.960 28.870 9.928 30.107 182.800 259.900 258.400 0.1630 79.870 1.130 276.400 427.70 372.40 -5.22 9.64
DSCMET_COMPS 2018-09-27 16:45:00 22.090 24.300 25.810 26.930 28.000 57.210 13.250 11.374 260.500 260.500 258.500 30.330 28.060 9.820 31.103 184.100 259.800 258.400 0.2270 47.570 1.459 279.800 430.30 374.20 -5.36 10.56
DSCMET_COMPS 2018-09-27 16:40:00 22.250 24.540 26.000 27.150 28.380 57.390 13.450 11.437 260.500 260.500 258.500 30.650 27.620 9.857 31.870 184.500 260.000 258.400 0.2390 71.230 1.134 273.900 433.40 376.80 -4.83 12.07
DSCMET_COMPS 2018-09-27 16:35:00 22.410 24.690 26.220 27.600 28.790 56.910 13.470 11.679 260.500 260.500 258.500 31.060 26.800 9.756 32.993 184.700 259.800 258.400 0.1950 67.560 1.019 246.600 436.30 379.50 -5.36 12.53
DSCMET_COMPS 2018-09-27 16:30:00 22.590 25.000 26.270 27.480 28.650 56.480 13.520 11.925 260.500 260.500 258.500 31.150 26.710 9.782 33.203 184.600 259.800 258.400 0.0690 80.600 0.922 247.400 438.50 381.30 -4.26 14.23
DSCMET_COMPS 2018-09-27 16:25:00 22.670 24.940 26.180 27.500 28.760 56.040 13.480 12.104 260.500 260.500 258.500 31.470 26.450 9.907 33.932 184.700 259.700 258.300 0.2060 14.890 0.925 214.500 443.10 385.50 -3.24 17.14
DSCMET_COMPS 2018-09-27 16:20:00 22.880 24.930 26.050 27.480 29.130 54.570 13.260 12.669 260.500 260.500 258.500 31.900 25.290 9.602 35.317 183.900 259.700 258.400 0.2600 56.230 1.259 198.900 445.00 386.30 -3.35 17.89
DSCMET_COMPS 2018-09-27 16:15:00 22.810 24.800 26.150 27.860 29.530 55.460 13.450 12.369 260.500 260.500 258.500 32.090 24.570 9.333 36.043 184.700 259.700 258.300 0.2710 55.940 1.835 172.500 447.30 386.80 -2.87 19.76
DSCMET_COMPS 2018-09-27 16:10:00 23.240 25.260 26.830 28.330 29.340 53.170 13.190 13.347 260.500 260.500 258.500 31.940 25.600 9.817 35.250 185.200 259.600 258.200 0.3230 23.490 1.186 198.300 450.00 388.40 -2.68 21.46
DSCMET_COMPS 2018-09-27 16:05:00 23.530 25.810 27.380 28.780 29.990 51.990 13.120 13.925 260.500 260.500 258.500 32.450 24.570 9.634 36.782 184.500 259.700 258.400   0.000 0.792 215.000 450.90 387.10 -3.41 22.41